     2              OBSERVATION DATA    GPS                 RINEX VERSION / TYPE
ASHTORIN USGS 12 - MAY - 93 14:51                           PGM / RUN BY / DATE
                                                            COMMENT
Original Marker Name: carp CarPerm_stmpd_Lexi_1989_USGS     COMMENT
Campaign Name: USGS Parkfield                               COMMENT
4-Character Station Name: LEXI                              COMMENT
6-Character Antenna Code: ASHP12                            COMMENT
Vertical Measurement Point: EGP                             COMMENT
Vertical Offset to Rinex Ref. Point: 0.0593                 COMMENT
Radial Measurement Point: EGP                               COMMENT
Radial Offset to Rinex Ref. Point: 0.1425                   COMMENT
Antenna Height from Field Measurement: 1.3350 m             COMMENT
Additional Antenna Identification Info.:                    COMMENT
Ashtech L1/L2 Revision B (700228DE)                         COMMENT
Original XYZ: -2633208.4300 -4478668.6400 3688054.0000      COMMENT
New XYZ position is based on association with SCEC monument COMMENT
E1F1N2L6+0101. Position of that monument is believed to be  COMMENT
valid to within 1 m horizontally; vertical accuracy         COMMENT
should be no worse than 3-times this value.                 COMMENT
                                                            COMMENT
Revised Rinex header created by UCSD GPS archive for        COMMENT
GSAC on 11-Jul-2000 (2000:193) 00:42:10 GMT                 COMMENT
For assistance contact dagnew@ucsd.edu                      COMMENT
or anderson@python.ucsd.edu                                 COMMENT
                                                            COMMENT
LEXI 1989                                                   MARKER NAME
                                                            MARKER NUMBER
KWC US GEOLOGICAL SURVEY                                    OBSERVER / AGENCY
831 ASHTECH L-XII 6M24                                      REC # / TYPE / VERS
027 ASHTECH GEODETIC P                                      ANT # / TYPE
 -2620447.0475 -4460941.7962  3718442.6863                  APPROX POSITION XYZ
        1.2681        0.0000        0.0000                  ANTENNA: DELTA H/E/N
     1     2     0                                          WAVELENGTH FACT L1/2
     4    L1    L2    C1    D1                              # / TYPES OF OBSERV
    30                                                      INTERVAL
  1993     5    11     3     0   30.000000                  TIME OF FIRST OBS
  1993     5    11    13    30    0.000000                  TIME OF LAST OBS
    18                                                      # OF SATELLITES
           1   729   729   729   729                        PRN / # OF OBS
           3   524   524   524   524                        PRN / # OF OBS
          12   245   245   245   245                        PRN / # OF OBS
          14   380   380   380   380                        PRN / # OF OBS
          15   573   573   573   573                        PRN / # OF OBS
          16   217   217   217   217                        PRN / # OF OBS
          17   641   641   641   641                        PRN / # OF OBS
          18    65    65    65    65                        PRN / # OF OBS
          20   220   220   220   220                        PRN / # OF OBS
          21   814   814   814   814                        PRN / # OF OBS
          22   585   585   585   585                        PRN / # OF OBS
          23   757   757   757   757                        PRN / # OF OBS
          24    36    36    36    36                        PRN / # OF OBS
          25   577   577   577   577                        PRN / # OF OBS
          26   375   375   375   375                        PRN / # OF OBS
          28   560   560   560   560                        PRN / # OF OBS
          29   344   344   344   344                        PRN / # OF OBS
                                                            END OF HEADER
 93  5 11  3  0 30.0000000  0  5 16 24 17 20  3                      0.000085980
  -7891852.48517  -6156026.57017  21509914.036        1540.237
  22551882.84316   3769877.91915  24169901.614        3224.834
 -10643191.42016  -8295489.42915  22244139.812       -1908.714
  -3070749.42918 -11877149.02518  20834939.742        2194.411
  -9814951.90817  -7142243.26916  22239564.229       -1407.194
 93  5 11  3  1  0.0000000  0  5 16 24 17 20  3                      0.000093830
  -7845374.529 7  -6119809.975 7  21518758.834        1558.187
  22648627.864 6   3845263.647 5  24188311.747        3224.690
 -10700330.897 7  -8340013.664 5  22233266.720       -1900.587
  -3004665.116 8 -11825654.759 8  20847515.682        2211.138
  -9857143.364 7  -7175119.732 6  22231535.299       -1405.866
 93  5 11  3  1 30.0000000  0  5 16 24 17 20  3                      0.000101700
  -7798357.763 7  -6083173.542 7  21527705.708        1576.333
  22745362.034 6   3920640.948 5  24206719.664        3224.313
 -10757222.308 6  -8384344.599 5  22222440.775       -1892.173
  -2938080.968 8 -11773771.009 8  20860186.243        2227.845
  -9899295.286 7  -7207965.379 6  22223514.171       -1404.494
 93  5 11  3  2  0.0000000  0  5 16 24 17 20  3                      0.000109570
  -7750812.023 8  -6046124.896 7  21536753.286        1593.367
  22842072.440 6   3995999.719 5  24225123.527        3222.979
 -10813854.990 6  -8428473.932 5  22211663.815       -1883.193
  -2870997.596 8 -11721498.273 8  20872951.576        2244.427
  -9941405.951 7  -7240778.867 6  22215501.129       -1403.132
 93  5 11  3  2 30.0000000  0  5 16 24 17 20  3                      0.000117450
  -7702743.503 7  -6008668.908 7  21545900.593        1611.370
  22938738.962 6   4071324.248 5  24243518.298        3221.466
 -10870206.947 7  -8472384.533 6  22200940.677       -1873.457
  -2803410.723 8 -11668833.202 8  20885812.763        2261.371
  -9983468.594 7  -7273554.952 6  22207497.189       -1401.239
 93  5 11  3  3  0.0000000  0  5 16 24 17 20  3                      0.000125320
  -7654125.781 7  -5970784.968 7  21555151.700        1629.608
  23035359.606 5   4146613.080 5  24261903.974        3219.905
 -10926261.810 7  -8516063.611 6  22190274.930       -1863.743
  -2735314.430 8 -11615771.174 8  20898770.751        2278.374
 -10025475.089 7  -7306287.258 6  22199503.955       -1399.367
 93  5 11  3  3 30.0000000  0  5 16 24 17 20  3                      0.000133170
  -7604974.206 7  -5932485.041 7  21564504.953        1646.984
  23131918.636 5   4221853.847 5  24280278.320        3217.482
 -10982042.761 7  -8559529.247 6  22179659.940       -1855.238
  -2666714.657 8 -11562316.808 8  20911825.545        2294.875
 -10067429.429 7  -7338978.936 6  22191520.101       -1397.834
 93  5 11  3  4  0.0000000  0  5 16 24 17 20  3                      0.000140970
  -7555311.509 8  -5893786.829 7  21573956.161        1663.977
  23228404.338 6   4297037.560 5  24298639.272        3215.082
 -11037579.794 6  -8602804.847 6  22169090.910       -1847.236
  -2597621.131 8 -11508477.709 8  20924973.881        2311.379
 -10109338.382 7  -7371635.257 6  22183544.711       -1396.275
 93  5 11  3  4 30.0000000  0  5 16 24 17 20  3                      0.000148730
  -7505132.155 8  -5854686.031 7  21583505.148        1681.345
  23324828.514 6   4372173.269 5  24316987.790        3213.450
 -11092893.602 7  -8645906.447 6  22158564.607       -1840.273
  -2528037.545 8 -11454256.768 8  20938215.026        2327.655
 -10151203.405 7  -7404257.346 6  22175578.087       -1394.870
 93  5 11  3  5  0.0000000  0  5 16 24 17 20  3                      0.000156450
  -7454444.026 8  -5815188.796 7  21593150.771        1697.888
  23421211.885 6   4447277.202 5  24335328.637        3212.138
 -11148007.266 7  -8688852.128 6  22148076.504       -1833.919
  -2457967.675 8 -11399656.879 8  20951548.864        2343.751
 -10193025.965 7  -7436846.334 6  22167619.705       -1393.485
 93  5 11  3  5 30.0000000  0  5 16 24 17 20  3                      0.000164130
  -7403254.238 7  -5775300.649 7  21602891.741        1714.719
  23517556.764 6   4522351.104 5  24353662.399        3210.893
 -11202926.473 7  -8731646.303 6  22137625.332       -1827.280
  -2387411.743 8 -11344678.246 8  20964975.169        2359.997
 -10234803.687 7  -7469400.383 6  22159669.870       -1391.897
 93  5 11  3  6  0.0000000  0  5 16 24 17 20  3                      0.000171800
  -7351563.001 7  -5735021.761 7  21612727.680        1731.692
  23613861.452 5   4597393.751 5  24371988.331        3209.789
 -11257635.727 6  -8774276.860 6  22127214.468       -1819.722
  -2316371.479 8 -11289322.232 8  20978493.632        2376.227
 -10276535.373 7  -7501918.581 6  22151728.568       -1390.257
 93  5 11  3  6 30.0000000  0  5 16 24 17 20  3                      0.000179450
  -7299358.202 8  -5694342.696 7  21622662.031        1748.628
  23710132.473 5   4672410.148 5  24390309.030        3208.274
 -11312116.637 6  -8816729.463 6  22116846.784       -1812.228
  -2244848.089 8 -11233589.749 8  20992104.138        2392.116
 -10318220.091 7  -7534400.154 6  22143795.700       -1388.842
 93  5 11  3  7  0.0000000  0  5 16 24 17 20  3                      0.000187070
  -7246644.765 7  -5653267.283 7  21632693.168        1765.709
  23806355.001 5   4747388.701 5  24408620.036        3206.530
 -11366360.604 7  -8858997.449 6  22106524.831       -1804.021
  -2172843.146 8 -11177481.997 8  21005805.744        2408.251
 -10359856.355 7  -7566843.995 6  22135872.984       -1387.123
 93  5 11  3  7 30.0000000  0  5 16 24 17 20  3                      0.000194680
  -7193413.223 7  -5611788.161 7  21642822.885        1783.012
  23902523.974 5   4822325.527 5  24426920.464        3204.902
 -11420350.456 6  -8901067.426 6  22096251.343       -1795.322
  -2100354.833 8 -11120997.623 8  21019600.153        2424.276
 -10401440.213 7  -7599247.006 6  22127960.102       -1385.401
 93  5 11  3  8  0.0000000  0  5 16 24 17 20  3                      0.000202290
  -7139660.287 7  -5569902.764 7  21653051.445        1800.547
  23998656.098 5   4897233.684 5  24445215.241        3203.910
 -11474074.177 7  -8942930.027 6  22086028.421       -1786.305
  -2027384.903 7 -11064137.955 8  21033485.744        2440.285
 -10442970.949 7  -7631608.586 6  22120057.003       -1383.602
 93  5 11  3  8 30.0000000  0  5 16 24 17 20  3                      0.000209890
  -7085374.509 7  -5527602.147 7  21663381.515        1818.442
  24094768.424 5   4972126.450 5  24463503.829        3203.421
 -11527527.295 7  -8984581.754 6  22075856.824       -1777.285
  -1953929.050 8 -11006899.659 8  21047463.784        2456.775
 -10484440.991 7  -7663922.904 6  22112165.257       -1381.256
 93  5 11  3  9  0.0000000  0  5 16 24 17 20  3                      0.000217490
  -7030565.573 7  -5484893.879 7  21673811.142        1835.615
  24190852.973 5   5046997.509 5  24481787.051        3202.382
 -11580715.636 7  -9026027.183 6  22065735.498       -1768.457
  -1879987.217 8 -10949282.663 8  21061534.365        2472.731
 -10525848.188 7  -7696188.237 6  22104285.682       -1379.371
 93  5 11  3  9 30.0000000  0  5 16 24 17 20  3                      0.000225100
  -6975232.826 7  -5441777.441 7  21684340.843        1853.073
  24286911.350 5   5121848.194 4  24500067.135        3201.559
 -11633635.349 7  -9067263.285 6  22055665.069       -1759.557
  -1805563.430 8 -10891290.097 8  21075697.328        2488.812
 -10567193.249 7  -7728405.144 6  22096418.059       -1377.211
 93  5 11  3 10  0.0000000  0  5 16 24 17 20  3                      0.000232710
  -6919385.292 7  -5398259.895 7  21694967.847        1870.074
  24382936.323 5   5196672.786 4  24518340.563        3200.048
 -11686292.765 7  -9108295.000 6  22045644.528       -1750.921
  -1730662.924 8 -10832926.115 8  21089950.791        2504.613
 -10608478.808 7  -7760575.725 6  22088561.556       -1375.336
 93  5 11  3 10 30.0000000  0  5 16 24 17 20  3                      0.000240290
  -6863026.096 7  -5354343.630 7  21705692.791        1887.038
  24478907.157 5   5271455.345 4  24536604.103        3197.919
 -11738697.261 7  -9149129.624 6  22035672.471       -1742.732
  -1655288.679 8 -10774192.944 8  21104293.383        2520.301
 -10649705.227 7  -7792700.184 6  22080716.289       -1373.379
 93  5 11  3 11  0.0000000  0  5 16 24 17 20  3                      0.000247840
  -6806159.493 7  -5310031.986 7  21716514.201        1904.094
  24574821.838 5   5346194.079 4  24554855.232        3196.483
 -11790843.448 7  -9189762.993 6  22025749.811       -1733.621
  -1579444.094 8 -10715093.285 8  21118726.048        2536.017
 -10690872.750 7  -7824778.756 6  22072882.212       -1371.305
 93  5 11  3 11 30.0000000  0  5 16 24 17 20  3                      0.000255400
  -6748780.366 7  -5265320.963 7  21727433.759        1921.132
  24670695.758 5   5420901.065 4  24573098.884        3195.161
 -11842714.682 7  -9230182.096 6  22015879.453       -1724.420
  -1503126.938 8 -10655625.384 8  21133249.236        2551.844
 -10731976.694 7  -7856807.779 6  22065061.106       -1369.124
 93  5 11  3 12  0.0000000  0  5 16 24 17 20  3                      0.000262950
  -6690898.652 7  -5220218.333 7  21738448.814        1937.684
  24766527.565 5   5495575.100 3  24591336.290        3193.594
 -11894310.702 7  -9270386.739 6  22006060.651       -1715.263
  -1426335.958 8 -10595788.287 8  21147861.970        2567.547
 -10773013.097 7  -7888784.196 6  22057251.944       -1366.901
 93  5 11  3 12 30.0000000  0  5 16 24 17 20  3                      0.000270510
  -6632515.402 7  -5174724.899 7  21749558.826        1954.320
  24862319.613 5   5570218.174 3  24609564.974        3192.339
 -11945627.000 7  -9310373.427 6  21996295.143       -1705.972
  -1349068.977 8 -10535580.271 8  21162565.381        2583.411
 -10813976.409 7  -7920703.660 6  22049456.709       -1364.392
 93  5 11  3 13  0.0000000  0  5 16 24 17 20  3                      0.000278080
  -6573639.595 7  -5128847.653 7  21760761.929        1970.859
  24958070.796 5   5644829.524 3  24627784.573        3191.096
 -11996668.848 7  -9350146.272 6  21986581.898       -1696.808
  -1271329.718 8 -10475004.226 8  21177358.737        2599.247
 -10854867.740 7  -7952567.001 6  22041674.747       -1361.831
 93  5 11  3 13 30.0000000  0  5 16 24 17 20  3                      0.000285620
  -6514265.263 7  -5082581.935 7  21772060.227        1987.483
  25053777.067 5   5719406.014 3  24645995.656        3189.378
 -12047449.893 7  -9389715.898 6  21976917.847       -1688.558
  -1193118.644 8 -10414060.555 8  21192241.797        2614.851
 -10895684.458 7  -7984372.222 6  22033907.894       -1359.417
 93  5 11  3 14  0.0000000  0  5 16 24 17 20  3                      0.000293150
  -6454389.328 7  -5035925.363 7  21783454.227        2004.295
  25149434.567 5   5793944.324 3  24664197.887        3187.924
 -12097983.875 7  -9429092.974 6  21967301.942       -1680.372
  -1114437.366 8 -10352750.496 8  21207214.101        2630.521
 -10936425.307 7  -8016118.330 6  22026155.369       -1356.943
 93  5 11  3 14 30.0000000  0  5 16 24 17 20  3                      0.000300660
  -6394006.272 7  -4988873.635 7  21794944.623        2021.341
  25245050.142 5   5868449.894 2  24682392.862        3186.466
 -12148275.336 7  -9468281.093 6  21957731.950       -1672.480
  -1035288.250 8 -10291075.855 8  21222275.136        2646.090
 -10977089.693 7  -8047804.837 6  22018417.168       -1354.287
 93  5 11  3 15  0.0000000  0  5 16 24 17 20  3                      0.000308150
  -6333106.451 7  -4941419.212 7  21806533.772        2038.617
  25340630.980 5   5942928.471 2  24700582.407        3185.541
 -12198329.041 7  -9507283.967 6  21948207.253       -1664.356
   -955670.449 8 -10229036.042 8  21237426.065        2661.733
 -11017673.739 8  -8079428.752 6  22010694.253       -1351.566
 93  5 11  3 15 30.0000000  0  5 16 24 17 20  3                      0.000315610
  -6271695.583 7  -4893566.610 7  21818219.910        2055.431
  25436173.905 5   6017377.558 2  24718764.566        3184.068
 -12248140.042 7  -9546097.694 6  21938728.404       -1656.172
   -875587.905 8 -10166634.066 8  21252665.963        2677.211
 -11058178.154 7  -8110990.629 6  22002986.988       -1348.860
 93  5 11  3 16  0.0000000  0  5 16 24 17 20  3                      0.000323060
  -6209784.099 7  -4845323.887 7  21830001.147        2071.897
  25531681.681 5   6091799.297 3  24736938.989        3182.948
 -12297694.705 7  -9584711.685 6  21929298.285       -1647.546
   -795038.446 8 -10103868.278 8  21267994.153        2692.645
 -11098597.821 7  -8142486.443 6  21995295.472       -1346.100
 93  5 11  3 16 30.0000000  0  5 16 24 17 20  3                      0.000330510
  -6147373.014 7  -4796691.859 7  21841877.984        2088.648
  25627156.207 5   6166195.013 3  24755107.660        3181.783
 -12346979.613 7  -9623115.509 6  21919918.919       -1638.227
   -714024.035 8 -10040740.192 8  21283410.891        2708.165
 -11138931.445 7  -8173915.217 7  21987619.709       -1343.176
 93  5 11  3 17  0.0000000  0  5 16 24 17 20  3                      0.000337980
  -6084463.675 7  -4747671.602 7  21853849.047        2105.268
  25722601.299 5   6240567.863 3  24773270.050        3181.200
 -12395976.061 7  -9661294.507 6  21910595.030       -1628.031
   -632546.128 7  -9977250.929 8  21298915.409        2723.723
 -11179177.581 7  -8205275.821 7  21979961.289       -1340.085
 93  5 11  3 17 30.0000000  0  5 16 24 17 20  3                      0.000345470
  -6021060.342 7  -4698266.428 6  21865914.213        2121.642
  25818020.330 5   6314920.329 3  24791428.244        3180.262
 -12444664.090 7  -9699233.203 6  21901330.285       -1617.755
   -550602.939 8  -9913399.130 8  21314508.522        2739.184
 -11219331.063 7  -8236564.242 7  21972319.998       -1336.958
 93  5 11  3 18  0.0000000  0  5 16 24 17 20  3                      0.000353000
  -5957167.525 7  -4648479.799 6  21878072.367        2137.979
  25913423.106 5   6389260.131 3  24809582.977        3179.820
 -12493041.380 7  -9736929.770 6  21892124.907       -1607.543
   -468195.635 8  -9849185.667 8  21330190.607        2754.607
 -11259389.928 8  -8267778.935 7  21964697.067       -1333.807
 93  5 11  3 18 30.0000000  0  4 16 17 20  3                         0.000360560
  -5892792.798 7  -4598317.679 6  21890322.365        2153.661
 -12541130.080 7  -9774401.474 6  21882973.632       -1598.401
   -385334.569 7  -9784618.625 8  21345958.109        2769.539
 -11299361.446 8  -8298925.575 7  21957090.711       -1331.092
 93  5 11  3 19  0.0000000  0  4 16 17 20  3                         0.000368150
  -5827946.998 7  -4547788.485 7  21902662.223        2169.427
 -12588955.099 7  -9811667.681 6  21873872.822       -1590.096
   -302024.676 8  -9719701.850 8  21361811.344        2784.389
 -11339247.202 7  -8330005.355 7  21949500.836       -1328.245
 93  5 11  3 19 30.0000000  0  4 16 17 20  3                         0.000375510
  -5762627.310 7  -4496890.030 6  21915092.549        2185.397
 -12636541.928 7  -9848748.282 6  21864817.154       -1582.241
   -218271.222 7  -9654439.461 7  21377749.421        2799.241
 -11379048.904 8  -8361019.656 7  21941926.989       -1325.344
 93  5 11  3 20  0.0000000  0  4 16 17 20  3                         0.000382650
  -5696825.326 7  -4445615.762 6  21927613.951        2201.515
 -12683896.250 7  -9885647.761 6  21855805.452       -1574.662
   -134076.332 7  -9588833.052 7  21393770.821        2813.763
 -11418765.951 8  -8391967.987 7  21934369.072       -1322.701
 93  5 11  3 20 30.0000000  0  4 16 17 20  3                         0.000389650
  -5630532.556 7  -4393959.049 6  21940228.889        2218.040
 -12731012.039 7  -9922361.323 6  21846839.500       -1566.092
    -49447.012 7  -9522888.153 7  21409875.212        2828.233
 -11458401.489 8  -8422852.821 7  21926826.755       -1319.920
 93  5 11  3 21  0.0000000  0  4 16 17 20  3                         0.000396750
  -5563747.396 7  -4341918.657 6  21952937.869        2234.537
 -12777868.436 7  -9958872.755 6  21837923.058       -1557.335
     35608.677 7  -9456611.029 7  21426060.456        2842.280
 -11497960.802 8  -8453678.245 7  21919298.906       -1317.478
 93  5 11  3 21 30.0000000  0  4 16 17 20  3                         0.000404090
  -5496469.120 7  -4289494.049 6  21965740.664        2250.411
 -12824439.488 7  -9995161.854 6  21829061.035       -1547.489
    121091.728 7  -9390000.887 7  21442327.445        2856.448
 -11537439.199 8  -8484440.630 7  21911786.495       -1314.788
 93  5 11  3 22  0.0000000  0  4 16 17 20  3                         0.000411660
  -5428722.321 7  -4236704.334 6  21978632.625        2265.875
 -12870718.437 7 -10031223.369 6  21820254.749       -1537.968
    206998.323 8  -9323060.698 7  21458675.478        2870.529
 -11576837.349 8  -8515140.478 7  21904289.276       -1312.078
 93  5 11  3 22 30.0000000  0  4 16 17 20  3                         0.000419360
  -5360520.156 7  -4183559.792 6  21991611.026        2280.931
 -12916720.434 7 -10067069.036 6  21811501.432       -1528.846
    293324.988 8  -9255793.176 7  21475103.164        2884.648
 -11616155.130 8  -8545777.689 7  21896807.316       -1309.226
 93  5 11  3 23  0.0000000  0  4 16 17 20  3                         0.000426970
  -5291873.507 7  -4130068.891 6  22004674.071        2295.509
 -12962466.301 7 -10102715.147 6  21802796.299       -1520.825
    380070.534 7  -9188199.286 7  21491610.327        2898.408
 -11655390.349 8  -8576350.561 7  21889340.944       -1306.633
 93  5 11  3 23 30.0000000  0  4 16 17 20  3                         0.000434410
  -5222794.385 7  -4076241.007 6  22017819.790        2309.873
 -13007969.353 7 -10138172.060 6  21794137.265       -1512.807
    467228.098 7  -9120284.318 7  21508195.636        2912.139
 -11694546.157 8  -8606861.566 7  21881889.744       -1303.940
 93  5 11  3 24  0.0000000  0  4 16 17 20  3                         0.000441630
  -5153270.037 7  -4022066.203 6  22031049.851        2325.115
 -13053243.489 7 -10173450.590 6  21785522.026       -1505.453
    554793.771 7  -9052051.355 7  21524858.553        2925.531
 -11733623.293 8  -8637311.281 7  21874453.171       -1301.428
 93  5 11  3 24 30.0000000  0  4 16 17 20  3                         0.000448730
  -5083288.009 7  -3967534.742 6  22044366.713        2340.534
 -13098287.969 7 -10208550.129 6  21776950.502       -1497.185
    642757.317 7  -8983508.349 7  21541597.362        2938.878
 -11772628.448 8  -8667704.892 7  21867030.888       -1298.933
 93  5 11  3 25  0.0000000  0  4 16 17 20  3                         0.000455960
  -5012842.151 7  -3912641.874 6  22057772.160        2356.024
 -13143078.052 7 -10243451.470 6  21768427.442       -1488.732
    731117.378 7  -8914656.390 7  21558411.981        2951.868
 -11811559.499 8  -8698040.771 7  21859622.826       -1296.594
 93  5 11  3 25 30.0000000  0  4 16 17 20  3                         0.000463380
  -4941929.686 7  -3857385.409 6  22071266.620        2371.394
 -13187609.206 7 -10278151.074 6  21759953.176       -1480.239
    819871.063 7  -8845497.684 7  21575301.320        2964.920
 -11850415.396 8  -8728318.078 7  21852229.126       -1294.110
 93  5 11  3 26  0.0000000  0  4 16 17 20  3                         0.000470880
  -4870560.894 7  -3801773.372 6  22084847.020        2386.301
 -13231891.071 7 -10312656.387 6  21751525.833       -1471.797
    909012.716 7  -8776036.672 7  21592264.897        2977.815
 -11889198.259 8  -8758538.468 7  21844849.256       -1291.693
 93  5 11  3 26 30.0000000  0  4 16 17 20  3                         0.000478640
  -4798763.424 7  -3745827.283 6  22098509.309        2400.219
 -13275916.357 7 -10346961.755 6  21743148.052       -1463.336
    998534.318 7  -8706279.604 7  21609299.634        2990.296
 -11927912.861 8  -8788705.678 7  21837481.826       -1289.487
 93  5 11  3 27  0.0000000  0  4 16 17 20  3                         0.000486330
  -4726550.308 7  -3689557.329 7  22112250.399        2414.040
 -13319701.889 7 -10381080.339 6  21734815.491       -1455.792
   1088432.401 7  -8636229.197 7  21626407.198        3002.921
 -11966559.005 8  -8818819.542 7  21830127.576       -1287.090
 93  5 11  3 27 30.0000000  0  4 16 17 20  3                         0.000493870
  -4653929.361 7  -3632969.585 7  22126069.721        2427.245
 -13363258.034 7 -10415020.163 6  21726526.857       -1447.954
   1178707.772 7  -8565884.761 7  21643586.347        3015.358
 -12005131.764 8  -8848876.215 7  21822787.489       -1284.733
 93  5 11  3 28  0.0000000  0  4 16 17 20  3                         0.000501320
  -4580914.910 7  -3576075.220 7  22139964.541        2440.553
 -13406582.375 7 -10448779.357 6  21718282.335       -1440.194
   1269352.671 7  -8495252.395 7  21660834.678        3027.710
 -12043635.839 8  -8878879.376 7  21815459.892       -1282.372
 93  5 11  3 28 30.0000000  0  4 16 17 20  3                         0.000508660
  -4507499.998 7  -3518868.803 7  22153934.580        2453.905
 -13449677.862 7 -10482360.227 6  21710081.964       -1432.892
   1360360.133 7  -8424337.535 7  21678152.917        3039.518
 -12082074.247 8  -8908831.372 7  21808145.116       -1280.330
 93  5 11  3 29  0.0000000  0  4 16 17 20  3                         0.000515790
  -4433678.962 7  -3461345.921 7  22167982.113        2467.365
 -13492550.916 7 -10515767.787 6  21701923.290       -1425.220
   1451729.795 7  -8353140.413 7  21695540.091        3051.721
 -12120443.852 8  -8938729.759 7  21800844.039       -1277.891
 93  5 11  3 29 30.0000000  0  4 16 17 20  3                         0.000522960
  -4359453.393 7  -3403507.817 6  22182107.116        2481.080
 -13535183.342 7 -10548987.840 6  21693810.727       -1416.787
   1543463.032 7  -8281659.990 7  21712996.236        3063.936
 -12158739.363 8  -8968570.398 7  21793556.494       -1275.237
 93  5 11  3 30  0.0000000  0  4 16 17 20  3                         0.000530200
  -4284818.349 7  -3345350.678 6  22196309.874        2494.701
 -13577570.995 7 -10582017.142 6  21685745.201       -1409.058
   1635558.019 7  -8209897.679 7  21730520.955        3075.770
 -12196958.935 8  -8998351.863 7  21786283.560       -1272.899
 93  5 11  3 30 30.0000000  0  4 16 17 20  3                         0.000537400
  -4209777.044 7  -3286876.914 6  22210589.209        2507.986
 -13619723.849 7 -10614863.501 6  21677724.234       -1401.149
   1728006.480 7  -8137859.963 7  21748113.936        3087.490
 -12235107.036 8  -9028077.643 7  21779024.065       -1270.460
 93  5 11  3 31  0.0000000  0  4 16 17 20  3                         0.000544530
  -4134340.643 7  -3228095.304 6  22224944.373        2521.051
 -13661633.092 7 -10647520.022 6  21669748.646       -1392.862
   1820812.684 7  -8065543.468 7  21765774.516        3099.467
 -12273175.532 8  -9057741.397 7  21771780.081       -1267.752
 93  5 11  3 31 30.0000000  0  5 16 17 20 22  3                      0.000550190
  -4058503.115 7  -3169001.133 6  22239376.231        2534.777
 -13703295.339 7 -10679984.086 6  21661820.194       -1384.685
   1913978.086 7  -7992947.073 7  21783503.363        3111.604
  -1023461.57115   -800593.21515  24926734.614       -2545.917
 -12311159.168 8  -9087339.014 7  21764552.423       -1264.697
 93  5 11  3 32  0.0000000  0  5 16 17 20 22  3                      0.000557150
  -3982262.918 7  -3109593.207 6  22253884.526        2548.024
 -13744728.022 7 -10712269.264 7  21653935.832       -1377.532
   2007498.053 7  -7920074.396 7  21801299.702        3123.106
  -1099734.095 5   -860026.265 5  24912219.881       -2538.605
 -12349059.040 8  -9116871.390 7  21757340.217       -1262.131
 93  5 11  3 32 30.0000000  0  5 16 17 20 22  3                      0.000564100
  -3905615.305 7  -3049867.805 6  22268469.719        2561.521
 -13785937.315 7 -10744380.396 6  21646093.733       -1369.947
   2101369.744 7  -7846927.666 7  21819163.270        3134.852
  -1175761.408 5   -919268.468 4  24897752.865       -2529.958
 -12386873.634 8  -9146337.294 7  21750143.779       -1259.189
 93  5 11  3 33  0.0000000  0  5 16 17 20 22  3                      0.000571040
  -3828566.024 7  -2989829.400 6  22283131.439        2574.987
 -13826921.068 7 -10776315.767 7  21638294.593       -1362.546
   2195594.039 7  -7773506.169 7  21837092.594        3146.592
  -1251530.873 5   -978309.497 5  24883334.000       -2521.357
 -12424598.198 8  -9175733.023 7  21742965.019       -1256.165
 93  5 11  3 33 30.0000000  0  5 16 17 20 22  3                      0.000577970
  -3751111.300 7  -2929475.076 6  22297870.566        2588.417
 -13867685.987 7 -10808080.616 7  21630537.142       -1355.182
   2290166.007 7  -7699813.749 7  21855089.596        3158.076
  -1327040.339 5  -1037147.966 5  24868964.985       -2512.648
 -12462233.746 8  -9205059.432 7  21735803.396       -1253.263
 93  5 11  3 34  0.0000000  0  5 16 17 20 22  3                      0.000584900
  -3673260.082 7  -2868811.815 6  22312685.488        2601.661
 -13908226.773 7 -10839670.804 7  21622822.859       -1347.431
   2385079.445 7  -7625855.235 7  21873150.902        3169.530
  -1402281.743 5  -1095777.665 4  24854646.047       -2503.454
 -12499782.935 8  -9234318.521 7  21728658.422       -1250.237
 93  5 11  3 34 30.0000000  0  6 16 17 20 23 22  3                   0.000591870
  -3595026.464 7  -2807850.526 6  22327573.245        2613.792
 -13948534.133 7 -10871079.133 7  21615152.393       -1339.702
   2480326.385 7  -7551636.866 7  21891276.085        3180.316
    361707.26715   -194708.95411  24104277.023       -3159.869
  -1477266.049 5  -1154206.922 5  24840374.179       -2495.528
 -12537249.515 8  -9263513.259 7  21721528.630       -1247.734
 93  5 11  3 35  0.0000000  0  6 16 17 20 23 22  3                   0.000598720
  -3516435.596 7  -2746610.896 6  22342528.750        2625.897
 -13988605.361 7 -10902303.436 7  21607526.800       -1331.582
   2575894.780 7  -7477168.029 7  21909462.134        3191.080
    266944.634 5   -268549.934 3  24086243.821       -3157.374
  -1552019.689 5  -1212456.474 5  24826150.133       -2487.832
 -12574641.825 8  -9292650.122 7  21714412.625       -1245.170
 93  5 11  3 35 30.0000000  0  6 16 17 20 23 22  3                   0.000605550
  -3437472.837 7  -2685081.476 6  22357554.767        2638.327
 -14028430.358 7 -10933335.887 7  21599948.368       -1323.381
   2671785.230 7  -7402448.219 7  21927709.412        3201.716
    172260.195 5   -342329.920 4  24068228.191       -3154.834
  -1626534.198 5  -1270519.770 5  24811971.389       -2479.769
 -12611955.190 8  -9321725.450 7  21707312.040       -1242.578
 93  5 11  3 36  0.0000000  0  6 16 17 20 23 22  3                   0.000612330
  -3358134.107 7  -2623259.105 6  22372652.256        2651.068
 -14068014.252 7 -10964180.477 7  21592415.819       -1315.557
   2767993.146 7  -7327481.040 7  21946017.409        3212.282
     77655.618 5   -416047.752 5  24050224.807       -3152.168
  -1700806.653 5  -1328394.320 5  24797839.758       -2471.618
 -12649190.175 8  -9350739.711 7  21700226.696       -1239.912
 93  5 11  3 36 30.0000000  0  6 16 17 20 23 22  3                   0.000619070
  -3278408.680 7  -2561135.391 6  22387823.674        2664.104
 -14107365.158 7 -10994843.504 7  21584928.105       -1307.768
   2864517.657 7  -7252267.160 7  21964385.252        3222.831
    -16867.809 5   -489702.290 5  24032238.067       -3149.256
  -1774835.268 5  -1386078.920 5  24783753.772       -2463.281
 -12686343.747 8  -9379690.528 7  21693156.569       -1237.128
 93  5 11  3 37  0.0000000  0  6 16 17 20 23 22  3                   0.000625800
  -3198281.863 7  -2498698.918 6  22403071.375        2677.722
 -14146479.166 7 -11025321.922 7  21577484.957       -1299.913
   2961362.871 7  -7176803.397 7  21982814.993        3233.510
   -111294.927 5   -563281.810 5  24014268.648       -3145.832
  -1848600.589 5  -1443558.341 5  24769716.941       -2454.307
 -12723407.502 8  -9408571.372 7  21686103.484       -1234.052
 93  5 11  3 37 30.0000000  0  6 16 17 20 23 22  3                   0.000632530
  -3117748.153 7  -2435945.379 6  22418396.438        2691.029
 -14185362.377 7 -11055620.504 7  21570086.250       -1292.290
   3058530.100 7  -7101088.690 7  22001305.045        3244.277
   -205616.515 5   -636779.068 5  23996321.818       -3142.189
  -1922092.752 5  -1500824.993 5  24755731.403       -2445.115
 -12760376.114 8  -9437378.080 7  21679068.714       -1230.816
 93  5 11  3 38  0.0000000  0  6 16 17 20 23 22  3                   0.000639240
  -3036819.402 7  -2372884.015 6  22433796.504        2703.993
 -14224011.312 7 -11085736.541 7  21562731.610       -1284.284
   3156019.247 7  -7025123.167 6  22019856.970        3254.948
   -299826.851 5   -710189.671 5  23978393.331       -3138.698
  -1995309.407 5  -1557876.868 5  24741798.607       -2436.010
 -12797245.851 8  -9466107.741 7  21672052.379       -1227.469
 93  5 11  3 38 30.0000000  0  6 16 17 20 23 22  3                   0.000645920
  -2955513.338 7  -2309528.673 6  22449268.474        2716.218
 -14262406.981 7 -11115655.225 7  21555425.110       -1275.481
   3253827.298 7  -6948909.131 6  22038468.938        3265.546
   -393930.593 5   -783517.164 5  23960484.308       -3135.065
  -2068246.968 6  -1614711.259 5  24727918.934       -2426.595
 -12834015.957 8  -9494759.766 7  21665055.254       -1224.134
 93  5 11  3 39  0.0000000  0  6 16 17 20 23 22  3                   0.000652580
  -2873853.919 7  -2245897.939 6  22464807.899        2727.858
 -14300539.938 7 -11145369.228 7  21548168.345       -1266.613
   3351951.640 7  -6872448.644 6  22057142.031        3276.139
   -487924.215 5   -856758.938 5  23942597.001       -3131.141
  -2140899.913 6  -1671324.009 5  24714094.261       -2417.035
 -12870684.302 8  -9523332.476 7  21658077.285       -1220.577
 93  5 11  3 39 30.0000000  0  6 16 17 20 23 22  3                   0.000659210
  -2791841.484 7  -2181992.142 6  22480413.835        2739.596
 -14338405.820 7 -11174875.083 7  21540962.441       -1257.763
   3450392.249 7  -6795741.692 6  22075874.041        3286.548
   -581803.534 5   -929911.571 5  23924733.897       -3127.384
  -2213265.520 6  -1727712.684 5  24700324.250       -2407.340
 -12907246.658 8  -9551822.612 7  21651119.923       -1217.116
 93  5 11  3 40  0.0000000  0  6 16 17 20 23 22  3                   0.000665810
  -2709478.470 7  -2117813.172 6  22496086.850        2751.140
 -14376010.903 7 -11204177.735 7  21533806.038       -1249.315
   3549143.736 7  -6718792.517 6  22094665.428        3296.880
   -675566.637 5  -1002973.680 5  23906891.202       -3123.577
  -2285340.661 6  -1783875.102 5  24686608.946       -2397.699
 -12943704.629 8  -9580231.414 7  21644182.404       -1213.650
 93  5 11  3 40 30.0000000  0  6 16 17 20 23 22  3                   0.000672400
  -2626764.194 7  -2053360.501 6  22511827.043        2763.099
 -14413362.171 7 -11233282.594 7  21526698.196       -1240.957
   3648210.777 7  -6641597.467 6  22113517.489        3307.547
   -769204.177 5  -1075937.904 5  23889074.731       -3118.894
  -2357116.856 6  -1839804.600 5  24672950.099       -2387.543
 -12980049.383 8  -9608551.996 8  21637266.323       -1209.610
 93  5 11  3 41  0.0000000  0  6 16 17 20 23 22  3                   0.000678950
  -2543691.845 7  -1988628.804 6  22527635.261        2775.308
 -14450481.957 7 -11262207.100 7  21519635.286       -1233.600
   3747589.589 7  -6564159.445 6  22132428.550        3317.780
   -862704.924 5  -1148795.568 5  23871280.378       -3114.304
  -2428604.174 6  -1895508.999 5  24659345.354       -2378.148
 -13016280.260 8  -9636783.831 8  21630371.467       -1205.886
 93  5 11  3 41 30.0000000  0  6 16 17 20 23 22  3                   0.000685520
  -2460240.626 7  -1923601.893 6  22543515.399        2788.012
 -14487371.048 7 -11290951.826 7  21512615.455       -1225.649
   3847282.123 7  -6486477.005 6  22151400.046        3328.472
   -956058.461 5  -1221538.533 5  23853516.051       -3109.207
  -2499800.078 6  -1950986.270 5  24645796.468       -2368.135
 -13052391.580 8  -9664922.509 7  21623499.802       -1201.636
 93  5 11  3 42  0.0000000  0  6 16 17 20 23 22  3                   0.000692060
  -2376426.692 7  -1858292.336 6  22559464.548        2799.676
 -14524029.308 7 -11319516.691 7  21505640.395       -1218.012
   3947285.045 7  -6408552.689 6  22170429.421        3338.440
  -1049273.704 5  -1294173.731 5  23835776.639       -3105.102
  -2570706.868 6  -2006238.291 5  24632302.783       -2358.899
 -13088382.403 8  -9692967.300 7  21616650.763       -1197.915
 93  5 11  3 42 30.0000000  0  6 16 17 20 23 22  3                   0.000698580
  -2292255.944 7  -1792704.774 6  22575481.571        2811.692
 -14560444.667 7 -11347892.284 7  21498710.262       -1209.673
   4047590.128 7  -6330392.915 6  22189516.829        3348.471
  -1142358.650 5  -1366707.396 5  23818062.684       -3100.649
  -2641329.965 5  -2061269.274 5  24618862.589       -2349.331
 -13124256.456 8  -9720921.104 7  21609824.070       -1194.003
 93  5 11  3 43  0.0000000  0  6 16 17 20 23 22  3                   0.000705070
  -2207725.800 7  -1726837.117 6  22591566.936        2823.561
 -14596603.125 7 -11376067.685 7  21491828.917       -1200.856
   4148194.924 7  -6251999.588 6  22208661.124        3358.546
  -1235309.422 6  -1439136.526 5  23800374.245       -3096.089
  -2711663.737 6  -2116074.725 5  24605478.663       -2339.466
 -13160012.064 8  -9748782.608 8  21603020.790       -1189.877
 93  5 11  3 43 30.0000000  0  6 16 17 20 23 22  3                   0.000711530
  -2122850.227 7  -1660700.295 6  22607718.141        2834.592
 -14632499.965 7 -11404039.247 7  21484998.666       -1192.489
   4249097.003 7  -6173374.637 6  22227862.302        3368.177
  -1328127.941 6  -1511462.615 5  23782711.131       -3091.919
  -2781697.616 5  -2170646.546 5  24592151.198       -2329.478
 -13195647.341 8  -9776550.344 8  21596239.693       -1186.096
 93  5 11  3 44  0.0000000  0  6 16 17 20 23 22  3                   0.000717970
  -2037641.183 7  -1594303.650 6  22623933.445        2846.141
 -14668151.964 7 -11431819.991 7  21478214.812       -1184.223
   4350288.357 7  -6094524.233 6  22247118.283        3377.963
  -1420814.648 6  -1583685.947 5  23765075.827       -3087.097
  -2851432.160 5  -2224985.179 5  24578881.924       -2319.300
 -13231166.015 8  -9804227.219 8  21589480.126       -1181.997
 93  5 11  3 44 30.0000000  0  6 16 17 20 23 22  3                   0.000724390
  -1952085.380 7  -1527636.817 6  22640214.616        2857.745
 -14703563.565 7 -11459413.440 7  21471476.266       -1176.359
   4451768.654 7  -6015448.737 6  22266429.722        3387.576
  -1513357.021 6  -1655796.853 5  23747466.013       -3082.203
  -2920855.249 5  -2279081.027 5  24565670.513       -2308.734
 -13266564.163 8  -9831810.183 8  21582743.697       -1177.892
 93  5 11  3 45  0.0000000  0  6 16 17 20 23 22  3                   0.000730800
  -1866178.383 7  -1460696.306 6  22656561.808        2869.387
 -14738742.857 7 -11486825.870 7  21464781.821       -1168.970
   4553538.928 7  -5936147.253 6  22285795.283        3397.119
  -1605753.617 6  -1727794.162 5  23729882.255       -3077.528
  -2989960.370 5  -2332929.121 5  24552520.098       -2298.203
 -13301836.539 8  -9859295.136 8  21576031.293       -1173.843
 93  5 11  3 45 30.0000000  0  6 16 17 20 23 22  3                   0.000737210
  -1779908.797 7  -1393473.246 6  22672978.074        2881.865
 -14773700.340 8 -11514065.462 7  21458129.395       -1161.608
   4655597.032 7  -5856621.495 6  22305216.500        3406.674
  -1698005.779 6  -1799678.937 5  23712327.339       -3072.633
  -3058741.689 5  -2386524.997 5  24539432.425       -2287.265
 -13336980.950 8  -9886680.385 8  21569343.913       -1169.511
 93  5 11  3 46  0.0000000  0  6 16 17 20 23 22  3                   0.000743630
  -1693261.786 7  -1325956.096 6  22689466.458        2894.404
 -14808427.196 7 -11541125.332 7  21451520.680       -1153.555
   4757939.758 7  -5776873.956 6  22324691.450        3416.064
  -1790110.180 6  -1871448.531 5  23694801.733       -3067.915
  -3127192.767 5  -2439863.405 5  24526408.093       -2276.213
 -13371996.280 8  -9913965.047 8  21562681.036       -1165.172
 93  5 11  3 46 30.0000000  0  6 16 17 20 23 22  3                   0.000750050
  -1606244.991 7  -1258150.816 6  22706025.915        2906.647
 -14842907.603 7 -11567993.165 7  21444958.956       -1145.082
   4860562.765 7  -5696908.020 6  22344220.635        3425.466
  -1882075.346 6  -1943109.646 5  23677300.958       -3063.091
  -3195307.234 5  -2492939.553 5  24513446.747       -2264.853
 -13406882.349 8  -9941148.994 8  21556042.891       -1160.726
 93  5 11  3 47  0.0000000  0  6 16 17 20 23 22  3                   0.000756450
  -1518871.702 7  -1190067.753 6  22722652.984        2918.385
 -14877147.502 7 -11594673.592 7  21438443.582       -1137.291
   4963459.252 7  -5616728.964 6  22363801.702        3434.446
  -1973898.372 6  -2014659.992 5  23659826.571       -3058.169
  -3263095.178 5  -2545761.305 5  24500547.009       -2254.097
 -13441641.455 8  -9968233.986 8  21549428.261       -1156.540
 93  5 11  3 47 30.0000000  0  6 16 17 20 23 22  3                   0.000762850
  -1431141.926 6  -1121706.883 6  22739347.116        2930.016
 -14911128.784 7 -11621152.522 7  21431977.181       -1128.128
   5066635.446 7  -5536331.975 6  22383435.193        3443.772
  -2065560.174 6  -2086084.729 5  23642384.038       -3052.751
  -3330547.732 5  -2598321.773 5  24487711.573       -2242.862
 -13476263.435 8  -9995212.151 8  21542840.121       -1151.904
 93  5 11  3 48  0.0000000  0  6 16 17 20 23 22  3                   0.000769210
  -1343085.562 6  -1053091.543 6  22756102.611        2940.434
 -14944833.407 7 -11647415.837 7  21425563.081       -1118.851
   5170083.770 7  -5455722.931 6  22403120.712        3452.768
  -2157064.292 6  -2157386.595 5  23624971.535       -3047.583
  -3397674.030 5  -2650627.917 5  24474936.183       -2232.197
 -13510751.206 8 -10022085.726 8  21536277.436       -1147.506
 93  5 11  3 48 30.0000000  0  6 16 17 20 23 22  3                   0.000775530
  -1254713.864 7   -984230.494 6  22772919.544        2951.107
 -14978260.490 7 -11673462.891 7  21419202.215       -1109.716
   5273804.644 7  -5374901.490 6  22422857.296        3461.987
  -2248408.979 5  -2228564.189 5  23607588.714       -3042.026
  -3464480.336 5  -2702684.765 5  24462223.456       -2221.596
 -13545099.973 8 -10048850.986 8  21529741.010       -1142.680
 93  5 11  3 49  0.0000000  0  6 16 17 20 23 22  3                   0.000781810
  -1166025.002 7   -915122.328 6  22789796.962        2961.535
 -15011421.280 7 -11699302.463 7  21412892.224       -1100.915
   5377792.969 7  -5293871.677 6  22442645.491        3470.693
  -2339585.328 5  -2299610.642 5  23590237.153       -3036.390
  -3530977.598 5  -2754500.840 5  24449569.309       -2211.401
 -13579310.034 8 -10075508.169 8  21523230.737       -1138.113
 93  5 11  3 49 30.0000000  0  6 16 17 20 23 22  3                   0.000788070
  -1077024.957 6   -845771.625 6  22806732.500        2971.697
 -15044310.459 8 -11724930.395 7  21406633.316       -1092.030
   5482048.573 6  -5212633.557 6  22462485.014        3479.555
  -2430590.373 6  -2370523.595 5  23572920.708       -3030.670
  -3597152.067 5  -2806065.281 5  24436976.854       -2200.318
 -13613377.568 8 -10102054.300 7  21516747.795       -1133.351
 93  5 11  3 50  0.0000000  0  6 16 17 20 23 22  3                   0.000794290
   -987715.853 7   -776180.123 6  22823727.483        2982.406
 -15076951.929 8 -11750365.293 7  21400421.855       -1084.247
   5586566.026 7  -5131191.438 6  22482374.506        3488.252
  -2521428.302 6  -2441306.327 5  23555633.688       -3025.099
  -3662992.770 5  -2857369.707 5  24424448.199       -2188.985
 -13647303.779 8 -10128490.284 8  21510292.066       -1128.566
 93  5 11  3 50 30.0000000  0  6 16 17 20 23 22  3                   0.000800510
   -898077.419 7   -706331.970 6  22840785.952        2993.369
 -15109371.604 8 -11775627.370 7  21394252.714       -1077.209
   5691342.592 7  -5049547.395 6  22502313.234        3496.727
  -2612093.866 6  -2511954.762 5  23538380.721       -3019.206
  -3728489.022 6  -2908405.713 5  24411984.868       -2177.459
 -13681086.286 8 -10154814.322 8  21503863.236       -1123.893
 93  5 11  3 51  0.0000000  0  6 16 17 20 23 22  3                   0.000806750
   -808109.628 7   -636227.225 6  22857906.432        3004.303
 -15141575.863 7 -11800721.590 7  21388123.832       -1069.834
   5796373.180 7  -4967705.400 6  22522299.636        3505.211
  -2702580.779 5  -2582463.990 5  23521160.871       -3013.345
  -3793625.317 6  -2959161.271 5  24399590.508       -2165.057
 -13714725.946 8 -10181027.026 8  21497461.817       -1119.070
 93  5 11  3 51 30.0000000  0  6 16 17 20 23 22  3                   0.000813000
   -717816.996 7   -565869.352 6  22875088.346        3015.251
 -15173558.876 8 -11825643.410 7  21382038.015       -1062.281
   5901658.071 6  -4885665.287 6  22542335.229        3513.759
  -2792890.081 6  -2652834.809 5  23503976.025       -3007.317
  -3858387.115 6  -3009624.960 5  24387267.388       -2152.364
 -13748218.125 8 -10207124.818 8  21491088.469       -1113.991
 93  5 11  3 52  0.0000000  0  6 16 17 20 23 22  3                   0.000819260
   -627191.175 6   -495251.818 6  22892334.058        3026.455
 -15205304.668 8 -11850380.381 7  21375997.303       -1054.057
   6007197.573 6  -4803426.727 6  22562418.142        3522.274
  -2883025.248 6  -2723069.960 5  23486825.381       -3001.486
  -3922776.507 6  -3059798.457 5  24375014.570       -2140.164
 -13781558.039 8 -10233103.961 8  21484744.241       -1108.843
 93  5 11  3 52 30.0000000  0  6 16 17 20 23 22  3                   0.000825510
   -536239.905 6   -424380.692 6  22909641.144        3036.813
 -15236798.844 8 -11874921.286 7  21370004.221       -1045.522
   6112990.217 6  -4720990.942 6  22582549.998        3530.490
  -2972978.533 6  -2793163.366 5  23469708.842       -2995.413
  -3986798.521 6  -3109685.786 5  24362831.246       -2128.159
 -13814742.530 8 -10258961.998 8  21478429.504       -1103.790
 93  5 11  3 53  0.0000000  0  6 16 17 20 23 22  3                   0.000831740
   -444981.105 7   -353269.933 6  22927007.135        3047.143
 -15268029.976 8 -11899257.221 8  21364061.128       -1036.668
   6219029.687 6  -4638362.844 6  22602728.035        3538.894
  -3062753.140 6  -2863117.562 5  23452624.465       -2989.604
  -4050463.542 6  -3159294.864 5  24350716.690       -2116.220
 -13847773.451 8 -10284700.387 8  21472143.775       -1098.419
 93  5 11  3 53 30.0000000  0  6 16 17 20 23 22  3                   0.000837940
   -353417.852 7   -281921.997 6  22944431.119        3057.284
 -15299010.544 8 -11923397.913 8  21358165.858       -1028.578
   6325310.731 7  -4555546.484 6  22622953.400        3546.646
  -3152360.357 6  -2932941.329 5  23435572.750       -2984.065
  -4113783.581 5  -3208635.098 5  24338666.843       -2105.065
 -13880651.202 8 -10310319.394 8  21465887.346       -1093.487
 93  5 11  3 54  0.0000000  0  6 16 17 20 23 22  3                   0.000844110
   -261537.887 7   -210327.206 6  22961915.606        3068.022
 -15329745.719 7 -11947347.397 8  21352317.050       -1020.672
   6431832.555 6  -4472542.493 6  22643223.211        3554.740
  -3241789.268 6  -3002626.169 5  23418555.843       -2977.777
  -4176760.326 5  -3257707.882 5  24326681.317       -2093.391
 -13913372.629 8 -10335816.605 8  21459660.725       -1088.174
 93  5 11  3 54 30.0000000  0  6 16 17 20 23 22  3                   0.000850290
   -169335.293 6   -138481.025 6  22979461.578        3078.724
 -15360253.905 8 -11971120.000 8  21346511.238       -1013.163
   6538595.974 6  -4389350.250 6  22663539.989        3562.703
  -3331021.050 6  -3072157.369 5  23401575.316       -2971.258
  -4239385.010 6  -3306506.295 5  24314764.662       -2081.659
 -13945932.045 8 -10361187.565 8  21453464.785       -1082.772
 93  5 11  3 55  0.0000000  0  6 16 17 20 23 22  3                   0.000856460
    -76816.365 6    -66388.354 6  22997067.302        3089.225
 -15390537.609 8 -11994717.669 8  21340748.984       -1005.744
   6645594.647 6  -4305974.704 6  22683900.694        3570.561
  -3420063.624 6  -3141541.143 5  23384632.007       -2964.890
  -4301660.374 6  -3355032.514 5  24302912.892       -2069.899
 -13978331.258 8 -10386433.689 8  21447299.093       -1077.396
 93  5 11  3 55 30.0000000  0  6 16 17 20 23 22  3                   0.000862630
     16016.039 6      5948.557 6  23014732.173        3099.525
 -15420593.030 8 -12018137.483 8  21335029.509        -997.767
   6752826.539 6  -4222417.405 6  22704306.125        3578.278
  -3508903.242 6  -3210766.779 5  23367726.271       -2957.735
  -4363574.145 6  -3403276.976 5  24291131.086       -2057.635
 -14010567.534 8 -10411552.863 8  21441165.289       -1071.923
 93  5 11  3 56  0.0000000  0  6 16 17 20 23 22  3                   0.000868780
    109146.568 6     78517.799 6  23032454.494        3109.172
 -15450399.596 8 -12041363.348 8  21329358.120        -989.111
   6860287.856 6  -4138681.374 6  22724756.089        3585.978
  -3597529.463 6  -3279826.139 5  23350860.524       -2950.714
  -4425126.754 6  -3451239.991 5  24279419.319       -2045.569
 -14042640.116 8 -10436544.467 8  21435062.096       -1066.321
 93  5 11  3 56 30.0000000  0  6 16 17 20 23 22  3                   0.000874920
    202560.644 6    151308.011 6  23050230.686        3118.440
 -15479934.923 8 -12064377.896 8  21323737.495        -979.662
   6967981.865 6  -4054764.010 6  22745249.831        3593.735
  -3685954.778 6  -3348728.928 5  23334033.320       -2944.270
  -4486305.741 6  -3498911.884 5  24267777.943       -2032.997
 -14074541.359 8 -10461402.571 8  21428991.627       -1060.510
 93  5 11  3 57  0.0000000  0  6 16 17 20 23 22  3                   0.000880870
    296249.917 6    224312.623 6  23068059.264        3127.464
 -15509178.662 8 -12087165.230 8  21318172.464        -970.150
   7075909.958 6  -3970664.242 6  22765787.603        3601.408
  -3774184.316 6  -3417479.168 5  23317244.435       -2937.579
  -4547109.051 6  -3546291.038 5  24256207.459       -2020.536
 -14106265.299 8 -10486122.519 8  21422954.497       -1054.692
 93  5 11  3 57 30.0000000  0  7 16 17 20 23 22 26  3                0.000886920
    390213.532 6    297531.016 5  23085939.760        3136.717
 -15538143.748 8 -12109735.394 8  21312660.454        -961.018
   7184064.959 6  -3886387.641 6  22786368.595        3608.882
  -3862213.911 6  -3486073.588 5  23300493.246       -2931.086
  -4607537.645 6  -3593378.266 5  24244707.519       -2008.199
    -65077.41315    -66053.09814  23732530.362       -1815.657
 -14137814.442 8 -10510706.248 8  21416950.775       -1048.825
 93  5 11  3 58  0.0000000  0  7 16 17 20 23 22 26  3                0.000892950
    484455.736 6    370966.473 5  23103873.421        3146.074
 -15566842.898 8 -12132098.373 8  21307198.834        -952.361
   7292441.444 6  -3801938.486 6  22806992.058        3616.193
  -3950050.637 6  -3554517.766 5  23283777.856       -2924.674
  -4667602.635 5  -3640182.127 5  24233277.850       -1996.048
   -119404.419 5   -108385.775 5  23722192.006       -1806.253
 -14169189.334 8 -10535154.216 8  21410980.386       -1043.096
 93  5 11  3 58 30.0000000  0  7 16 17 20 23 22 26  3                0.000898970
    578989.617 6    444629.240 6  23121862.473        3156.196
 -15595284.758 8 -12154260.849 8  21301786.339        -943.814
   7401039.835 6  -3717316.404 6  22827657.620        3623.785
  -4037681.745 6  -3622801.715 5  23267101.949       -2917.090
  -4727280.848 6  -3686684.575 5  24221920.228       -1982.431
   -173439.220 6   -150490.836 5  23711909.558       -1796.427
 -14200385.141 8 -10559462.624 8  21405043.976       -1036.819
 93  5 11  3 59  0.0000000  0  7 16 17 20 23 22 26  3                0.000905020
    673838.433 6    518537.421 6  23139911.994        3167.114
 -15623470.398 8 -12176223.678 8  21296422.734        -935.359
   7509873.211 6  -3632511.197 6  22848367.604        3631.734
  -4125061.155 6  -3690889.500 5  23250473.851       -2908.168
  -4786548.611 6  -3732867.221 5  24210641.252       -1968.541
   -227186.993 5   -192372.113 5  23701681.538       -1786.717
 -14231383.601 8 -10583617.250 8  21399144.720       -1030.018
 93  5 11  3 59 30.0000000  0  7 16 17 20 23 22 26  3                0.000911090
    769019.968 6    592704.833 6  23158023.917        3178.215
 -15651402.372 8 -12197988.848 8  21291107.872        -926.603
   7618944.350 6  -3547520.723 6  22869123.863        3639.631
  -4212178.333 6  -3758772.973 5  23233894.830       -2899.633
  -4845391.525 5  -3778718.830 5  24199443.889       -1954.349
   -280639.642 5   -234023.478 5  23691509.054       -1776.738
 -14262177.899 8 -10607612.793 8  21393284.998       -1023.161
 93  5 11  4  0  0.0000000  0  6 17 20 23 22 26  3                   0.000917150
 -15679066.211 8 -12219545.046 8  21285843.668        -917.782
   7728246.512 6  -3462350.231 6  22889923.106        3647.059
  -4299037.976 6  -3826455.760 5  23217366.460       -2891.183
  -4903803.925 6  -3824234.961 5  24188328.884       -1939.791
   -333794.997 6   -275443.198 5  23681394.259       -1767.118
 -14292769.952 8 -10631450.757 8  21387463.756       -1016.644
 93  5 11  4  0 30.0000000  0  7 16 17 20 23 22 26  3                0.000923300
   -834550.33116     50844.20711  23194423.841        3197.813
 -15706471.021 8 -12240899.455 8  21280628.796        -909.290
   7837764.808 6  -3377011.344 6  22910764.079        3654.076
  -4385652.499 6  -3893947.538 5  23200885.412       -2883.249
  -4961777.701 5  -3869409.309 5  24177295.348       -1925.390
   -386675.034 6   -316648.421 5  23671331.650       -1758.425
 -14323169.688 8 -10655138.849 8  21381678.702       -1010.311
 93  5 11  4  1  0.0000000  0  7 16 17 20 23 22 26  3                0.000929410
   -738486.974 6    125704.034 3  23212706.230        3206.458
 -15733630.814 8 -12262062.905 8  21275460.322        -901.208
   7947477.687 6  -3291520.798 6  22931642.285        3660.110
  -4472050.927 6  -3961270.930 5  23184443.513       -2876.766
  -5019347.646 6  -3914269.002 5  24166339.193       -1912.678
   -439308.569 6   -357661.486 5  23661316.134       -1750.246
 -14353393.846 8 -10678690.122 8  21375927.124       -1004.847
 93  5 11  4  1 30.0000000  0  7 16 17 20 23 22 26  3                0.000935490
   -642174.725 6    200752.558 5  23231033.990        3214.181
 -15760542.030 8 -12283032.668 8  21270338.989        -892.934
   8057366.649 6  -3205893.076 6  22952553.098        3665.594
  -4558262.783 6  -4028448.960 5  23168039.161       -2870.844
  -5076535.724 6  -3958831.116 5  24155456.728       -1900.196
   -491695.338 6   -398482.308 5  23651347.347       -1742.408
 -14383456.535 8 -10702115.574 8  21370206.584        -999.713
 93  5 11  4  2  0.0000000  0  7 16 17 20 23 22 26  3                0.000941530
   -545635.551 6    275977.902 5  23249405.573        3221.583
 -15787213.388 8 -12303815.534 8  21265263.524        -885.435
   8167418.947 6  -3120138.087 6  22973495.301        3670.989
  -4644297.713 6  -4095489.119 5  23151666.323       -2865.007
  -5133354.910 6  -4003105.740 5  24144645.182       -1888.066
   -543846.819 6   -439119.783 5  23641422.944       -1734.643
 -14413365.555 8 -10725421.290 8  21364515.254        -994.627
 93  5 11  4  2 30.0000000  0  7 16 17 20 23 22 26  3                0.000947520
   -448873.257 6    351377.090 5  23267818.683        3229.435
 -15813656.795 8 -12324420.778 8  21260231.517        -877.378
   8277631.199 6  -3034258.464 6  22994468.420        3676.533
  -4730158.356 6  -4162393.470 5  23135327.385       -2858.911
  -5189821.615 6  -4047105.764 5  24133901.628       -1876.461
   -595766.153 6   -479576.387 5  23631543.961       -1726.468
 -14443119.985 8 -10748606.553 8  21358853.004        -989.158
 93  5 11  4  3  0.0000000  0  7 16 17 20 23 22 26  3                0.000953460
   -351860.075 6    426971.746 5  23286279.621        3237.989
 -15839856.081 8 -12344835.805 8  21255245.980        -869.166
   8388015.574 6  -2948244.706 6  23015474.012        3682.446
  -4815829.478 6  -4229150.117 5  23119024.222       -2852.464
  -5245937.629 6  -4090832.470 5  24123223.585       -1864.436
   -647418.791 6   -519825.152 5  23621714.727       -1716.871
 -14472702.746 8 -10771658.040 8  21353223.380        -983.159
 93  5 11  4  3 30.0000000  0  7 16 17 20 23 22 26  3                0.000959360
   -254595.454 6    502762.383 5  23304788.972        3246.179
 -15865815.126 7 -12365063.603 8  21250305.820        -861.702
   8498576.875 6  -2862093.068 6  23036512.457        3688.181
  -4901298.714 6  -4295749.492 5  23102759.854       -2845.577
  -5301688.562 5  -4134274.762 5  24112613.506       -1852.348
   -698781.495 5   -559847.969 5  23611940.526       -1707.384
 -14502103.934 8 -10794568.030 8  21347628.493        -977.210
 93  5 11  4  4  0.0000000  0  7 16 17 20 23 22 26  3                0.000965220
   -157092.685 6    578738.572 5  23323343.008        3253.850
 -15891568.587 7 -12385131.224 8  21245404.762        -855.184
   8609303.745 6  -2775812.435 5  23057582.219        3693.445
  -4986561.971 6  -4362188.392 5  23086534.128       -2838.745
  -5357084.640 6  -4177440.512 5  24102070.651       -1840.736
   -749859.198 5   -599648.731 5  23602220.819       -1698.085
 -14531330.673 8 -10817342.097 8  21342066.985        -971.581
 93  5 11  4  4 30.0000000  0  7 16 17 20 23 22 26  3                0.000971050
    -59361.268 6    654892.919 5  23341940.390        3261.541
 -15917125.931 8 -12405046.020 8  21240541.298        -848.783
   8720179.084 6  -2689416.099 5  23078682.222        3698.110
  -5071624.186 6  -4428470.536 5  23070347.283       -2832.079
  -5412129.952 6  -4220332.986 5  24091597.213       -1829.003
   -800669.713 6   -639241.315 5  23592550.570       -1689.254
 -14560395.053 8 -10839989.658 8  21336536.213        -966.348
 93  5 11  4  5  0.0000000  0  7 16 17 20 23 22 26  3                0.000976860
     38601.071 6    731227.186 5  23360582.068        3269.081
 -15942503.196 8 -12424820.493 8  21235712.365        -843.089
   8831190.471 6  -2602913.737 5  23099807.153        3702.577
  -5156483.865 6  -4494594.875 5  23054198.615       -2825.153
  -5466825.286 6  -4262952.691 5  24081189.949       -1817.268
   -851214.968 6   -678627.212 5  23582933.504       -1680.598
 -14589304.865 8 -10862516.775 8  21331034.930        -961.204
 93  5 11  4  5 30.0000000  0  7 16 17 20 23 22 26  3                0.000982630
    136791.356 6    807739.088 5  23379266.522        3277.096
 -15967702.299 8 -12444456.157 8  21230916.812        -836.792
   8942336.886 6  -2516306.164 5  23120957.790        3707.278
  -5241121.169 6  -4560545.989 5  23038092.979       -2817.260
  -5521156.385 6  -4305288.639 5  24070851.417       -1804.714
   -901509.569 6   -717817.790 5  23573362.511       -1672.379
 -14618055.925 8 -10884920.175 8  21325563.391        -955.664
 93  5 11  4  6  0.0000000  0  7 16 17 20 23 22 26  3                0.000988390
    235231.774 6    884445.914 5  23397999.022        3285.644
 -15992702.700 8 -12463936.972 8  21226159.773        -829.646
   9053628.270 6  -2429585.676 5  23142136.182        3712.234
  -5325518.837 6  -4626310.378 5  23022032.680       -2809.245
  -5575103.226 6  -4347325.138 5  24060586.292       -1791.437
   -951551.480 6   -756811.480 5  23563839.686       -1663.832
 -14646633.926 8 -10907188.715 8  21320125.164        -949.744
 93  5 11  4  6 30.0000000  0  7 16 17 20 23 22 26  3                0.000994130
    333928.782 6    961352.673 5  23416780.029        3294.187
 -16017477.702 8 -12483242.167 8  21221445.469        -822.060
   9165070.245 6  -2342747.817 5  23163342.481        3717.314
  -5409677.167 6  -4691888.223 5  23006017.704       -2801.194
  -5628638.518 6  -4389040.908 5  24050397.593       -1777.532
  -1001339.275 5   -795607.098 5  23554364.564       -1654.992
 -14675028.205 8 -10929314.126 8  21314721.894        -943.353
 93  5 11  4  7  0.0000000  0  7 16 17 20 23 22 26  3                0.000999850
    432854.070 6   1038437.290 5  23435605.279        3300.699
 -16042042.946 8 -12502383.900 8  21216770.974        -815.557
   9276652.443 6  -2255800.698 5  23184575.761        3721.455
  -5493606.346 6  -4757287.542 5  22990047.252       -2794.095
  -5681770.832 6  -4430442.734 5  24040286.449       -1764.406
  -1050873.315 5   -834204.957 5  23544938.202       -1647.231
 -14703244.279 8 -10951300.653 8  21309353.111        -937.932
 93  5 11  4  7 30.0010000  0  7 16 17 20 23 22 26  3                0.001005550
    531976.192 6   1115675.278 5  23454467.487        3307.195
 -16066405.049 8 -12521367.339 8  21212135.104        -808.601
   9388362.239 6  -2168754.129 5  23205833.255        3725.595
  -5577329.481 6  -4822526.306 6  22974114.985       -2787.485
  -5734499.365 6  -4471529.893 5  24030251.528       -1750.701
  -1100165.732 6   -872614.643 5  23535558.573       -1638.781
 -14731295.010 8 -10973158.354 8  21304015.197        -932.279
 93  5 11  4  8  0.0010000  0  7 16 17 20 23 22 26  3                0.001011210
    631272.212 6   1193048.831 5  23473362.571        3312.698
 -16090566.985 8 -12540194.805 8  21207537.167        -801.901
   9500181.590 6  -2081622.203 5  23227111.293        3729.255
  -5660872.100 6  -4887624.403 6  22958218.069       -2781.730
  -5786827.942 6  -4512305.355 5  24020293.214       -1737.634
  -1149201.712 6   -910824.493 5  23526228.001       -1630.036
 -14759184.303 8 -10994890.255 8  21298707.961        -926.953
 93  5 11  4  8 30.0010000  0  7 16 17 20 23 22 26  3                0.001016840
    730734.327 6   1270551.810 5  23492288.504        3318.216
 -16114527.431 8 -12558865.274 8  21202977.413        -795.404
   9612111.902 6  -1994403.799 5  23248411.463        3732.847
  -5744236.104 6  -4952583.301 6  22942353.642       -2775.769
  -5838765.116 6  -4552775.878 5  24010410.498       -1724.975
  -1197968.698 6   -948824.719 5  23516947.725       -1620.979
 -14786910.731 8 -11016495.248 8  21293431.505        -921.580
 93  5 11  4  9  0.0010000  0  7 16 17 20 23 22 26  3                0.001022430
    830366.056 6   1348186.908 5  23511248.698        3323.986
 -16138280.657 8 -12577374.266 8  21198457.534        -788.092
   9724155.339 6  -1907097.255 5  23269732.726        3736.644
  -5827416.868 6  -5017399.452 6  22926525.145       -2769.643
  -5890321.300 6  -4592949.536 5  24000600.167       -1712.207
  -1246454.305 6   -986605.660 5  23507721.083       -1611.460
 -14814467.116 8 -11037967.732 8  21288187.644        -915.771
 93  5 11  4  9 30.0010000  0  7 16 17 20 23 22 26  3                0.001027960
    930185.632 6   1425968.363 5  23530244.368        3330.478
 -16161807.705 8 -12595707.027 8  21193980.522        -780.600
   9836313.757 6  -1819701.109 5  23291075.424        3740.357
  -5910408.120 6  -5082067.901 6  22910731.730       -2763.251
  -5941493.991 6  -4632824.307 5  23990861.551       -1699.551
  -1294650.300 6  -1024161.003 5  23498548.814       -1601.869
 -14841846.708 8 -11059302.470 8  21282977.411        -909.896
 93  5 11  4 10  0.0010000  0  7 16 17 20 23 22 26  3                0.001033450
   1030204.815 6   1503905.386 5  23549278.281        3337.528
 -16185108.379 8 -12613863.381 8  21189546.352        -772.651
   9948586.178 6  -1732216.156 5  23312439.962        3744.484
  -5993191.120 6  -5146574.071 6  22894979.287       -2755.346
  -5992291.747 6  -4672406.999 5  23981195.331       -1686.865
  -1342555.894 6  -1061489.940 5  23489433.345       -1591.939
 -14869045.364 8 -11080496.205 8  21277801.734        -903.508
 93  5 11  4 10 30.0010000  0  7 16 17 20 23 22 26  3                0.001038900
   1130429.504 6   1582002.530 5  23568351.020        3344.314
 -16208174.250 8 -12631836.783 8  21185157.399        -764.748
  10060975.737 6  -1644639.920 5  23333827.538        3748.372
  -6075733.743 6  -5210892.952 6  22879271.958       -2747.224
  -6042703.839 6  -4711689.149 5  23971602.214       -1673.747
  -1390164.450 6  -1098587.452 5  23480374.106       -1581.845
 -14896055.440 8 -11101542.999 8  21272661.953        -897.138
 93  5 11  4 11  0.0010000  0  7 16 17 20 23 22 26  3                0.001044310
   1230854.560 6   1660255.834 5  23587460.781        3350.793
 -16231000.612 8 -12649623.541 8  21180813.618        -757.090
  10173480.939 6  -1556973.576 5  23355236.595        3752.044
  -6158024.786 6  -5275015.802 6  22863612.783       -2738.700
  -6092719.760 6  -4750662.575 5  23962085.473       -1660.428
  -1437471.340 6  -1135449.966 5  23471371.619       -1571.800
 -14922873.864 8 -11122440.465 8  21267558.856        -890.892
 93  5 11  4 11 30.0010000  0  7 16 17 20 23 22 26  3                0.001049690
   1331479.988 6   1738665.258 5  23606609.562        3357.578
 -16253599.554 8 -12667233.091 8  21176513.426        -749.661
  10286100.215 6  -1469218.350 5  23376666.973        3755.926
  -6240046.278 6  -5338928.618 6  22848004.377       -2729.311
  -6142324.338 6  -4789315.494 5  23952645.909       -1646.428
  -1484471.278 6  -1172073.280 5  23462427.430       -1561.588
 -14949497.370 8 -11143186.039 8  21262492.533        -884.227
 93  5 11  4 12  0.0010000  0  7 16 17 20 23 22 26  3                0.001055060
   1432302.876 6   1817228.506 5  23625795.426        3363.862
 -16275980.279 8 -12684672.612 9  21172254.052        -742.324
  10398835.239 6  -1381372.927 5  23398120.925        3759.728
  -6321784.833 6  -5402620.936 6  22832449.605       -2720.078
  -6191506.425 6  -4827639.182 5  23943285.872       -1632.372
  -1531164.768 6  -1208457.784 5  23453542.321       -1551.258
 -14975919.037 8 -11163774.327 8  21257464.224        -877.459
 93  5 11  4 12 30.0010000  0  7 16 17 20 23 22 26  3                0.001060420
   1533310.384 6   1895935.650 5  23645015.427        3369.857
 -16298134.291 8 -12701935.462 9  21168038.272        -734.818
  10511687.005 6  -1293436.516 5  23419596.697        3763.549
  -6403254.351 6  -5466103.635 6  22816946.636       -2711.420
  -6240255.741 6  -4865625.653 5  23934009.572       -1617.873
  -1577541.443 6  -1244595.398 5  23444716.902       -1540.686
 -15002133.010 8 -11184200.786 8  21252476.056        -870.528
 93  5 11  4 13  0.0010000  0  7 16 17 20 23 22 26  3                0.001065750
   1634502.683 6   1974786.835 5  23664270.726        3376.213
 -16320067.533 8 -12719026.275 9  21163864.582        -727.540
  10624653.670 6  -1205410.584 5  23441093.765        3767.403
  -6484462.046 6  -5529382.319 6  22801493.415       -2702.696
  -6288570.725 6  -4903273.684 5  23924815.116       -1603.275
  -1623599.924 5  -1280485.126 5  23435951.651       -1530.083
 -15028136.607 8 -11204463.325 8  21247527.771        -863.412
 93  5 11  4 13 30.0010000  0  7 16 17 20 23 22 26  3                0.001071060
   1735884.083 6   2053785.312 5  23683562.990        3382.527
 -16341786.447 8 -12735950.100 9  21159731.271        -720.289
  10737729.469 6  -1117299.625 5  23462610.624        3771.005
  -6565416.606 6  -5592463.755 6  22786088.757       -2694.214
  -6336456.318 6  -4940587.126 5  23915703.043       -1589.034
  -1669345.441 6  -1316130.937 5  23427246.197       -1519.517
 -15053930.548 8 -11224562.479 8  21242619.631        -856.353
 93  5 11  4 14  0.0010000  0  7 16 17 20 23 22 26  3                0.001076350
   1837459.799 6   2132935.216 5  23702892.291        3389.201
 -16363278.658 8 -12752697.275 9  21155641.635        -712.390
  10850913.700 6  -1029104.171 5  23484148.714        3774.671
  -6646123.810 6  -5655352.424 6  22770730.909       -2686.287
  -6383916.728 6  -4977569.257 5  23906672.407       -1574.918
  -1714762.103 6  -1351520.455 5  23418604.197       -1507.991
 -15079510.552 8 -11244494.948 8  21237751.701        -849.101
 93  5 11  4 14 30.0010000  0  7 16 17 20 23 22 26  3                0.001081630
   1939234.771 6   2212240.375 5  23722260.160        3396.104
 -16384536.746 8 -12769262.000 9  21151597.023        -704.752
  10964206.191 6   -940824.301 5  23505707.961        3778.204
  -6726592.665 6  -5718055.388 6  22755417.912       -2678.110
  -6430947.822 6  -5014216.827 5  23897722.944       -1560.406
  -1759834.371 6  -1386641.669 5  23410027.148       -1496.733
 -15104872.189 8 -11264257.228 8  21232925.422        -841.787
 93  5 11  4 15  0.0010000  0  7 16 17 20 23 22 26  3                0.001086890
   2041228.721 6   2291716.164 5  23741668.571        3403.574
 -16405564.816 8 -12785647.502 9  21147595.066        -696.981
  11077607.830 6   -852459.433 5  23527286.257        3781.968
  -6806808.937 6  -5780561.532 6  22740153.760       -2669.568
  -6477542.310 6  -5050524.237 5  23888855.598       -1545.831
  -1804568.225 6  -1421499.197 5  23401515.426       -1485.464
 -15130009.660 8 -11283844.862 8  21228141.955        -834.166
 93  5 11  4 15 30.0010000  0  7 16 17 20 23 22 26  3                0.001092140
   2143453.180 6   2371371.597 5  23761121.510        3411.228
 -16426356.703 8 -12801848.958 9  21143638.335        -689.176
  11191125.688 6   -764004.025 5  23548887.755        3785.803
  -6886763.293 6  -5842863.607 6  22724938.332       -2660.785
  -6523693.804 6  -5086486.440 5  23880073.309       -1530.937
  -1848952.971 6  -1456084.718 5  23393069.096       -1473.539
 -15154911.109 8 -11303248.580 8  21223403.632        -826.221
 93  5 11  4 16  0.0010000  0  7 16 17 20 23 22 26  3                0.001097400
   2245898.347 6   2451198.996 5  23780616.475        3418.345
 -16446912.512 8 -12817866.464 9  21139726.471        -681.334
  11304755.282 6   -675461.525 5  23570511.993        3789.433
  -6966461.689 6  -5904966.181 6  22709772.351       -2652.385
  -6569400.293 6  -5122101.876 5  23871376.290       -1516.161
  -1892979.651 6  -1490391.153 5  23384691.198       -1461.656
 -15179576.230 8 -11322468.143 8  21218709.802        -818.351
 93  5 11  4 16 30.0010000  0  7 16 17 20 23 22 26  3                0.001102660
   2348557.053 6   2531192.764 5  23800152.389        3425.525
 -16467241.793 8 -12833707.455 9  21135857.092        -673.987
  11418492.424 6   -586835.235 5  23592155.240        3793.000
  -7045901.521 6  -5966867.325 6  22694655.289       -2643.498
  -6614655.156 6  -5157365.421 5  23862765.067       -1500.971
  -1936653.316 6  -1524422.536 5  23376380.511       -1449.970
 -15204004.155 8 -11341502.883 8  21214061.213        -810.422
 93  5 11  4 17  0.0010000  0  7 16 17 20 23 22 26  3                0.001107900
   2451419.066 6   2611344.991 5  23819726.155        3431.852
 -16487349.264 8 -12849375.583 9  21132031.290        -666.468
  11532331.955 6   -498129.171 5  23613816.521        3796.257
  -7125072.514 6  -6028558.955 6  22679589.216       -2634.580
  -6659464.388 6  -5192281.686 5  23854237.507       -1486.339
  -1979973.743 6  -1558178.679 5  23368136.116       -1437.948
 -15228194.814 8 -11360352.723 8  21209457.727        -802.554
 93  5 11  4 17 30.0010000  0  7 16 17 20 23 22 26  3                0.001113130
   2554462.573 6   2691638.646 5  23839334.734        3437.591
 -16507228.651 8 -12864866.009 9  21128248.727        -658.706
  11646268.034 6   -409347.828 5  23635497.253        3799.420
  -7203969.315 6  -6090036.933 6  22664575.493       -2625.262
  -6703831.341 6  -5226853.321 5  23845795.566       -1471.493
  -2022923.964 6  -1591646.364 5  23359962.883       -1425.492
 -15252149.503 8 -11379018.698 8  21204899.353        -794.651
 93  5 11  4 18  0.0010000  0  7 16 17 20 23 22 26  3                0.001118340
   2657674.911 6   2772063.826 5  23858975.135        3443.169
 -16526871.207 8 -12880171.873 9  21124510.576        -651.015
  11760297.317 6   -320493.861 5  23657198.588        3802.481
  -7282590.888 6  -6151300.457 6  22649613.878       -2616.049
  -6747755.164 6  -5261079.663 5  23837437.544       -1456.735
  -2065507.404 6  -1624828.221 5  23351860.314       -1413.475
 -15275866.767 8 -11397499.671 9  21200386.208        -786.726
 93  5 11  4 18 30.0010000  0  7 16 17 20 23 22 26  3                0.001123530
   2761051.926 6   2852617.297 5  23878647.117        3448.535
 -16546289.726 8 -12895303.172 9  21120815.585        -643.422
  11874417.448 6   -231569.137 5  23678915.096        3805.498
  -7360927.662 6  -6212342.053 6  22634706.691       -2606.309
  -6791242.287 6  -5294965.734 5  23829162.645       -1442.354
  -2107738.503 6  -1657735.573 5  23343822.945       -1401.983
 -15299344.209 8 -11415793.766 9  21195918.420        -778.702
 93  5 11  4 19  0.0010000  0  7 16 17 20 23 22 26  3                0.001128670
   2864585.527 6   2933292.822 5  23898348.397        3453.890
 -16565464.619 8 -12910244.638 9  21117166.588        -634.850
  11988628.962 6   -142573.188 5  23700649.565        3808.733
  -7438957.250 6  -6273144.287 6  22619858.459       -2595.660
  -6834292.294 6  -5328511.186 5  23820969.636       -1427.350
  -2149617.514 6  -1690368.547 5  23335853.185       -1389.748
 -15322576.071 8 -11433896.495 8  21191497.333        -770.223
 93  5 11  4 19 30.0010000  0  7 16 17 20 23 22 26  3                0.001133800
   2968284.992 6   3014097.605 5  23918081.735        3459.644
 -16584392.945 8 -12924993.965 9  21113564.935        -626.896
  12102933.027 6    -53505.123 5  23722401.536        3811.688
  -7516676.552 6  -6333704.743 6  22605069.413       -2585.522
  -6876889.409 6  -5361703.785 5  23812863.030       -1412.228
  -2191128.620 6  -1722714.816 5  23327953.242       -1377.687
 -15345556.668 8 -11451803.448 8  21187124.189        -761.852
 93  5 11  4 20  0.0010000  0  7 16 17 20 23 22 26  3                0.001138920
   3072167.367 6   3095044.953 5  23937850.330        3465.742
 -16603084.998 8 -12939559.200 9  21110007.947        -619.335
  12217328.578 6     35634.224 5  23744169.188        3814.646
  -7594089.321 6  -6394026.344 6  22590338.605       -2575.169
  -6919023.543 6  -5394535.563 5  23804844.909       -1396.641
  -2232276.954 6  -1754778.420 5  23320124.006       -1365.446
 -15368281.957 8 -11469511.456 8  21182800.062        -753.375
 93  5 11  4 20 30.0010000  0  7 16 17 20 23 22 26  3                0.001144040
   3176235.300 6   3176136.850 5  23957653.719        3472.191
 -16621542.691 8 -12953941.802 9  21106495.406        -610.969
  12331813.449 6    124843.128 5  23765955.171        3817.701
  -7671184.872 6  -6454100.751 6  22575667.169       -2564.577
  -6960675.977 6  -5426991.970 5  23796918.249       -1380.126
  -2273040.710 6  -1786542.400 5  23312367.317       -1352.150
 -15390749.231 8 -11487018.407 8  21178524.994        -744.609
 93  5 11  4 21  0.0010000  0  7 16 17 20 23 22 26  3                0.001149170
   3280502.455 6   3257383.929 5  23977493.958        3479.094
 -16639747.154 8 -12968127.084 9  21103031.664        -602.788
  12446391.616 6    214124.798 5  23787759.196        3820.822
  -7747964.396 6  -6513928.901 6  22561056.354       -2554.216
  -7001829.006 6  -5459059.313 5  23789087.187       -1363.381
  -2313395.348 6  -1817987.556 5  23304688.409       -1338.259
 -15412949.638 8 -11504317.420 9  21174300.277        -735.612
 93  5 11  4 21 30.0010000  0  7 16 17 20 23 22 26  3                0.001154320
   3384971.787 6   3338788.623 5  23997374.083        3485.514
 -16657719.888 8 -12982131.801 9  21099611.992        -595.286
  12561057.865 6    303475.108 5  23809578.793        3823.658
  -7824449.203 7  -6573527.413 6  22546502.014       -2544.675
  -7042489.913 6  -5490743.133 5  23781350.122       -1347.336
  -2353351.260 6  -1849122.010 5  23297085.284       -1325.558
 -15434883.634 8 -11521408.828 8  21170126.517        -726.818
 93  5 11  4 22  0.0010000  0  7 16 17 20 23 22 26  3                0.001159460
   3489622.729 5   3420334.826 5  24017288.345        3491.288
 -16675461.147 8 -12995956.137 9  21096235.811        -587.285
  12675805.890 6    392889.092 5  23831414.258        3826.377
  -7900646.401 6  -6632901.819 6  22532002.160       -2534.879
  -7082678.125 6  -5522058.587 5  23773702.169       -1331.779
  -2392933.859 6  -1879965.570 5  23289552.957       -1313.029
 -15456552.534 8 -11538293.670 8  21166002.792        -717.868
 93  5 11  4 22 30.0010000  0  7 16 17 20 23 22 26  3                0.001164580
   3594442.197 6   3502012.334 5  24037235.372        3496.627
 -16692956.555 8 -13009588.909 9  21092906.804        -579.145
  12790635.287 6    482366.503 5  23853265.148        3828.770
  -7976549.072 6  -6692046.728 6  22517557.560       -2525.470
  -7122409.273 6  -5553017.964 5  23766141.863       -1317.230
  -2432138.120 6  -1910514.370 5  23282092.244       -1300.858
 -15477951.930 8 -11554968.511 8  21161930.571        -709.048
 93  5 11  4 23  0.0010000  0  7 16 17 20 23 22 26  3                0.001169680
   3699423.536 6   3583815.958 5  24057213.300        3501.967
 -16710208.545 8 -13023032.008 9  21089623.127        -571.067
  12905539.439 6    571902.165 5  23875130.792        3831.401
  -8052165.712 6  -6750968.741 6  22503168.400       -2515.529
  -7161704.868 6  -5583637.868 5  23758665.380       -1302.497
  -2470987.622 6  -1940786.684 5  23274699.499       -1289.146
 -15499083.485 8 -11571434.645 8  21157909.035        -700.020
 93  5 11  4 23 30.0010000  0  7 16 17 20 23 22 26  3                0.001174740
   3804557.086 6   3665738.164 5  24077219.582        3507.083
 -16727217.625 8 -13036285.824 9  21086386.236        -562.731
  13020513.482 6    661492.299 5  23897011.312        3833.649
  -8127485.152 6  -6809659.161 6  22488836.441       -2505.459
  -7200556.459 6  -5613911.813 5  23751272.504       -1287.461
  -2509487.167 6  -1970786.329 5  23267372.523       -1277.213
 -15519947.043 8 -11587691.958 8  21153938.853        -691.028
 93  5 11  4 24  0.0010000  0  7 16 17 20 23 22 26  3                0.001179780
   3909847.426 6   3747782.566 5  24097255.432        3512.376
 -16743972.780 8 -13049341.775 9  21083197.597        -554.216
  13135551.239 6    751132.030 5  23918902.321        3835.625
  -8202495.202 6  -6868108.523 6  22474561.897       -2495.039
  -7238949.550 6  -5643828.534 5  23743966.574       -1271.828
  -2547609.047 6  -2000491.692 5  23260118.247       -1264.013
 -15540544.034 8 -11603741.550 8  21150019.755        -682.230
 93  5 11  4 24 30.0010000  0  7 16 17 20 23 22 26  3                0.001184810
   4015302.689 6   3829955.493 5  24117322.735        3517.901
 -16760476.281 8 -13062201.630 9  21080057.389        -546.100
  13250648.197 6    840817.931 5  23940803.473        3837.471
  -8277192.237 7  -6926313.972 6  22460347.920       -2484.911
  -7276861.276 6  -5673370.126 5  23736751.820       -1255.508
  -2585324.008 6  -2029879.978 5  23252940.866       -1250.309
 -15560874.523 8 -11619583.487 8  21146150.434        -673.369
 93  5 11  4 25  0.0010000  0  7 16 17 20 23 22 26  3                0.001189850
   4120921.644 6   3912255.954 5  24137420.114        3523.254
 -16776741.635 8 -13074875.916 9  21076962.423        -538.233
  13365799.261 6    930546.007 5  23962717.091        3839.232
  -8351587.832 6  -6984284.540 6  22446190.645       -2474.625
  -7314274.114 6  -5702522.987 5  23729631.115       -1238.694
  -2622623.085 6  -2058944.139 5  23245842.848       -1236.023
 -15580938.377 8 -11635217.639 8  21142332.408        -664.445
 93  5 11  4 25 30.0010000  0  7 16 17 20 23 22 26  3                0.001194890
   4226705.493 6   3994684.800 5  24157551.440        3528.752
 -16792772.385 8 -13087367.404 9  21073912.023        -530.607
  13481004.136 6   1020315.979 5  23984639.680        3840.960
  -8425668.454 7  -7042009.663 6  22432092.545       -2464.218
  -7351184.652 6  -5731284.471 5  23722607.352       -1222.254
  -2659474.052 6  -2087659.197 5  23238830.938       -1220.898
 -15600731.334 8 -11650640.714 9  21138566.005        -655.395
 93  5 11  4 26  0.0010000  0  7 16 17 20 23 22 26  3                0.001199930
   4332645.282 6   4077235.304 5  24177710.885        3533.690
 -16808578.046 8 -13099683.483 9  21070904.176        -523.254
  13596255.687 5   1110122.290 5  24006569.981        3842.408
  -8499439.727 7  -7099493.733 6  22418054.885       -2453.983
  -7387619.425 6  -5759675.201 5  23715673.784       -1206.821
  -2695876.512 6  -2116024.767 5  23231904.080       -1206.128
 -15620255.099 8 -11665854.037 8  21134850.827        -646.445
 93  5 11  4 26 30.0010000  0  7 16 17 20 23 22 26  3                0.001204950
   4438720.084 6   4159891.047 5  24197896.529        3537.974
 -16824168.839 8 -13111832.127 9  21067937.629        -516.181
  13711550.602 6   1199962.486 5  24028509.209        3843.874
  -8572904.275 7  -7156738.795 6  22404075.463       -2443.755
  -7423595.952 6  -5787708.865 5  23708827.802       -1191.778
  -2731846.647 6  -2144053.376 5  23225059.657       -1192.152
 -15639508.510 8 -11680856.677 8  21131187.063        -637.345
 93  5 11  4 27  0.0010000  0  7 16 17 20 23 22 26  3                0.001209940
   4544922.374 6   4242646.054 5  24218107.108        3542.154
 -16839546.821 8 -13123814.966 9  21065010.806        -508.955
  13826886.265 6   1289834.371 5  24050457.013        3845.136
  -8646056.593 7  -7213740.576 6  22390155.466       -2432.916
  -7459130.945 6  -5815398.465 5  23702066.016       -1177.136
  -2767414.790 6  -2171768.812 5  23218291.611       -1179.071
 -15658488.850 8 -11695646.554 8  21127575.195        -628.250
 93  5 11  4 27 30.0010000  0  7 16 17 20 23 22 26  3                0.001214910
   4651255.849 6   4325503.331 5  24238342.461        3546.675
 -16854701.337 8 -13135623.660 9  21062126.894        -501.365
  13942264.011 6   1379739.014 5  24072413.407        3846.780
  -8718877.784 7  -7270484.332 6  22376297.593       -2421.901
  -7494212.249 6  -5842734.532 5  23695389.634       -1161.556
  -2802589.863 6  -2199177.940 5  23211598.167       -1166.027
 -15677190.394 8 -11710219.182 8  21124016.568        -618.745
 93  5 11  4 28  0.0010000  0  7 16 17 20 23 22 26  3                0.001219860
   4757723.650 6   4408465.274 5  24258603.208        3550.982
 -16869628.880 8 -13147255.491 9  21059286.311        -493.880
  14057684.316 6   1469676.850 5  24094376.633        3847.915
  -8791376.099 7  -7326976.480 6  22362501.682       -2411.402
  -7528821.641 6  -5869702.860 5  23688803.424       -1145.500
  -2837382.087 6  -2226288.736 5  23204978.187       -1153.437
 -15695607.541 8 -11724570.188 8  21120511.645        -609.328
 93  5 11  4 28 30.0010000  0  7 16 17 20 23 22 26  3                0.001224790
   4864312.451 6   4491521.484 5  24278885.668        3554.988
 -16884337.139 8 -13158716.479 9  21056486.828        -486.619
  14173135.094 6   1559638.475 5  24116345.079        3848.668
  -8863565.519 7  -7383227.949 6  22348764.404       -2401.365
  -7562937.275 6  -5896286.506 5  23682311.347       -1128.827
  -2871798.911 6  -2253107.061 5  23198428.804       -1141.108
 -15713747.645 8 -11738705.338 8  21117059.614        -600.268
 93  5 11  4 29  0.0010000  0  7 16 17 20 23 22 26  3                0.001229720
   4971034.003 5   4574681.146 5  24299194.219        3559.722
 -16898823.010 8 -13170004.149 9  21053730.596        -479.119
  14288609.939 6   1649618.815 5  24138319.309        3849.544
  -8935452.837 7  -7439244.008 6  22335083.911       -2391.054
  -7596539.497 6  -5922470.037 5  23675917.612       -1111.239
  -2905837.621 6  -2279630.765 5  23191949.655       -1127.927
 -15731612.196 8 -11752625.753 8  21113659.938        -590.960
 93  5 11  4 29 30.0010000  0  7 16 17 20 23 22 26  3                0.001234670
   5077896.785 6   4657950.893 5  24319528.930        3564.576
 -16913086.358 8 -13181118.438 9  21051016.854        -471.736
  14404110.843 6   1739619.446 5  24160298.529        3850.585
  -9007028.194 7  -7495016.970 6  22321463.943       -2380.559
  -7629607.618 6  -5948237.379 5  23669625.478       -1093.359
  -2939468.217 6  -2305836.376 5  23185550.436       -1113.976
 -15749194.925 8 -11766326.577 8  21110314.502        -581.302
 93  5 11  4 30  0.0010000  0  7 16 17 20 23 22 26  3                0.001239630
   5184901.382 6   4741331.044 5  24339891.101        3569.038
 -16927125.970 8 -13192058.377 9  21048344.666        -464.187
  14519639.835 6   1829642.052 5  24182284.220        3851.310
  -9078293.612 7  -7550548.423 6  22307902.039       -2370.348
  -7662148.290 6  -5973593.736 5  23663432.978       -1075.832
  -2972684.533 6  -2331719.194 5  23179229.069       -1100.351
 -15766487.930 8 -11779801.627 8  21107023.802        -571.748
 93  5 11  4 30 30.0010000  0  7 16 17 20 23 22 26  3                0.001244580
   5292042.416 5   4824817.543 5  24360279.513        3573.644
 -16940936.301 8 -13202819.660 9  21045716.225        -456.512
  14635193.794 5   1919684.018 5  24204273.205        3852.248
  -9149241.993 7  -7605832.836 6  22294400.919       -2359.501
  -7694168.131 6  -5998544.261 5  23657339.128       -1058.844
  -3005490.858 6  -2357282.600 5  23172986.458       -1086.593
 -15783490.439 8 -11793050.336 8  21103788.110        -561.974
 93  5 11  4 31  0.0010000  0  7 16 17 20 23 22 26  3                0.001249540
   5399311.113 5   4908403.581 5  24380693.117        3577.444
 -16954520.079 8 -13213404.407 9  21043131.473        -449.121
  14750769.279 5   2009742.792 5  24226266.992        3852.772
  -9219863.273 7  -7660862.379 6  22280961.871       -2348.571
  -7725687.878 6  -6023105.107 5  23651340.109       -1042.599
  -3037880.994 6  -2382521.590 5  23166823.424       -1072.725
 -15800200.454 8 -11806071.118 8  21100608.223        -552.302
 93  5 11  4 31 30.0010000  0  7 16 17 20 23 22 26  3                0.001254470
   5506685.806 5   4992072.200 5  24401125.832        3580.918
 -16967874.745 8 -13223810.625 9  21040590.671        -441.166
  14866360.739 5   2099814.022 5  24248264.039        3853.427
  -9290159.594 7  -7715638.676 6  22267585.492       -2337.834
  -7756726.643 6  -6047291.126 5  23645433.970       -1026.657
  -3069850.795 6  -2407433.079 5  23160738.902       -1058.480
 -15816618.555 8 -11818864.434 8  21097483.735        -542.402
 93  5 11  4 32  0.0010000  0  7 16 17 20 23 22 26  3                0.001259370
   5614160.504 5   5075818.747 5  24421577.225        3584.101
 -16980985.698 8 -13234026.938 9  21038095.983        -432.841
  14981971.561 5   2189900.375 5  24270263.819        3854.112
  -9360133.288 7  -7770163.619 6  22254269.938       -2326.897
  -7787290.895 6  -6071107.452 5  23639619.061       -1010.848
  -3101389.062 6  -2432008.303 5  23154737.838       -1043.920
 -15832736.912 8 -11831424.197 8  21094416.638        -532.278
 93  5 11  4 32 30.0010000  0  7 16 17 20 23 22 26  3                0.001264240
   5721732.881 5   5159641.302 5  24442048.044        3587.478
 -16993841.998 8 -13244044.813 9  21035648.755        -424.123
  15097609.459 5   2280007.694 5  24292269.523        3855.169
  -9429760.837 7  -7824418.821 6  22241019.963       -2314.877
  -7817375.853 6  -6094550.258 5  23633893.994        -994.732
  -3132469.918 6  -2456227.172 5  23148823.201       -1028.040
 -15848542.796 8 -11843740.450 8  21091408.500        -521.604
 93  5 11  4 33  0.0010000  0  7 16 17 20 23 22 26  3                0.001269080
   5829398.383 5   5243536.487 5  24462534.783        3590.319
 -17006441.029 8 -13253862.228 9  21033251.514        -415.853
  15213268.812 5   2370131.883 5  24314278.120        3855.464
  -9499043.438 7  -7878405.230 7  22227835.469       -2303.995
  -7846982.740 6  -6117620.535 5  23628259.610        -979.047
  -3163084.592 6  -2480082.695 5  23142997.515       -1013.120
 -15864037.371 8 -11855814.135 8  21088460.431        -511.585
 93  5 11  4 33 30.0010000  0  7 16 17 20 23 22 26  3                0.001273900
   5937162.796 5   5327508.765 5  24483040.701        3593.812
 -17018792.773 8 -13263486.956 9  21030901.461        -407.881
  15328936.182 5   2460262.275 5  24336289.467        3855.558
  -9567998.103 7  -7932136.101 7  22214714.342       -2293.049
  -7876115.905 6  -6140321.704 5  23622715.483        -963.307
  -3193262.971 6  -2503598.275 5  23137255.322        -998.981
 -15879229.191 8 -11867651.914 8  21085569.773        -501.561
 93  5 11  4 34  0.0010000  0  7 16 17 20 23 22 26  3                0.001278690
   6045029.110 6   5411560.477 5  24503567.902        3597.340
 -17030912.547 8 -13272930.916 9  21028595.144        -400.108
  15444603.946 5   2550392.907 5  24358299.996        3855.547
  -9636622.682 7  -7985609.765 7  22201655.963       -2281.950
  -7904781.522 6  -6162658.543 5  23617260.410        -947.715
  -3223015.908 6  -2526782.380 5  23131593.074        -984.774
 -15894120.684 8 -11879255.663 8  21082736.195        -491.526
 93  5 11  4 34 30.0010000  0  7 16 17 20 23 22 26  3                0.001283470
   6153012.615 5   5495703.421 5  24524116.233        3601.659
 -17042795.280 8 -13282190.166 9  21026333.772        -392.070
  15560267.901 5   2640520.570 5  24380310.093        3855.431
  -9704914.799 7  -8038824.366 7  22188660.422       -2270.931
  -7932971.116 6  -6184624.420 5  23611896.393        -931.452
  -3252344.115 6  -2549635.520 5  23126012.029        -970.415
 -15908711.518 8 -11890625.122 8  21079959.428        -481.362
 93  5 11  4 35  0.0010000  0  7 16 17 20 23 22 26  3                0.001288240
   6261127.270 6   5579948.559 5  24544689.486        3606.104
 -17054449.376 8 -13291271.273 9  21024115.868        -384.839
  15675927.134 5   2730644.602 5  24402319.839        3855.279
  -9772887.494 7  -8091790.051 7  22175725.654       -2260.321
  -7960669.993 6  -6206207.963 5  23606625.044        -915.114
  -3281250.274 6  -2572159.758 5  23120511.366        -956.588
 -15922997.695 8 -11901757.200 8  21077240.530        -471.188
 93  5 11  4 35 30.0010000  0  7 16 17 20 23 22 26  3                0.001293010
   6369373.688 6   5664296.425 5  24565288.726        3610.085
 -17065888.005 8 -13300184.473 9  21021938.803        -377.741
  15791580.468 5   2820763.999 5  24424328.434        3854.978
  -9840529.014 7  -8144497.709 7  22162853.754       -2249.010
  -7987883.522 6  -6227413.278 5  23601446.889        -899.176
  -3309734.824 6  -2594355.485 5  23115090.306        -942.185
 -15936975.107 8 -11912648.673 8  21074580.751        -460.906
 93  5 11  4 36  0.0010000  0  7 16 17 20 23 22 26  3                0.001297770
   6477738.840 6   5748736.841 5  24585910.716        3614.320
 -17077108.635 8 -13308927.823 9  21019803.782        -370.171
  15907230.774 6   2910881.081 5  24446334.372        3855.174
  -9907826.665 7  -8196937.392 7  22150047.471       -2237.369
  -8014607.167 6  -6248236.900 5  23596361.505        -882.196
  -3337767.771 6  -2616199.325 5  23109755.851        -926.700
 -15950636.989 8 -11923294.305 8  21071981.539        -449.993
 93  5 11  4 36 30.0010000  0  7 16 17 20 23 22 26  3                0.001302530
   6586216.642 6   5833265.005 5  24606553.713        3617.625
 -17088109.658 8 -13317500.023 9  21017710.622        -363.126
  16022882.668 6   3000999.405 5  24468343.104        3855.169
  -9974771.399 7  -8249102.081 7  22137308.477       -2225.362
  -8040815.120 6  -6268658.685 5  23591374.720        -864.825
  -3365344.001 6  -2637687.257 5  23104509.021        -911.535
 -15963973.585 8 -11933686.440 8  21069443.508        -439.083
 93  5 11  4 37  0.0010000  0  7 16 17 20 23 22 26  3                0.001307290
   6694792.877 6   5917869.804 5  24627214.602        3620.685
 -17098898.647 8 -13325907.023 9  21015657.164        -355.985
  16138538.809 6   3091121.032 5  24490351.959        3855.127
 -10041348.219 7  -8300980.095 7  22124639.652       -2212.949
  -8066502.409 6  -6288674.732 5  23586486.364        -847.740
  -3392462.635 6  -2658818.635 5  23099348.631        -896.404
 -15976977.201 8 -11943819.123 8  21066969.241        -428.110
 93  5 11  4 37 30.0010000  0  7 16 17 20 23 22 26  3                0.001312040
   6803455.191 6   6002541.716 5  24647891.262        3623.441
 -17109456.929 8 -13334134.243 9  21013648.243        -347.801
  16254192.280 6   3181240.570 5  24512359.596        3855.077
 -10107545.581 7  -8352562.420 7  22112042.881       -2200.220
  -8091673.053 6  -6308288.229 5  23581696.643        -830.141
  -3419119.597 6  -2679590.274 5  23094276.035        -880.769
 -15989650.328 8 -11953694.287 8  21064557.251        -416.950
 93  5 11  4 38  0.0010000  0  7 16 17 20 23 22 26  3                0.001316780
   6912197.794 6   6087276.272 5  24668584.487        3626.287
 -17119775.781 8 -13342174.887 9  21011684.994        -339.945
  16369836.513 5   3271352.895 5  24534366.068        3854.596
 -10173377.609 7  -8403860.079 7  22099514.833       -2188.370
  -8116314.026 6  -6327488.974 5  23577007.566        -812.404
  -3445313.212 6  -2700000.870 5  23089291.067        -865.232
 -16001994.739 8 -11963313.288 8  21062208.035        -406.097
 93  5 11  4 38 30.0010000  0  7 16 17 20 23 22 26  3                0.001321520
   7021033.910 5   6172083.634 5  24689295.688        3629.515
 -17129851.160 8 -13350025.827 9  21009767.160        -331.765
  16485468.898 6   3361456.041 5  24556369.737        3854.171
 -10238842.959 7  -8454871.990 7  22087057.258       -2176.118
  -8140420.163 6  -6346272.997 5  23572420.532        -794.847
  -3471034.309 6  -2720043.286 5  23084396.447        -849.315
 -16014008.048 8 -11972674.313 8  21059922.150        -395.045
 93  5 11  4 39  0.0010000  0  7 16 17 20 23 22 26  3                0.001326250
   7129977.833 5   6256974.984 5  24710026.124        3633.137
 -17139674.859 8 -13357680.639 9  21007898.093        -323.315
  16601083.006 5   3451544.842 5  24578371.615        3853.164
 -10303947.785 7  -8505603.004 7  22074667.774       -2164.461
  -8164009.355 6  -6364654.147 5  23567932.021        -777.909
  -3496272.225 6  -2739709.138 5  23079594.093        -833.477
 -16025692.399 8 -11981778.984 8  21057698.910        -384.297
 93  5 11  4 39 30.0010000  0  8 16 17 20 23 22 21 26  3             0.001330980
   7239012.451 5   6341937.056 5  24730775.932        3635.735
 -17149261.523 8 -13365150.766 9  21006073.988        -316.064
  16716654.704 5   3541600.666 5  24600363.669        3851.444
 -10368718.863 7  -8556073.940 7  22062342.511       -2153.766
  -8187104.453 6  -6382650.318 5  23563537.182        -761.914
   -207730.95915   -168111.45311  25111394.068       -3194.103
  -3521052.657 6  -2759018.573 5  23074878.556        -818.819
 -16037067.072 8 -11990642.362 8  21055534.170        -374.298
 93  5 11  4 40  0.0010000  0  7 16 17 20 23 22 26  3                0.001335670
   7348127.768 5   6426961.940 5  24751539.399        3638.445
 -17158644.446 8 -13372462.113 9  21004288.412        -309.434
  16832170.612 5   3631613.036 5  24622344.836        3849.629
 -10433171.904 7  -8606297.038 7  22050076.871       -2142.934
  -8209720.221 6  -6400272.989 5  23559233.125        -745.909
  -3545397.004 6  -2777988.166 5  23070246.701        -804.031
 -16048140.734 8 -11999271.178 8  21053426.707        -364.102
 93  5 11  4 40 30.0010000  0  7 16 17 20 23 22 26  3                0.001340340
   7457312.617 5   6512041.036 5  24772315.435        3640.620
 -17167832.503 8 -13379621.631 9  21002539.864        -302.884
  16947626.291 5   3721578.404 5  24644315.321        3847.598
 -10497297.788 7  -8656265.242 7  22037873.997       -2132.053
  -8231867.818 6  -6417530.843 5  23555018.050        -730.450
  -3569313.277 6  -2796624.220 5  23065696.160        -790.338
 -16058913.031 8 -12007665.183 8  21051376.767        -354.129
 93  5 11  4 41  0.0010000  0  7 16 17 20 23 22 26  3                0.001344980
   7566557.509 5   6597166.991 5  24793105.097        3642.260
 -17176814.657 8 -13386620.707 9  21000830.626        -296.041
  17063022.907 5   3811497.729 5  24666272.118        3845.508
 -10561093.513 7  -8705976.180 7  22025733.989       -2120.907
  -8253540.525 6  -6434418.645 5  23550894.128        -714.413
  -3592821.100 6  -2814942.001 5  23061222.677        -776.949
 -16069378.314 8 -12015819.932 8  21049385.316        -343.797
 93  5 11  4 41 30.0010000  0  7 16 17 20 23 22 26  3                0.001349600
   7675851.411 5   6682331.088 5  24813904.467        3643.872
 -17185598.934 8 -13393465.581 9  20999158.944        -289.665
  17178362.661 5   3901372.922 5  24688221.851        3843.741
 -10624548.432 7  -8755421.532 7  22013659.160       -2109.547
  -8274729.996 6  -6450929.909 5  23546861.360        -698.304
  -3615920.906 6  -2832941.814 5  23056827.165        -762.896
 -16079529.371 8 -12023729.844 8  21047453.632        -333.205
 93  5 11  4 42  0.0010000  0  8 16 17 20 23 22 21 26  3             0.001354170
   7785202.688 5   6767539.724 5  24834713.492        3646.117
 -17194183.358 8 -13400154.739 9  20997525.346        -282.569
  17293652.532 5   3991209.186 5  24710159.216        3842.352
 -10687657.432 7  -8804597.328 7  22001649.625       -2097.676
  -8295426.469 6  -6467057.027 5  23542923.066        -681.391
      6373.42015     -8692.95111  25020339.185       -3184.847
  -3638576.782 6  -2850595.699 5  23052515.514        -747.268
 -16089354.603 8 -12031385.876 8  21045584.296        -321.977
 93  5 11  4 42 30.0010000  0  8 16 17 20 23 22 21 26  3             0.001358730
   7894615.241 5   6852796.201 5  24855533.851        3648.032
 -17202557.005 8 -13406679.633 9  20995931.940        -275.721
  17408894.558 5   4081007.991 5  24732088.260        3840.327
 -10750421.068 7  -8853504.044 7  21989706.721       -2086.645
  -8315626.257 6  -6482797.093 5  23539080.014        -665.328
     12757.40715    -42170.12711  25002165.711       -3182.331
  -3660760.769 6  -2867881.918 5  23048293.669        -731.757
 -16098846.968 8 -12038782.515 8  21043777.945        -311.160
 93  5 11  4 43  0.0010000  0  8 16 17 20 23 22 21 26  3             0.001363270
   8004085.650 5   6938097.914 5  24876365.122        3649.883
 -17210729.396 8 -13413047.727 9  20994377.074        -269.296
  17524077.578 5   4170761.013 5  24754007.063        3838.444
 -10812851.817 7  -8902151.360 7  21977826.845       -2075.465
  -8335342.828 6  -6498160.647 5  23535327.733        -649.101
    -82660.606 5   -116521.486 3  24984004.255       -3178.916
  -3682467.885 6  -2884796.534 5  23044163.030        -715.376
 -16108013.383 8 -12045925.174 8  21042033.753        -300.167
 93  5 11  4 43 30.0010000  0  8 16 17 20 23 22 21 26  3             0.001367790
   8113600.134 6   7023433.854 5  24897204.881        3651.057
 -17218728.790 8 -13419281.003 9  20992854.799        -263.775
  17639185.948 5   4260455.846 5  24775914.287        3835.564
 -10874965.740 7  -8950551.782 7  21966007.012       -2065.426
  -8354590.971 6  -6513159.190 5  23531665.673        -633.970
   -177993.879 5   -190807.058 4  24965861.518       -3176.606
  -3703684.826 6  -2901329.198 5  23040124.607        -699.138
 -16116864.310 8 -12052821.997 8  21040349.898        -289.985
 93  5 11  4 44  0.0010000  0  8 16 17 20 23 22 21 26  3             0.001372290
   8223154.048 5   7108800.372 5  24918051.404        3652.387
 -17226548.728 8 -13425374.458 9  20991367.170        -257.640
  17754211.187 5   4350085.737 5  24797803.862        3832.747
 -10936766.595 7  -8998708.266 7  21954246.483       -2054.644
  -8373371.929 6  -6527793.700 5  23528091.832        -618.089
   -273243.339 5   -265027.301 4  24947735.762       -3173.439
  -3724422.149 6  -2917488.112 5  23036179.077        -683.576
 -16125404.226 8 -12059476.481 8  21038724.173        -279.593
 93  5 11  4 44 30.0010000  0  8 16 17 20 23 22 21 26  3             0.001376760
   8332746.826 6   7194197.387 5  24938906.033        3653.725
 -17234174.464 8 -13431316.577 9  20989915.834        -250.739
  17869156.402 5   4439653.434 5  24819676.372        3830.209
 -10998234.577 7  -9046605.375 7  21942549.091       -2043.158
  -8391669.645 6  -6542051.645 5  23524610.041        -601.664
   -368391.044 5   -339168.268 5  24929629.461       -3169.757
  -3744697.597 6  -2933287.155 5  23032320.784        -668.332
 -16133625.234 8 -12065882.447 8  21037160.228        -268.758
 93  5 11  4 45  0.0010000  0  8 16 17 20 23 22 21 26  3             0.001381220
   8442372.170 6   7279619.836 5  24959766.734        3654.759
 -17241597.319 8 -13437100.605 9  20988503.412        -243.906
  17984020.181 5   4529157.673 5  24841533.931        3827.574
 -11059357.920 7  -9094233.913 7  21930917.791       -2031.642
  -8409467.730 6  -6555920.275 5  23521223.289        -584.576
   -463434.262 5   -413227.876 5  24911542.367       -3166.360
  -3764526.764 6  -2948738.460 5  23028547.386        -653.498
 -16141523.859 8 -12072037.219 8  21035656.888        -257.856
 93  5 11  4 45 30.0010000  0  8 16 17 20 23 22 21 26  3             0.001385640
   8552019.537 6   7365059.457 5  24980631.436        3655.339
 -17248808.944 8 -13442720.045 9  20987131.512        -236.562
  18098800.089 5   4618596.499 5  24863376.886        3824.665
 -11120141.087 7  -9141597.382 7  21919351.396       -2020.363
  -8426759.405 6  -6569394.283 5  23517932.323        -567.852
   -558388.775 5   -487218.279 5  24893474.683       -3163.663
  -3783915.021 6  -2963846.179 5  23024857.201        -639.046
 -16149098.431 8 -12077939.489 8  21034215.115        -247.076
 93  5 11  4 46  0.0010000  0  8 16 17 20 23 22 21 26  3             0.001390040
   8661690.629 5   7450517.463 5  25001500.002        3656.016
 -17255789.613 8 -13448159.519 9  20985803.610        -228.793
  18213499.365 5   4707972.458 5  24885202.717        3821.997
 -11180578.832 7  -9188691.684 7  21907850.711       -2008.818
  -8443541.461 6  -6582471.207 5  23514738.247        -550.863
   -653248.702 5   -561134.997 5  24875423.798       -3160.211
  -3802870.384 6  -2978616.553 5  23021250.133        -624.507
 -16156340.505 8 -12083582.639 8  21032836.800        -235.839
 93  5 11  4 46 30.0010000  0  8 16 17 20 23 22 21 26  3             0.001394410
   8771382.175 5   7535991.342 5  25022373.292        3656.766
 -17262533.494 8 -13453414.478 9  20984519.699        -220.742
  18328121.155 5   4797288.177 5  24907015.114        3819.370
 -11240673.128 7  -9235518.403 7  21896414.846       -1997.455
  -8459819.272 6  -6595155.211 5  23511640.878        -534.406
   -748006.819 5   -634972.389 5  24857392.097       -3156.973
  -3821378.188 6  -2993038.233 5  23017728.755        -609.319
 -16163242.755 8 -12088961.022 8  21031523.778        -224.456
 93  5 11  4 47  0.0010000  0  8 16 17 20 23 22 21 26  3             0.001398750
   8881100.839 5   7621486.350 5  25043252.256        3657.730
 -17269038.095 8 -13458482.999 9  20983281.874        -212.992
  18442667.194 5   4886544.828 5  24928811.672        3816.917
 -11300424.690 7  -9282077.999 7  21885044.219       -1986.126
  -8475603.238 6  -6607454.397 5  23508637.175        -517.986
   -842668.461 5   -708734.655 5  24839378.259       -3154.034
  -3839430.521 6  -3007104.956 5  23014293.336        -594.083
 -16169798.547 8 -12094069.414 8  21030276.614        -212.833
 93  5 11  4 47 30.0010000  0  8 16 17 20 23 22 21 26  3             0.001403070
   8990856.519 6   7707010.266 5  25064138.503        3659.241
 -17275313.282 8 -13463372.751 9  20982087.112        -205.584
  18557139.748 5   4975744.108 5  24950595.465        3814.458
 -11359828.989 7  -9328367.049 7  21873739.806       -1974.353
  -8490899.695 6  -6619373.670 5  23505726.153        -501.728
   -937234.736 5   -782422.594 5  24821382.463       -3150.499
  -3857016.572 6  -3020808.355 5  23010946.724        -578.399
 -16176000.964 8 -12098902.476 8  21029096.808        -201.028
 93  5 11  4 48  0.0010000  0  8 16 17 20 23 22 21 26  3             0.001407380
   9100663.017 5   7792573.843 5  25085033.999        3660.993
 -17281369.858 8 -13468092.141 9  20980934.749        -198.432
  18671540.994 5   5064887.895 5  24972365.406        3812.095
 -11418871.419 7  -9374374.114 7  21862504.183       -1961.889
  -8505695.471 6  -6630902.842 5  23502910.372        -484.767
  -1031687.786 5   -856022.230 5  24803408.704       -3146.601
  -3874130.240 6  -3034143.659 5  23007690.071        -562.687
 -16181843.448 8 -12103455.047 8  21027984.790        -188.931
 93  5 11  4 48 30.0010000  0  8 16 17 20 23 22 21 26  3             0.001411680
   9210526.271 5   7878181.560 5  25105940.599        3663.304
 -17287216.281 8 -13472647.777 9  20979822.903        -191.465
  18785869.633 5   5153975.157 5  24994122.363        3809.800
 -11477532.252 7  -9420083.823 7  21851340.772       -1948.754
  -8519976.418 6  -6642030.842 5  23500192.387        -467.247
  -1126030.286 5   -929535.766 5  24785454.807       -3142.960
  -3890770.280 6  -3047109.942 5  23004522.890        -546.626
 -16187322.877 8 -12107724.738 8  21026941.402        -176.600
 93  5 11  4 49  0.0010000  0  8 16 17 20 23 22 21 26  3             0.001415980
   9320468.363 5   7963850.689 5  25126861.963        3666.236
 -17292858.227 8 -13477044.098 9  20978749.085        -184.609
  18900133.281 5   5243011.737 5  25015866.037        3807.701
 -11535791.946 7  -9465480.936 7  21840254.746       -1935.244
  -8533717.453 6  -6652738.132 5  23497578.351        -448.739
  -1220258.684 5  -1002960.343 5  24767524.564       -3138.914
  -3906918.328 6  -3059692.811 5  23001449.137        -529.784
 -16192427.023 8 -12111701.989 8  21025969.802        -163.882
 93  5 11  4 49 30.0010000  0  7 17 20 23 22 21 26  3                0.001420340
 -17298295.742 8 -13481281.113 9  20977713.820        -177.779
  19014331.216 5   5331997.046 5  25037598.953        3805.419
 -11593648.589 7  -9510564.002 7  21829245.219       -1921.855
  -8546902.772 6  -6663012.394 5  23495069.801        -430.176
  -1314363.201 5  -1076288.514 4  24749618.589       -3134.588
  -3922559.180 6  -3071880.466 5  22998472.430        -512.871
 -16197152.332 8 -12115384.046 8  21025070.988        -151.308
 93  5 11  4 50  0.0010000  0  7 17 20 23 22 21 26  3                0.001424640
 -17303515.532 8 -13485348.482 9  20976720.630        -170.086
  19128459.568 5   5420928.174 5  25059317.246        3803.070
 -11651101.877 7  -9555332.789 7  21818312.587       -1908.189
  -8559531.671 6  -6672853.056 5  23492666.364        -411.869
  -1408336.681 5  -1149514.609 4  24731738.742       -3130.209
  -3937690.118 6  -3083670.790 5  22995593.352        -495.762
 -16201497.901 8 -12118770.183 8  21024243.519        -138.522
 93  5 11  4 50 30.0010000  0  6 17 23 22 21 26  3                   0.001428930
 -17308507.797 8 -13489238.545 9  20975770.665        -162.597
 -11708150.635 7  -9599786.343 7  21807456.441       -1895.099
  -8571622.176 6  -6682274.229 5  23490365.058        -394.299
  -1502178.427 5  -1222637.954 4  24713878.857       -3126.037
  -3952297.283 6  -3095053.000 5  22992814.516        -477.869
 -16205462.631 8 -12121859.581 8  21023489.313        -125.955
 93  5 11  4 51  0.0010000  0  6 17 23 22 21 26  3                   0.001433240
 -17313261.545 8 -13492942.752 9  20974865.762        -154.257
 -11764808.047 7  -9643934.949 7  21796674.627       -1882.181
  -8583180.755 6  -6691280.919 5  23488165.753        -376.409
  -1595889.548 5  -1295659.492 4  24696045.082       -3121.536
  -3966362.672 6  -3106013.027 5  22990138.009        -459.974
 -16209044.421 8 -12124650.590 8  21022808.215        -113.156
 93  5 11  4 51 30.0010000  0  6 17 23 22 21 26  3                   0.001437560
 -17317758.396 8 -13496446.787 9  20974009.964        -145.665
 -11821074.370 7  -9687778.808 7  21785967.629       -1869.038
  -8594208.521 6  -6699873.969 5  23486066.915        -358.943
  -1689462.167 5  -1368573.181 4  24678239.536       -3116.931
  -3979897.157 6  -3116559.324 5  22987562.752        -442.543
 -16212241.434 8 -12127141.756 8  21022200.024        -100.320
 93  5 11  4 52  0.0010000  0  6 17 23 22 21 26  3                   0.001441860
 -17321993.157 8 -13499746.583 9  20973204.043        -136.895
 -11876943.270 7  -9731312.985 7  21775336.238       -1855.548
  -8604720.014 6  -6708064.729 5  23484066.751        -341.905
  -1782900.092 5  -1441381.917 4  24660457.741       -3112.486
  -3992907.334 6  -3126697.137 5  22985086.867        -425.047
 -16215051.693 8 -12129331.568 8  21021665.151         -87.361
 93  5 11  4 52 30.0010000  0  6 17 23 22 21 26  3                   0.001446150
 -17325969.760 8 -13502845.241 9  20972447.189        -128.257
 -11932403.303 7  -9774528.560 7  21764782.455       -1841.990
  -8614708.376 6  -6715847.876 5  23482166.665        -323.975
  -1876205.457 5  -1514087.283 4  24642702.626       -3108.081
  -4005396.677 6  -3136429.064 5  22982711.017        -407.744
 -16217468.807 8 -12131215.024 8  21021205.352         -74.108
 93  5 11  4 53  0.0010000  0  6 17 23 22 21 26  3                   0.001450430
 -17329694.389 8 -13505747.537 9  20971738.460        -119.881
 -11987465.140 7  -9817433.852 7  21754304.330       -1828.594
  -8624159.568 6  -6723212.415 5  23480368.419        -305.917
  -1969379.357 5  -1586690.217 5  24624973.530       -3103.261
  -4017382.723 6  -3145768.832 5  22980430.470        -391.190
 -16219490.845 8 -12132790.637 8  21020820.199         -60.724
 93  5 11  4 53 30.0010000  0  6 17 23 22 21 26  3                   0.001454680
 -17333175.808 8 -13508460.324 9  20971076.235        -112.141
 -12042120.736 7  -9860022.602 7  21743903.296       -1814.995
  -8633075.962 6  -6730160.257 5  23478670.976        -288.277
  -2062408.398 5  -1659180.320 5  24607269.794       -3098.599
  -4028876.697 6  -3154725.188 5  22978242.817        -374.780
 -16221112.629 8 -12134054.346 8  21020511.443         -47.424
 93  5 11  4 54  0.0010000  0  6 17 23 22 21 26  3                   0.001458910
 -17336428.341 8 -13510994.756 9  20970457.305        -104.611
 -12096371.307 7  -9902295.753 7  21733580.156       -1801.623
  -8641463.143 6  -6736695.743 5  23477074.627        -270.565
  -2155290.944 5  -1731556.308 5  24589594.659       -3093.605
  -4039867.258 6  -3163289.217 5  22976150.461        -357.748
 -16222333.661 8 -12135005.796 8  21020279.084         -34.067
 93  5 11  4 54 30.0010000  0  6 17 23 22 21 26  3                   0.001463150
 -17339451.934 8 -13513350.785 9  20969881.534         -96.887
 -12150225.037 7  -9944259.674 7  21723332.219       -1788.796
  -8649304.254 6  -6742805.657 5  23475583.046        -252.226
  -2248021.007 5  -1803813.431 5  24571947.800       -3088.294
  -4050339.042 6  -3171449.035 5  22974157.688        -340.159
 -16223145.853 8 -12135638.661 8  21020124.879         -20.312
 93  5 11  4 55  0.0010000  0  6 17 23 22 21 26  3                   0.001467420
 -17342232.909 8 -13515517.775 9  20969352.560         -88.558
 -12203686.947 7  -9985918.287 7  21713158.751       -1775.362
  -8656587.643 6  -6748481.017 5  23474197.978        -233.493
  -2340581.039 5  -1875938.013 5  24554335.403       -3082.322
  -4060265.235 6  -3179183.717 5  22972268.545        -321.731
 -16223535.488 8 -12135942.260 8  21020050.403          -5.940
 93  5 11  4 55 30.0010000  0  6 17 23 22 21 26  3                   0.001471720
 -17344758.777 8 -13517485.978 9  20968871.990         -80.071
 -12256741.330 7 -10027259.323 7  21703063.262       -1761.759
  -8663312.037 6  -6753720.816 5  23472917.549        -214.863
  -2432956.697 5  -1947918.975 5  24536756.936       -3076.340
  -4069634.317 6  -3186484.303 5  22970485.772        -302.890
 -16223492.688 8 -12135908.923 8  21020058.405           8.465
 93  5 11  4 56  0.0010000  0  6 17 23 22 21 26  3                   0.001476070
 -17347026.040 8 -13519252.670 9  20968440.500         -71.131
 -12309398.704 7 -10068291.004 7  21693042.710       -1748.762
  -8669471.356 6  -6758520.272 5  23471745.541        -195.774
  -2525148.468 5  -2019756.661 5  24519212.016       -3069.973
  -4078437.237 6  -3193343.726 5  22968810.624        -284.126
 -16223016.982 8 -12135538.229 8  21020148.963          22.876
 93  5 11  4 56 30.0010000  0  6 17 23 22 21 26  3                   0.001480460
 -17349030.056 8 -13520814.234 9  20968059.086         -62.477
 -12361669.902 7 -10109021.774 7  21683095.286       -1735.870
  -8675061.491 6  -6762876.186 5  23470682.045        -176.991
  -2617157.979 5  -2091452.317 5  24501704.142       -3063.811
  -4086694.600 6  -3199778.005 5  22967239.913        -266.381
 -16222117.140 8 -12134837.044 8  21020320.326          36.861
 93  5 11  4 57  0.0010000  0  6 17 23 22 21 26  3                   0.001484860
 -17350773.517 8 -13522172.770 9  20967727.265         -53.773
 -12413541.004 7 -10149440.798 7  21673224.419       -1722.054
  -8680094.390 6  -6766797.923 5  23469724.034        -158.570
  -2708976.371 5  -2162999.053 5  24484232.850       -3057.406
  -4094425.567 6  -3205802.133 5  22965768.961        -249.198
 -16220799.447 8 -12133810.271 8  21020571.030          50.705
 93  5 11  4 57 30.0010000  0  6 17 23 22 21 26  3                   0.001489260
 -17352258.413 8 -13523329.810 9  20967444.620         -45.397
 -12464996.479 7 -10189535.920 7  21663432.508       -1708.340
  -8684582.832 6  -6770295.427 5  23468870.206        -140.624
  -2800608.226 5  -2234400.416 5  24466796.027       -3051.553
  -4101641.121 6  -3211424.607 5  22964395.497        -231.822
 -16219072.630 8 -12132464.694 8  21020899.823          64.094
 93  5 11  4 58  0.0010000  0  6 17 23 22 21 26  3                   0.001493650
 -17353498.602 8 -13524296.189 9  20967208.603         -37.340
 -12516042.895 7 -10229312.329 8  21653719.192       -1694.575
  -8688535.242 6  -6773375.188 5  23468118.519        -122.964
  -2892076.041 5  -2305673.995 5  24449388.646       -3046.230
  -4108342.345 6  -3216646.339 5  22963120.391        -214.869
 -16216951.315 8 -12130811.715 8  21021303.286          77.119
 93  5 11  4 58 30.0010000  0  6 17 23 22 21 26  3                   0.001498010
 -17354517.330 8 -13525089.988 9  20967014.869         -30.667
 -12566671.269 7 -10268762.972 8  21644085.053       -1680.657
  -8691977.989 6  -6776057.873 5  23467463.564        -106.728
  -2983400.499 5  -2376835.850 5  24432010.616       -3041.984
  -4114537.052 6  -3221473.357 5  22961941.584        -198.060
 -16214444.938 8 -12128858.682 8  21021780.204          89.767
 93  5 11  4 59  0.0010000  0  6 17 23 22 21 26  3                   0.001502330
 -17355337.565 8 -13525729.124 9  20966858.715         -24.121
 -12616884.797 7 -10307890.362 8  21634529.286       -1667.039
  -8694936.789 6  -6778363.410 5  23466900.519         -90.461
  -3074597.650 5  -2447898.456 5  24414655.943       -3037.971
  -4120214.948 6  -3225897.731 5  22960861.234        -180.399
 -16211554.910 8 -12126606.725 8  21022330.193         102.667
 93  5 11  4 59 30.0010000  0  6 17 23 22 21 26  3                   0.001506620
 -17355968.804 8 -13526221.003 9  20966738.509         -18.272
 -12666695.598 7 -10346703.942 8  21625050.398       -1654.035
  -8697404.982 6  -6780286.677 5  23466431.481         -74.194
  -3165681.373 5  -2518872.692 5  24397320.307       -3034.549
  -4125355.958 6  -3229903.686 5  22959882.803        -162.538
 -16208275.568 8 -12124051.385 8  21022954.301         115.594
 93  5 11  5  0  0.0010000  0  6 17 23 22 21 26  3                   0.001510900
 -17356432.012 8 -13526581.928 9  20966650.407         -12.627
 -12716127.761 7 -10385222.491 8  21615644.140       -1641.643
  -8699384.623 6  -6781829.209 5  23466054.549         -57.920
  -3256655.780 5  -2589761.836 5  24380007.487       -3030.485
  -4129971.792 6  -3233500.401 5  22959004.822        -145.281
 -16204606.571 8 -12121192.427 8  21023652.568         128.685
 93  5 11  5  0 30.0010000  0  6 17 23 22 21 26  3                   0.001515170
 -17356722.394 8 -13526808.203 9  20966595.130          -6.745
 -12765198.030 7 -10423459.046 8  21606306.647       -1630.011
  -8700876.803 6  -6782992.000 5  23465769.596         -41.506
  -3347510.341 5  -2660557.531 5  24362721.263       -3026.620
  -4134070.779 6  -3236694.427 5  22958225.178        -128.161
 -16200544.605 8 -12118027.262 8  21024425.391         141.739
 93  5 11  5  1  0.0010000  0  6 17 23 22 21 26  3                   0.001519430
 -17356829.960 8 -13526892.002 9  20966574.914          -0.324
 -12813932.887 7 -10461434.236 8  21597033.004       -1618.946
  -8701867.628 6  -6783764.070 5  23465579.458         -24.535
  -3438240.272 5  -2731256.100 5  24345455.035       -3022.121
  -4137661.762 6  -3239492.586 5  22957541.647        -111.229
 -16196093.078 8 -12114558.529 8  21025272.475         154.742
 93  5 11  5  1 30.0010000  0  6 17 23 22 21 26  3                   0.001523690
 -17356736.159 8 -13526818.922 9  20966592.480           6.469
 -12862326.938 7 -10499143.848 8  21587823.441       -1607.353
  -8702350.979 6  -6784140.663 5  23465488.669          -7.900
  -3528833.333 5  -2801848.035 5  24328214.014       -3017.379
  -4140757.482 6  -3241904.833 5  22956952.041         -95.323
 -16191251.234 8 -12110785.667 8  21026193.988         167.663
 93  5 11  5  2  0.0010000  0  6 17 23 22 21 26  3                   0.001527940
 -17356432.517 8 -13526582.296 9  20966650.259          13.700
 -12910372.617 7 -10536582.000 8  21578680.401       -1595.575
  -8702336.159 6  -6784129.118 5  23465491.315           8.801
  -3619275.749 5  -2872322.655 5  24311005.640       -3012.247
  -4143376.435 6  -3243945.580 5  22956453.477         -79.315
 -16186022.413 8 -12106711.258 8  21027188.921         180.564
 93  5 11  5  2 30.0010000  0  6 17 23 22 21 26  3                   0.001532150
 -17355916.481 8 -13526180.184 9  20966748.493          20.695
 -12958053.765 7 -10573736.100 8  21569606.990       -1582.981
  -8701826.841 6  -6783732.269 5  23465588.551          25.143
  -3709578.650 5  -2942688.455 5  24293822.401       -3007.765
  -4145515.430 6  -3245612.321 5  22956045.418         -63.258
 -16180410.219 8 -12102338.120 8  21028256.533         193.405
 93  5 11  5  3  0.0010000  0  6 17 23 22 21 26  3                   0.001536300
 -17355192.495 8 -13525616.036 9  20966886.696          27.729
 -13005340.083 7 -10610582.567 8  21560608.554       -1569.333
  -8700833.810 6  -6782958.439 5  23465777.183          41.072
  -3799741.507 5  -3012945.136 5  24276663.827       -3002.898
  -4147177.731 6  -3246907.602 6  22955729.148         -47.592
 -16174414.669 8 -12097666.261 8  21029397.539         206.178
 93  5 11  5  3 30.0010000  0  6 17 23 22 21 26  3                   0.001540390
 -17354260.159 8 -13524889.525 9  20967063.773          34.234
 -13052208.279 7 -10647103.213 8  21551689.755       -1555.351
  -8699360.979 6  -6781810.772 5  23466057.580          57.099
  -3889755.894 5  -3083086.146 5  24259535.224       -2998.249
  -4148372.539 6  -3247838.621 6  22955502.116         -32.026
 -16168032.728 8 -12092693.334 8  21030611.901         219.054
 93  5 11  5  4  0.0010000  0  6 17 23 22 21 26  3                   0.001544410
 -17353141.002 8 -13524017.436 9  20967277.206          40.430
 -13098668.840 7 -10683306.222 8  21542848.715       -1541.871
  -8697404.190 6  -6780285.978 5  23466429.377          73.362
  -3979643.925 5  -3153128.762 5  24242430.446       -2994.305
  -4149094.004 6  -3248400.780 6  22955364.977         -15.909
 -16161265.533 8 -12087420.191 8  21031899.768         231.922
 93  5 11  5  4 30.0010000  0  6 17 23 22 21 26  3                   0.001548360
 -17351847.111 8 -13523009.204 9  20967523.526          45.947
 -13144732.026 7 -10719199.566 8  21534083.414       -1529.043
  -8694968.907 6  -6778388.383 5  23466893.369          89.058
  -4069428.042 5  -3223090.352 5  24225344.562       -2991.043
  -4149337.097 6  -3248590.227 5  22955318.965          -0.218
 -16154118.525 8 -12081851.086 8  21033259.788         244.350
 93  5 11  5  5  0.0010000  0  6 17 23 22 21 26  3                   0.001552270
 -17350387.781 8 -13521872.055 9  20967801.144          51.198
 -13190428.016 7 -10754806.796 8  21525387.584       -1517.681
  -8692057.675 6  -6776119.882 5  23467447.595         105.135
  -4159103.186 6  -3292966.995 5  24208280.931       -2987.451
  -4149115.384 6  -3248417.447 5  22955361.407          15.140
 -16146602.751 8 -12075994.649 8  21034690.206         256.458
 93  5 11  5  5 30.0010000  0  6 17 23 22 21 26  3                   0.001556140
 -17348786.141 8 -13520624.017 9  20968106.121          55.379
 -13235805.075 7 -10790165.511 8  21516752.532       -1507.579
  -8688661.197 6  -6773473.264 5  23468094.237         121.156
  -4248687.163 5  -3362772.603 5  24191233.828       -2985.039
  -4148421.325 6  -3247876.603 6  22955492.905          31.043
 -16138724.234 8 -12069855.544 8  21036189.430         268.395
 93  5 11  5  6  0.0010000  0  6 17 23 22 21 26  3                   0.001560010
 -17347054.172 8 -13519274.417 9  20968435.545          60.189
 -13280878.932 7 -10825287.981 8  21508175.460       -1497.376
  -8684783.093 6  -6770451.363 5  23468832.496         137.371
  -4338189.999 5  -3432515.045 5  24174202.546       -2981.663
  -4147240.408 6  -3246956.434 6  22955717.755          47.531
 -16130484.683 8 -12063435.124 8  21037757.264         280.549
 93  5 11  5  6 30.0010000  0  6 17 23 22 21 26  3                   0.001563870
 -17345165.928 8 -13517803.046 9  20968794.637          65.599
 -13325642.300 7 -10860168.488 8  21499656.929       -1487.048
  -8680410.271 6  -6767043.984 5  23469663.964         153.996
  -4427569.752 5  -3502161.547 5  24157194.103       -2977.011
  -4145568.421 6  -3245653.566 6  22956036.202          63.711
 -16121873.193 8 -12056724.858 8  21039396.120         293.235
 93  5 11  5  7  0.0010000  0  6 17 23 22 21 26  3                   0.001567750
 -17343112.841 8 -13516203.224 9  20969185.135          71.247
 -13370102.700 7 -10894812.932 8  21491196.742       -1476.932
  -8675542.759 6  -6763251.076 5  23470589.549         170.373
  -4516806.244 5  -3571696.362 5  24140213.387       -2972.231
  -4143411.049 6  -3243972.469 5  22956446.613          80.127
 -16112880.812 8 -12049717.818 8  21041107.532         306.064
 93  5 11  5  7 30.0010000  0  6 17 23 22 21 26  3                   0.001571610
 -17340887.734 8 -13514469.371 9  20969608.613          77.250
 -13414244.607 7 -10929209.188 8  21482796.688       -1465.547
  -8670201.454 6  -6759089.027 5  23471605.393         185.577
  -4605904.550 5  -3641123.570 5  24123256.715       -2967.492
  -4140762.234 6  -3241908.456 5  22956951.061          96.303
 -16103502.173 8 -12042409.791 8  21042892.099         318.958
 93  5 11  5  8  0.0010000  0  6 17 23 22 21 26  3                   0.001575420
 -17338466.856 8 -13512582.957 9  20970069.182          84.004
 -13458026.221 7 -10963324.704 8  21474465.645       -1453.333
  -8664407.560 6  -6754574.347 5  23472708.474         200.492
  -4694852.502 5  -3710433.639 5  24106330.676       -2962.512
  -4137630.117 6  -3239467.871 5  22957547.080         112.208
 -16093731.755 8 -12034796.473 8  21044751.412         332.038
 93  5 11  5  8 30.0010000  0  6 17 23 22 21 26  3                   0.001579170
 -17335853.550 8 -13510546.591 9  20970566.409          89.994
 -13501444.661 7 -10997157.228 8  21466203.145       -1441.226
  -8658180.207 6  -6749721.816 5  23473893.205         214.428
  -4783658.849 5  -3779633.340 5  24089430.643       -2958.235
  -4134027.229 6  -3236660.393 5  22958232.435         127.987
 -16083575.274 8 -12026882.325 8  21046684.455         344.756
 93  5 11  5  9  0.0010000  0  6 17 23 22 21 26  3                   0.001582850
 -17333061.110 8 -13508370.673 9  20971098.020          96.137
 -13544487.243 7 -11030696.886 8  21458012.527       -1428.134
  -8651535.864 6  -6744544.408 5  23475158.776         228.487
  -4872351.693 5  -3848744.556 5  24072553.530       -2954.567
  -4129939.237 6  -3233474.946 6  22959010.856         144.508
 -16073035.226 8 -12018669.314 8  21048689.996         357.681
 93  5 11  5  9 30.0010000  0  6 17 23 22 21 26  3                   0.001586430
 -17330092.251 8 -13506057.252 9  20971663.119         101.870
 -13587131.695 7 -11063926.296 8  21449897.087       -1414.959
  -8644472.854 6  -6739040.785 5  23476502.182         242.479
  -4960938.720 5  -3917773.355 5  24055693.861       -2951.202
  -4125362.086 6  -3229908.345 6  22959882.115         160.682
 -16062113.456 8 -12010158.834 8  21050768.087         370.211
 93  5 11  5 10  0.0010000  0  6 17 23 22 21 26  3                   0.001589960
 -17326947.332 8 -13503606.661 9  20972261.617         107.803
 -13629393.888 7 -11096857.856 8  21441854.533       -1402.592
  -8636970.498 6  -6733194.780 5  23477929.507         257.931
  -5049418.111 5  -3986718.292 5  24038857.932       -2947.130
  -4120291.984 6  -3225957.595 6  22960847.276         177.494
 -16050810.328 8 -12001351.209 8  21052918.966         383.219
 93  5 11  5 10 30.0010000  0  6 17 23 22 21 26  3                   0.001593440
 -17323629.510 8 -13501021.339 9  20972892.999         113.653
 -13671294.455 7 -11129507.628 8  21433881.132       -1390.581
  -8629000.208 6  -6726984.161 5  23479445.587         273.696
  -5137767.134 5  -4055561.645 5  24022046.304       -2942.551
  -4114712.894 6  -3221610.250 5  22961907.850         194.652
 -16039119.204 8 -11992241.231 8  21055144.109         396.198
 93  5 11  5 11  0.0010000  0  6 17 23 22 21 26  3                   0.001596910
 -17320137.741 8 -13498300.468 9  20973557.249         119.283
 -13712846.041 7 -11161885.470 8  21425974.227       -1379.361
  -8620557.245 6  -6720405.258 5  23481052.876         289.488
  -5225979.884 6  -4124298.748 5  24005259.730       -2937.973
  -4108632.044 6  -3216871.943 5  22963064.771         210.944
 -16027042.763 8 -11982831.023 8  21057441.784         408.934
 93  5 11  5 11 30.0010000  0  6 17 23 22 21 26  3                   0.001600380
 -17316474.635 8 -13495446.098 9  20974254.176         124.898
 -13754058.689 7 -11193999.180 8  21418132.037       -1368.365
  -8611626.047 6  -6713445.887 5  23482754.018         305.925
  -5314043.567 6  -4192919.720 5  23988502.767       -2933.029
  -4102061.728 6  -3211752.226 5  22964315.258         227.192
 -16014576.588 8 -11973117.116 8  21059814.006         421.922
 93  5 11  5 12  0.0010000  0  6 17 23 22 21 26  3                   0.001603830
 -17312648.433 8 -13492464.642 9  20974982.421         129.851
 -13794948.853 7 -11225861.624 8  21410351.134       -1357.580
  -8602201.282 6  -6706101.895 5  23484547.831         322.264
  -5401967.499 5  -4261431.877 5  23971771.696       -2928.676
  -4095006.212 6  -3206254.394 6  22965657.752         243.022
 -16001722.405 8 -11963100.874 8  21062259.980         434.730
 93  5 11  5 12 30.0010000  0  6 17 23 22 21 26  3                   0.001607250
 -17308682.821 8 -13489374.540 9  20975737.091         134.628
 -13835506.822 7 -11257465.201 8  21402632.898       -1346.194
  -8592303.259 6  -6698389.148 5  23486429.997         337.614
  -5489767.819 5  -4329847.620 5  23955063.062       -2924.887
  -4087486.559 6  -3200394.905 6  22967088.446         258.292
 -15988488.467 8 -11952788.708 8  21064778.607         447.420
 93  5 11  5 13  0.0010000  0  6 17 23 22 21 26  3                   0.001610590
 -17304580.468 8 -13486177.896 9  20976517.719         138.719
 -13875726.583 8 -11288805.268 8  21394979.333       -1335.179
  -8581954.367 6  -6690325.104 5  23488399.260         352.260
  -5577478.989 5  -4398193.886 5  23938372.088       -2922.390
  -4079523.853 6  -3194190.211 6  22968603.002         272.612
 -15974878.275 8 -11942183.368 8  21067368.663         459.696
 93  5 11  5 13 30.0010000  0  6 17 23 22 21 26  3                   0.001613860
 -17300352.780 8 -13482883.581 9  20977322.062         143.252
 -13915608.505 7 -11319882.045 8  21387390.318       -1323.611
  -8571171.132 6  -6681922.564 5  23490451.489         366.387
  -5665110.757 5  -4466478.346 5  23921695.966       -2919.645
  -4071124.021 6  -3187644.890 6  22970202.433         287.239
 -15960897.432 8 -11931289.190 8  21070029.282         472.056
 93  5 11  5 14  0.0010000  0  6 17 23 22 21 26  3                   0.001617030
 -17295976.049 8 -13479473.139 9  20978154.915         148.464
 -13955131.752 7 -11350679.375 8  21379869.495       -1311.264
  -8559968.687 6  -6673193.400 5  23492583.093         380.367
  -5752640.980 5  -4534683.709 5  23905040.005       -2915.654
  -4062277.090 6  -3180751.154 6  22971885.451         302.456
 -15946535.456 8 -11920098.045 8  21072761.940         485.121
 93  5 11  5 14 30.0010000  0  6 17 23 22 21 26  3                   0.001620110
 -17291435.424 8 -13475934.973 9  20979018.938         154.421
 -13994279.887 7 -11381184.403 8  21372419.833       -1298.596
  -8548350.375 6  -6664140.190 5  23494793.343         394.457
  -5840034.028 5  -4602782.088 5  23888409.597       -2910.407
  -4052967.038 6  -3173496.563 5  22973657.017         318.215
 -15931778.308 8 -11908598.970 8  21075569.978         498.569
 93  5 11  5 15  0.0010000  0  6 17 23 22 21 26  3                   0.001623140
 -17286717.124 8 -13472258.374 9  20979916.977         160.019
 -14033052.860 7 -11411397.085 8  21365040.809       -1286.429
  -8536298.049 6  -6654748.781 5  23497087.146         409.052
  -5927261.857 6  -4670751.735 5  23871810.446       -2904.621
  -4043180.152 6  -3165870.443 5  22975519.989         334.218
 -15916616.692 8 -11896784.728 8  21078454.700         511.905
 93  5 11  5 15 30.0010000  0  6 17 23 22 21 26  3                   0.001626140
 -17281833.049 8 -13468452.589 9  20980846.554         165.534
 -14071464.577 8 -11441328.284 8  21357731.628       -1274.600
  -8523806.547 6  -6645015.122 5  23499464.380         423.565
  -6014312.789 5  -4738583.551 5  23855244.662       -2898.854
  -4032909.138 6  -3157867.051 5  22977475.572         350.231
 -15901060.586 8 -11884663.081 7  21081414.839         524.732
 93  5 11  5 16  0.0010000  0  6 17 23 22 21 26  3                   0.001629090
 -17276792.221 8 -13464524.661 9  20981805.648         170.438
 -14109534.113 7 -11470992.853 8  21350487.754       -1263.470
  -8510880.271 6  -6634942.704 5  23501924.602         438.516
  -6101199.391 5  -4806287.420 5  23838710.653       -2893.596
  -4022157.479 6  -3149489.116 5  22979520.731         366.548
 -15885121.019 8 -11872242.635 7  21084448.189         537.732
 93  5 11  5 16 30.0010000  0  6 17 23 22 21 26  3                   0.001632040
 -17271604.748 8 -13460482.473 9  20982792.974         175.483
 -14147274.409 7 -11500400.865 8  21343305.386       -1252.499
  -8497496.464 6  -6624513.808 5  23504470.594         453.826
  -6187933.129 5  -4873872.044 5  23822204.780       -2888.718
  -4010914.030 6  -3140727.995 5  22981660.878         382.994
 -15868792.424 8 -11859519.051 7  21087555.827         550.749
 93  5 11  5 17  0.0010000  0  6 17 23 22 21 26  3                   0.001634960
 -17266255.996 8 -13456314.595 9  20983810.460         181.278
 -14184684.511 7 -11529551.571 8  21336186.115       -1241.275
  -8483652.706 6  -6613726.416 5  23507104.450         469.068
  -6274527.718 6  -4941348.265 5  23805725.807       -2884.210
  -3999176.203 6  -3131581.615 5  22983894.350         399.748
 -15852067.966 8 -11846487.003 7  21090738.616         564.164
 93  5 11  5 17 30.0010000  0  6 17 23 22 21 26  3                   0.001637850
 -17260726.084 8 -13452005.568 9  20984862.992         187.523
 -14221748.722 8 -11558432.749 8  21329133.098       -1229.469
  -8469365.031 6  -6602593.177 5  23509823.676         483.533
  -6360983.158 5  -5008716.078 5  23789273.749       -2879.450
  -3986934.228 6  -3122042.399 6  22986223.869         416.500
 -15834938.417 8 -11833139.299 7  21093998.088         577.759
 93  5 11  5 18  0.0010000  0  6 17 23 22 21 26  3                   0.001640700
 -17255007.912 8 -13447549.833 9  20985951.110         193.760
 -14258456.154 7 -11587035.939 8  21322148.363       -1217.553
  -8454638.343 6  -6591117.904 5  23512626.577         498.466
  -6447299.561 6  -5075975.623 5  23772849.138       -2874.778
  -3974190.981 6  -3112112.578 6  22988648.641         433.146
 -15817394.899 8 -11819469.026 7  21097336.358         591.739
 93  5 11  5 18 30.0010000  0  6 17 23 22 21 26  3                   0.001643500
 -17249096.784 8 -13442943.755 9  20987076.029         200.348
 -14294798.365 8 -11615354.522 8  21315232.472       -1205.027
  -8439467.754 6  -6579296.662 5  23515512.310         512.871
  -6533473.280 6  -5143123.894 5  23756450.231       -2870.082
  -3960958.098 6  -3101801.243 6  22991168.367         449.077
 -15799430.767 8 -11805471.000 7  21100754.751         605.635
 93  5 11  5 19  0.0010000  0  6 17 23 22 21 26  3                   0.001646200
 -17242985.828 8 -13438181.959 9  20988239.055         207.131
 -14330749.929 8 -11643368.711 8  21308391.258       -1191.546
  -8423867.401 6  -6567140.517 5  23518481.010         527.523
  -6619503.363 6  -5210160.275 5  23740078.593       -2864.953
  -3947242.916 6  -3091114.077 6  22993777.861         465.559
 -15781043.165 8 -11791142.987 7  21104253.699         620.149
 93  5 11  5 19 30.0010000  0  6 17 23 22 21 26  3                   0.001648860
 -17236684.177 8 -13433271.570 9  20989438.133         212.962
 -14366293.513 7 -11671064.980 8  21301627.460       -1178.050
  -8407813.242 6  -6554630.794 5  23521536.330         542.951
  -6705372.355 6  -5277071.066 5  23723738.759       -2859.587
  -3933026.729 6  -3080036.500 6  22996483.315         482.148
 -15762216.139 8 -11776472.572 7  21107836.379         634.741
 93  5 11  5 20  0.0010000  0  7 17 23 28 22 21 26  3                0.001651450
 -17230215.017 8 -13428230.653 9  20990669.304         218.414
 -14401433.380 8 -11698446.686 9  21294940.657       -1164.604
  -1043702.80115   -826714.96115  25183836.996       -3458.212
  -8391285.153 6  -6541751.794 5  23524681.077         558.776
  -6791082.204 6  -5343857.972 5  23707428.939       -2854.268
  -3918312.468 6  -3068570.845 6  22999282.659         498.827
 -15742948.780 8 -11761459.054 7  21111502.840         649.523
 93  5 11  5 20 30.0010000  0  7 17 23 28 22 21 26  3                0.001654060
 -17223582.267 8 -13423062.273 9  20991931.538         223.823
 -14436166.572 7 -11725511.469 9  21288330.995       -1150.945
  -1147440.801 5   -907549.648 5  25164094.308       -3457.592
  -8374290.722 6  -6528509.343 5  23527916.504         574.234
  -6876619.773 6  -5410510.547 5  23691151.284       -2848.137
  -3903095.497 6  -3056713.457 5  23002178.375         515.803
 -15723240.293 7 -11746101.768 7  21115253.066         664.232
 93  5 11  5 21  0.0010000  0  7 17 23 28 22 21 26  3                0.001656680
 -17216785.619 8 -13417766.176 9  20993224.701         229.325
 -14470505.855 8 -11752269.352 9  21281796.198       -1138.502
  -1251162.495 5   -988371.706 5  25144355.669       -3457.059
  -8356824.180 6  -6514899.060 5  23531240.834         590.489
  -6961967.562 6  -5477015.264 5  23674910.936       -2841.643
  -3887358.046 6  -3044450.503 6  23005172.972         533.360
 -15703087.628 8 -11730398.403 7  21119088.110         679.037
 93  5 11  5 21 30.0010000  0  7 17 23 28 22 21 26  3                0.001659300
 -17209816.374 8 -13412335.586 9  20994551.046         235.474
 -14504475.703 7 -11778739.357 9  21275332.063       -1126.290
  -1354859.268 5  -1069174.439 5  25124623.423       -3456.084
  -8338856.877 6  -6500898.592 5  23534659.707         607.246
  -7047113.944 6  -5543363.060 5  23658709.376       -2834.767
  -3871091.931 6  -3031775.582 6  23008267.430         550.898
 -15682488.310 8 -11714346.982 7  21123008.215         693.946
 93  5 11  5 22  0.0010000  0  7 17 23 28 22 21 26  3                0.001661910
 -17202650.597 8 -13406751.862 9  20995914.331         242.256
 -14538088.818 7 -11804931.364 9  21268935.963       -1114.813
  -1458525.751 5  -1149953.416 5  25104898.378       -3455.223
  -8320395.515 6  -6486513.117 5  23538172.192         623.121
  -7132062.389 6  -5609556.597 5  23642543.242       -2828.467
  -3854304.042 6  -3018694.104 6  23011461.987         568.203
 -15661444.088 8 -11697948.885 7  21127012.963         708.600
 93  5 11  5 22 30.0010000  0  7 17 23 28 22 21 26  3                0.001664520
 -17195272.912 8 -13401003.010 9  20997318.221         249.553
 -14571363.443 7 -11830859.625 9  21262603.766       -1103.441
  -1562180.132 5  -1230722.946 5  25085174.023       -3455.183
  -8301461.236 6  -6471759.130 5  23541775.247         639.364
  -7216820.183 6  -5675601.561 5  23626413.368       -2821.958
  -3836991.885 6  -3005204.114 5  23014755.966         585.999
 -15639958.577 8 -11681206.919 7  21131101.912         723.556
 93  5 11  5 23  0.0010000  0  7 17 23 28 22 21 26  3                0.001667100
 -17187677.667 8 -13395084.635 9  20998763.489         256.792
 -14604295.099 7 -11856520.643 9  21256337.045       -1091.714
  -1665836.238 5  -1311494.029 5  25065449.630       -3455.155
  -8282031.647 6  -6456619.257 5  23545471.868         655.955
  -7301390.558 6  -5741500.499 5  23610320.273       -2815.889
  -3819149.243 6  -2991300.736 5  23018151.526         603.552
 -15618023.537 8 -11664114.696 7  21135276.045         738.598
 93  5 11  5 23 30.0010000  0  7 17 23 28 22 21 26  3                0.001669660
 -17179882.205 8 -13389010.228 9  21000246.532         263.002
 -14636866.040 8 -11881900.560 9  21250139.135       -1079.499
  -1769499.684 5  -1392270.638 5  25045723.190       -3455.629
  -8262126.958 6  -6441109.089 5  23549259.906         670.954
  -7385788.575 6  -5807265.131 5  23594259.782       -2810.337
  -3800788.594 6  -2976993.731 6  23021645.739         620.604
 -15595647.469 8 -11646678.795 7  21139533.785         753.084
 93  5 11  5 24  0.0010000  0  7 17 23 28 22 21 26  3                0.001672180
 -17171897.584 8 -13382788.452 9  21001766.200         269.113
 -14669062.846 7 -11906988.983 9  21244012.507       -1066.925
  -1873179.410 5  -1473059.942 5  25025994.477       -3456.420
  -8241780.242 6  -6425254.513 5  23553132.306         685.421
  -7470006.211 6  -5872889.273 5  23578233.210       -2804.269
  -3781910.814 6  -2962283.761 6  23025238.050         637.882
 -15572832.459 7 -11628900.867 7  21143875.213         767.627
 93  5 11  5 24 30.0010000  0  7 17 23 28 22 21 26  3                0.001674680
 -17163732.578 8 -13376426.096 9  21003320.003         275.269
 -14700868.216 7 -11931772.371 9  21237960.109       -1053.235
  -1976873.763 5  -1553860.692 5  25006263.151       -3456.325
  -8220985.602 6  -6409050.918 5  23557089.958         701.145
  -7554028.940 6  -5938361.450 5  23562245.590       -2797.347
  -3762513.421 6  -2947168.901 6  23028928.545         655.307
 -15549575.611 8 -11610778.637 7  21148300.827         782.703
 93  5 11  5 25  0.0010000  0  7 17 23 28 22 21 26  3                0.001677160
 -17155381.440 8 -13369918.710 9  21004909.044         281.585
 -14732257.816 7 -11956231.782 9  21231986.382       -1039.373
  -2080556.394 5  -1634652.336 5  24986532.400       -3455.492
  -8199725.545 6  -6392484.641 5  23561135.052         716.079
  -7637845.266 6  -6003672.832 5  23546295.289       -2790.460
  -3742602.983 6  -2931654.264 6  23032718.573         672.177
 -15525869.198 8 -11592306.094 7  21152811.495         797.547
 93  5 11  5 25 30.0010000  0  7 17 23 28 22 21 26  3                0.001679610
 -17146832.626 8 -13363257.284 9  21006535.610         288.434
 -14763226.116 7 -11980362.909 9  21226093.319       -1025.260
  -2184193.757 5  -1715408.640 5  24966810.721       -3453.642
  -8178021.164 6  -6375572.140 5  23565265.097         731.021
  -7721451.205 6  -6068820.298 5  23530385.349       -2783.218
  -3722176.575 6  -2915737.565 6  23036604.939         689.464
 -15501709.795 8 -11573480.589 7  21157409.322         812.896
 93  5 11  5 26  0.0010000  0  7 17 23 28 22 21 26  3                0.001682040
 -17138065.707 8 -13356425.918 9  21008204.033         295.985
 -14793773.079 7 -12004165.721 9  21220280.687       -1011.144
  -2287772.672 5  -1796119.402 5  24947100.047       -3451.478
  -8155863.496 6  -6358306.446 5  23569481.930         746.405
  -7804845.247 6  -6133802.596 5  23514517.258       -2776.391
  -3701236.316 6  -2899420.488 6  23040590.991         706.560
 -15477086.553 7 -11554293.663 7  21162094.737         828.480
 93  5 11  5 26 30.0010000  0  7 17 23 28 22 21 26  3                0.001684430
 -17129069.609 8 -13349415.965 9  21009915.846         303.707
 -14823886.843 7 -12027630.979 9  21214550.393        -996.649
  -2391275.474 6  -1876770.967 5  24927403.837       -3448.870
  -8133232.997 6  -6340672.308 5  23573788.884         762.175
  -7888025.242 6  -6198618.144 5  23498687.305       -2769.115
  -3679779.218 6  -2882700.654 6  23044673.616         723.824
 -15451989.329 8 -11534737.366 7  21166870.500         844.375
 93  5 11  5 27  0.0010000  0  7 17 23 28 22 21 26  3                0.001686800
 -17119840.495 9 -13342224.431 9  21011672.072         311.469
 -14853572.729 7 -12050762.822 9  21208901.264        -982.475
  -2494708.545 6  -1957368.084 5  24907720.836       -3446.589
  -8110139.813 6  -6322677.599 5  23578183.383         777.311
  -7970992.117 6  -6263267.624 5  23482898.840       -2761.983
  -3657803.478 6  -2865576.697 6  23048854.474         741.295
 -15426418.024 7 -11514811.676 7  21171736.661         860.143
 93  5 11  5 27 30.0010000  0  7 17 23 28 22 21 26  3                0.001689130
 -17110386.433 8 -13334857.634 9  21013471.027         318.668
 -14882838.091 7 -12073566.981 9  21203331.770        -968.729
  -2598080.678 6  -2037917.667 5  24888049.562       -3445.286
  -8086591.748 6  -6304328.464 5  23582664.497         792.633
  -8053748.134 6  -6327752.760 5  23467151.040       -2755.178
  -3635306.538 6  -2848046.608 6  23053134.508         758.304
 -15400374.159 7 -11494517.762 7  21176692.881         875.724
 93  5 11  5 28  0.0010000  0  7 17 23 28 22 21 26  3                0.001691420
 -17100717.846 8 -13327323.663 9  21015310.822         325.789
 -14911699.065 7 -12096056.057 9  21197839.752        -955.367
  -2701427.392 6  -2118447.581 5  24868383.125       -3444.499
  -8062578.103 6  -6285616.586 5  23587234.933         808.332
  -8136298.202 6  -6392077.419 5  23451442.283       -2748.220
  -3612301.820 6  -2830120.870 5  23057512.675         775.463
 -15373864.703 7 -11473861.047 7  21181737.508         891.256
 93  5 11  5 28 30.0010000  0  7 17 23 28 22 21 26  3                0.001693680
 -17090844.788 8 -13319630.357 9  21017189.620         332.434
 -14940161.657 7 -12118234.683 9  21192423.651        -942.202
  -2804748.868 6  -2198957.777 5  24848721.498       -3443.569
  -8038093.385 6  -6266537.605 5  23591894.064         823.938
  -8218641.827 6  -6456241.230 5  23435772.184       -2741.534
  -3588777.385 6  -2811790.149 5  23061989.484         792.883
 -15346892.409 7 -11452843.671 7  21186869.936         906.732
 93  5 11  5 29  0.0010000  0  7 17 23 28 22 21 26  3                0.001695920
 -17080780.139 8 -13311787.754 9  21019104.886         338.436
 -14968236.620 7 -12140111.279 9  21187081.129        -929.460
  -2908043.434 6  -2279446.978 5  24829065.091       -3442.623
  -8013143.354 6  -6247095.984 5  23596641.558         839.361
  -8300802.054 6  -6520262.150 5  23420138.055       -2735.856
  -3564737.189 6  -2793057.515 6  23066565.639         809.753
 -15319456.650 7 -11431465.160 7  21192090.590         922.048
 93  5 11  5 29 30.0010000  0  7 17 23 28 22 21 26  3                0.001698120
 -17070537.334 8 -13303806.354 9  21021054.026         344.432
 -14995926.963 7 -12161688.155 9  21181811.908        -916.645
  -3011299.811 5  -2359906.377 5  24809414.979       -3441.311
  -7987725.731 6  -6227290.104 5  23601477.386         854.948
  -8382788.808 6  -6584147.878 5  23404537.186       -2729.904
  -3540183.248 6  -2773924.558 6  23071237.954         827.072
 -15291554.802 7 -11409723.458 7  21197399.916         937.705
 93  5 11  5 30  0.0010000  0  7 17 23 28 22 21 26  3                0.001700290
 -17060113.021 8 -13295683.508 9  21023037.772         350.482
 -15023234.475 7 -12182966.739 9  21176615.855        -903.907
  -3114515.303 5  -2440333.908 5  24789773.678       -3439.635
  -7961847.802 6  -6207125.508 5  23606402.276         870.001
  -8464597.180 6  -6647894.608 5  23388968.876       -2723.880
  -3515110.533 6  -2754387.399 6  23076009.369         844.507
 -15263185.887 7 -11387617.803 7  21202798.717         953.265
 93  5 11  5 30 30.0010000  0  7 17 23 28 22 21 26  3                0.001702450
 -17049501.510 8 -13287414.785 9  21025056.818         357.067
 -15050156.034 7 -12203944.566 9  21171492.972        -890.764
  -3217666.620 5  -2520711.587 5  24770144.905       -3437.121
  -7935520.551 6  -6186610.773 5  23611412.190         885.199
  -8546219.268 6  -6711496.177 5  23373436.316       -2717.371
  -3489518.797 6  -2734445.766 6  23080879.271         861.601
 -15234344.747 7 -11365144.184 7  21208287.079         969.336
 93  5 11  5 31  0.0010000  0  7 17 23 28 22 21 26  3                0.001704590
 -17038688.821 8 -13278989.305 9  21027114.471         364.086
 -15076686.545 8 -12224617.676 9  21166444.196        -877.765
  -3320753.393 5  -2601038.815 5  24750526.753       -3435.165
  -7908739.296 6  -6165742.252 5  23616507.643         900.418
  -8627633.007 6  -6774935.437 5  23357944.781       -2709.843
  -3463421.718 6  -2714110.357 6  23085845.290         878.382
 -15205023.602 7 -11342296.543 7  21213866.786         985.270
 93  5 11  5 31 30.0010000  0  7 17 23 28 22 21 26  3                0.001706710
 -17027648.512 8 -13270386.460 9  21029215.488         372.000
 -15102818.981 7 -12244980.592 9  21161471.068        -864.449
  -3423770.710 5  -2681311.928 5  24730922.722       -3432.645
  -7881491.053 6  -6144509.905 5  23621693.411         916.204
  -8708796.676 6  -6838179.810 5  23342499.052       -2701.194
  -3436801.021 6  -2693366.972 6  23090911.306         896.287
 -15175218.299 7 -11319071.639 7  21219538.468        1001.542
 93  5 11  5 32  0.0010000  0  7 17 23 28 22 21 26  3                0.001708840
 -17016371.876 8 -13261599.476 9  21031361.373         379.514
 -15128551.735 8 -12265032.047 9  21156574.257        -851.222
  -3526706.618 5  -2761521.633 5  24711336.288       -3429.801
  -7853767.499 6  -6122907.121 5  23626968.368         932.091
  -8789697.110 6  -6901219.049 5  23327104.542       -2692.412
  -3409645.047 6  -2672206.465 6  23096078.879         913.998
 -15144925.272 7 -11295466.684 7  21225303.049        1017.705
 93  5 11  5 32 30.0010000  0  7 17 23 28 22 21 26  3                0.001710980
 -17004873.988 8 -13252640.069 9  21033549.599         386.802
 -15153886.015 8 -12284773.031 9  21151753.054        -837.678
  -3629556.107 5  -2841664.084 5  24691765.544       -3426.833
  -7825558.651 6  -6100926.192 5  23632336.530         948.287
  -8870339.840 6  -6964057.504 5  23311757.988       -2683.941
  -3381958.098 6  -2650632.192 6  23101347.699         931.832
 -15114144.864 8 -11271481.955 7  21231160.623        1033.979
 93  5 11  5 33  0.0010000  0  7 17 23 28 22 21 26  3                0.001713130
 -16993162.419 8 -13243514.158 9  21035778.034         393.791
 -15178808.780 7 -12304193.360 9  21147010.568        -824.058
  -3732308.705 5  -2921730.990 5  24672212.013       -3423.338
  -7796866.174 6  -6078568.523 5  23637797.921         964.317
  -8950731.017 6  -7026699.970 5  23296460.076       -2675.685
  -3353717.816 6  -2628626.776 6  23106720.893         950.716
 -15082875.090 8 -11247115.900 7  21237110.894        1050.294
 93  5 11  5 33 30.0010000  0  7 17 23 28 22 21 26  3                0.001715320
 -16981248.584 8 -13234230.644 9  21038045.213         400.267
 -15203321.296 7 -12323294.000 9  21142345.949        -810.336
  -3834946.629 5  -3001708.499 5  24652680.501       -3419.227
  -7767707.103 6  -6055847.159 5  23643345.658         979.432
  -9030879.520 6  -7089153.295 5  23281209.007       -2667.785
  -3324912.223 6  -2606180.891 5  23112202.255         969.305
 -15051114.628 7 -11222367.493 7  21243154.862        1066.811
 93  5 11  5 34  0.0010000  0  7 17 23 28 22 21 26  3                0.001717530
 -16969143.000 8 -13224797.735 9  21040349.009         406.830
 -15227423.307 7 -12342074.781 9  21137759.125        -796.442
  -3937465.771 6  -3081593.441 5  24633172.258       -3415.493
  -7738101.976 6  -6032778.237 5  23648978.924         994.159
  -9110791.121 6  -7151422.043 5  23266002.551       -2659.677
  -3295562.535 6  -2583310.999 6  23117787.622         987.205
 -15018858.678 7 -11197232.979 7  21249293.080        1083.422
 93  5 11  5 34 30.0010000  0  7 17 23 28 22 21 26  3                0.001719740
 -16956825.269 8 -13215199.484 9  21042693.155         414.390
 -15251107.863 7 -12360530.248 9  21133252.074        -782.480
  -4039874.697 5  -3161392.623 5  24613684.341       -3411.872
  -7708062.294 6  -6009370.765 5  23654695.883        1008.447
  -9190456.861 6  -7213499.225 5  23250842.836       -2651.278
  -3265676.658 6  -2560023.282 6  23123474.948        1005.098
 -14986102.655 8 -11171708.824 7  21255526.424        1100.062
 93  5 11  5 35  0.0010000  0  7 17 23 28 22 21 26  3                0.001721940
 -16944277.444 8 -13205421.954 9  21045080.523         422.326
 -15274372.297 7 -12378658.374 9  21128824.991        -768.541
  -4142172.509 5  -3241105.098 5  24594216.938       -3408.093
  -7677591.188 6  -5985627.005 5  23660494.263        1023.184
  -9269854.580 6  -7275367.506 5  23235734.304       -2641.906
  -3235253.493 6  -2536316.910 5  23129264.112        1022.978
 -14952842.028 8 -11145791.441 7  21261855.894        1117.121
 93  5 11  5 35 30.0010000  0  7 17 23 28 22 21 26  3                0.001724140
 -16931490.187 8 -13195457.854 9  21047514.019         430.217
 -15297227.206 7 -12396467.367 9  21124476.160        -755.159
  -4244374.412 6  -3320742.848 5  24574768.408       -3405.333
  -7646685.335 6  -5961544.522 5  23666375.588        1037.515
  -9348974.865 6  -7337019.631 5  23220678.178       -2632.865
  -3204311.317 6  -2512206.126 5  23135152.746        1039.919
 -14919075.175 7 -11119479.614 7  21268281.166        1133.772
 93  5 11  5 36  0.0010000  0  7 17 23 28 22 21 26  3                0.001726330
 -16918460.238 8 -13185304.652 9  21049993.334         438.426
 -15319679.055 7 -12413962.296 9  21120203.968        -741.557
  -4346488.899 6  -3400312.499 5  24555336.974       -3402.287
  -7615329.967 6  -5937111.825 5  23672342.555        1052.881
  -9427828.636 6  -7398464.095 5  23205672.556       -2624.179
  -3172849.601 6  -2487690.514 5  23141138.835        1057.463
 -14884805.387 8 -11092775.886 7  21274802.289        1150.610
 93  5 11  5 36 30.0010000  0  7 17 23 28 22 21 26  3                0.001728500
 -16905175.808 8 -13174953.137 9  21052520.772         446.885
 -15341711.094 8 -12431130.114 9  21116011.689        -727.321
  -4448497.950 6  -3479800.049 5  24535925.165       -3398.278
  -7583504.590 6  -5912312.849 5  23678398.956        1068.787
  -9506421.340 6  -7459705.141 5  23190716.649       -2615.454
  -3140850.873 6  -2462756.433 5  23147227.817        1075.644
 -14850026.307 7 -11065675.321 7  21281420.869        1167.645
 93  5 11  5 37  0.0010000  0  7 17 23 28 22 21 26  3                0.001730670
 -16891642.359 8 -13164407.578 9  21055096.241         455.401
 -15363311.566 8 -12447961.626 9  21111901.186        -712.818
  -4550374.241 6  -3559184.113 5  24516538.737       -3393.473
  -7551196.873 6  -5887138.008 5  23684546.920        1085.147
  -9584757.063 6  -7520745.914 5  23175810.000       -2607.147
  -3108305.834 6  -2437396.660 5  23153420.400        1094.138
 -14814730.128 8 -11038171.796 7  21288137.228        1185.160
 93  5 11  5 37 30.0010000  0  7 17 23 28 22 21 26  3                0.001732850
 -16877854.338 8 -13153663.671 9  21057720.244         463.636
 -15384485.697 7 -12464460.943 9  21107871.564        -698.740
  -4652103.005 6  -3638453.154 5  24497179.964       -3388.437
  -7518398.490 6  -5861580.836 5  23690787.971        1101.440
  -9662854.058 6  -7581600.673 5  23160947.774       -2599.297
  -3075206.660 6  -2411605.114 5  23159719.283        1112.473
 -14778912.078 7 -11010261.634 7  21294953.210        1202.441
 93  5 11  5 38  0.0010000  0  7 17 23 28 22 21 26  3                0.001735030
 -16863817.133 8 -13142725.577 9  21060391.555         472.188
 -15405224.975 7 -12480621.412 9  21103925.197        -683.757
  -4753671.479 6  -3717597.338 5  24477850.999       -3382.953
  -7485112.321 6  -5835643.612 5  23697122.363        1117.504
  -9740713.743 6  -7642270.554 5  23146131.693       -2591.185
  -3041553.084 6  -2385381.526 5  23166123.408        1131.041
 -14742571.833 7 -10981944.577 7  21301868.373        1220.034
 93  5 11  5 38 30.0010000  0  7 17 23 28 22 21 26  3                0.001737200
 -16849536.594 8 -13131597.876 9  21063108.853         479.797
 -15425525.103 8 -12496439.680 9  21100061.821        -669.583
  -4855091.284 6  -3796625.733 5  24458551.481       -3378.433
  -7451363.425 6  -5809345.754 5  23703544.309        1132.494
  -9818330.405 6  -7702751.012 5  23131361.839       -2583.130
  -3007354.245 6  -2358733.053 5  23172632.090        1149.055
 -14705713.141 8 -10953223.521 7  21308882.529        1237.055
 93  5 11  5 39  0.0010000  0  7 17 23 28 22 21 26  3                0.001739380
 -16835029.231 8 -13120293.425 9  21065869.472         487.487
 -15445403.310 8 -12511929.181 9  21096279.410        -655.643
  -4956380.336 6  -3875552.223 5  24439277.326       -3374.116
  -7417158.384 6  -5782692.442 5  23710053.582        1147.908
  -9895701.303 6  -7763039.974 5  23116639.043       -2574.811
  -2972608.860 6  -2331658.740 5  23179243.511        1167.375
 -14668338.646 7 -10924100.532 7  21315994.666        1254.418
 93  5 11  5 39 30.0010000  0  7 17 23 28 22 21 26  3                0.001741550
 -16820295.002 8 -13108812.207 9  21068673.649         494.740
 -15464866.172 8 -12527095.036 9  21092575.623        -641.807
  -5057545.459 6  -3954382.058 5  24420026.077       -3370.129
  -7382502.305 6  -5755687.794 5  23716648.727        1162.397
  -9972818.477 6  -7823131.271 5  23101963.883       -2566.268
  -2937325.053 6  -2304164.851 5  23185957.354        1184.764
 -14630448.106 7 -10894575.443 7  21323204.971        1271.378
 93  5 11  5 40  0.0010000  0  7 17 23 28 22 21 26  3                0.001743720
 -16805331.718 8 -13097152.495 9  21071521.159         502.751
 -15483905.444 8 -12541930.827 9  21088952.592        -627.723
  -5158583.963 6  -4033113.251 5  24400799.604       -3365.947
  -7347409.326 6  -5728342.600 5  23723326.335        1177.082
 -10049672.675 6  -7883017.619 5  23087338.642       -2557.542
  -2901517.059 6  -2276262.518 5  23192771.459        1202.326
 -14592043.179 7 -10864649.533 7  21330512.784        1288.551
 93  5 11  5 40 30.0010000  0  7 17 23 28 22 21 26  3                0.001745890
 -16790129.113 8 -13085306.312 9  21074414.028         510.702
 -15502535.121 8 -12556447.457 9  21085407.385        -614.239
  -5259493.900 6  -4111744.317 5  24381598.711       -3361.301
  -7311866.501 6  -5700646.881 5  23730090.323        1192.482
 -10126260.218 6  -7942696.164 5  23072764.000       -2548.384
  -2865182.570 6  -2247949.924 5  23199685.459        1219.939
 -14553126.115 8 -10834324.558 7  21337918.636        1305.597
 93  5 11  5 41  0.0010000  0  7 17 23 28 22 21 26  3                0.001748050
 -16774683.945 8 -13073271.104 9  21077353.420         519.005
 -15520763.122 8 -12570651.074 9  21081938.377        -601.027
  -5360257.755 6  -4190261.612 5  24362423.554       -3356.371
  -7275866.600 6  -5672595.049 5  23736940.009        1207.461
 -10202580.086 6  -8002166.186 5  23058241.103       -2539.617
  -2828330.947 6  -2219234.356 5  23206697.765        1236.705
 -14513701.778 7 -10803604.298 7  21345420.814        1322.379
 93  5 11  5 41 30.0010000  0  7 17 23 28 22 21 26  3                0.001750210
 -16758983.738 8 -13061037.168 9  21080341.324         527.507
 -15538588.749 8 -12584541.150 9  21078546.836        -587.509
  -5460868.555 6  -4268659.514 5  24343277.039       -3351.241
  -7239418.277 6  -5644193.798 5  23743875.178        1222.266
 -10278626.247 6  -8061422.925 5  23043770.778       -2530.311
  -2790968.922 6  -2190121.088 5  23213807.514        1254.121
 -14473772.580 7 -10772490.646 7  21353019.134        1339.280
 93  5 11  5 42  0.0010000  0  7 17 23 28 22 21 26  3                0.001752370
 -16743036.948 8 -13048611.092 9  21083375.453         535.322
 -15556013.570 7 -12598118.940 9  21075230.791        -574.249
  -5561341.872 6  -4346950.320 5  24324158.137       -3347.203
  -7202527.813 6  -5615447.966 5  23750895.568        1236.907
 -10354400.680 6  -8120467.875 5  23029350.592       -2521.433
  -2753075.182 6  -2160593.486 5  23221018.762        1271.999
 -14433343.743 7 -10740987.667 7  21360712.446        1355.680
 93  5 11  5 42 30.0010000  0  7 17 23 28 22 21 26  3                0.001754530
 -16726876.422 8 -13036018.459 9  21086450.715         541.973
 -15573038.422 7 -12611385.033 9  21071990.884        -560.716
  -5661698.442 6  -4425150.260 5  24305061.400       -3343.302
  -7165214.219 6  -5586372.400 5  23757996.182        1250.475
 -10429911.413 6  -8179307.381 5  23014981.687       -2512.734
  -2714656.396 6  -2130656.757 5  23228330.103        1289.260
 -14392426.643 7 -10709104.208 7  21368498.725        1371.940
 93  5 11  5 43  0.0010000  0  7 17 23 28 22 21 26  3                0.001756680
 -16710516.797 8 -13023270.697 9  21089563.679         548.552
 -15589651.799 8 -12624330.501 9  21068829.443        -547.010
  -5761946.269 6  -4503265.373 5  24285984.125       -3340.090
  -7127504.210 6  -5556988.059 5  23765172.003        1263.532
 -10505165.612 6  -8237947.006 5  23000660.394       -2504.405
  -2675720.075 6  -2100316.748 5  23235739.264        1306.396
 -14351017.687 7 -10676837.492 7  21376378.973        1388.331
 93  5 11  5 43 30.0010000  0  7 17 23 28 22 21 26  3                0.001758810
 -16693962.211 8 -13010371.015 9  21092713.868         555.096
 -15605851.123 8 -12636953.349 9  21065746.628        -532.935
  -5862088.167 5  -4581297.922 5  24266927.271       -3336.153
  -7089397.774 6  -5527294.696 5  23772424.712        1276.983
 -10580171.543 6  -8296393.159 5  22986387.363       -2496.067
  -2636263.293 6  -2069571.182 5  23243247.238        1324.034
 -14309114.269 7 -10644185.479 7  21384353.191        1405.073
 93  5 11  5 44  0.0010000  0  7 17 23 28 22 21 26  3                0.001760910
 -16677211.177 8 -12997318.260 9  21095901.569         561.651
 -15621631.345 8 -12649249.602 9  21062743.886        -519.090
  -5962118.446 5  -4659243.543 5  24247891.856       -3332.372
  -7050890.056 6  -5497288.663 5  23779752.763        1290.136
 -10654942.052 6  -8354655.843 5  22972159.874       -2488.647
  -2596293.343 6  -2038425.755 5  23250852.578        1340.371
 -14266713.596 7 -10611146.004 7  21392421.513        1421.369
 93  5 11  5 44 30.0010000  0  7 17 23 28 22 21 26  3                0.001762970
 -16660257.159 8 -12984107.322 9  21099128.016         568.575
 -15637002.451 8 -12661227.077 9  21059818.862        -505.990
  -6062024.177 6  -4737092.148 5  24228879.505       -3328.040
  -7011981.084 6  -5466969.979 5  23787156.133        1303.638
 -10729488.302 6  -8412743.826 5  22957974.446       -2481.402
  -2555842.337 6  -2006905.495 5  23258549.944        1356.353
 -14223820.879 7 -10577723.101 7  21400583.615        1437.727
 93  5 11  5 45  0.0010000  0  7 17 23 28 22 21 26  3                0.001765000
 -16643086.542 8 -12970727.611 9  21102395.615         576.186
 -15651989.587 7 -12672905.343 9  21056966.976        -493.161
  -6161790.187 6  -4814831.813 5  24209894.880       -3322.888
  -6972659.147 6  -5436329.586 5  23794637.906        1317.918
 -10803815.875 6  -8470661.364 5  22943829.757       -2473.796
  -2514901.275 6  -1975003.342 5  23266340.773        1372.988
 -14180439.086 7 -10543919.112 7  21408839.021        1454.137
 93  5 11  5 45 30.0010000  0  7 17 23 28 22 21 26  3                0.001767020
 -16625691.201 8 -12957172.797 9  21105705.605         583.575
 -15666598.565 8 -12684288.979 9  21054187.059        -480.572
  -6261400.735 6  -4892450.371 5  24190940.775       -3317.795
  -6932911.365 6  -5405357.278 5  23802202.319        1331.912
 -10877917.926 6  -8528403.196 5  22929728.120       -2466.194
  -2473465.294 6  -1942715.562 5  23274226.280        1389.613
 -14136570.548 7 -10509735.852 7  21417186.741        1470.320
 93  5 11  5 46  0.0010000  0  7 17 23 28 22 21 26  3                0.001769020
 -16608066.903 8 -12943439.574 9  21109059.243         591.209
 -15680821.544 7 -12695371.802 9  21051480.564        -467.617
  -6360855.916 6  -4969947.865 5  24172016.323       -3312.590
  -6892741.111 6  -5374055.775 5  23809846.405        1346.005
 -10951783.362 6  -8585960.659 5  22915671.710       -2458.033
  -2431524.811 6  -1910034.667 5  23282208.669        1406.399
 -14092208.504 7 -10475168.013 7  21425628.357        1486.798
 93  5 11  5 46 30.0010000  0  7 17 23 28 22 21 26  3                0.001771030
 -16590217.727 8 -12929531.114 9  21112455.670         598.669
 -15694652.659 7 -12706149.278 9  21048848.275        -454.441
  -6460143.394 6  -5047314.709 5  24153122.369       -3306.595
  -6852148.750 6  -5342425.438 5  23817571.510        1360.140
 -11025390.712 6  -8643317.013 5  22901665.276       -2449.066
  -2389065.960 6  -1876949.845 5  23290288.460        1424.185
 -14047346.362 7 -10440210.500 7  21434165.487        1503.738
 93  5 11  5 47  0.0010000  0  7 17 23 28 22 21 26  3                0.001773040
 -16572147.193 8 -12915450.182 9  21115894.281         606.047
 -15708085.739 8 -12716616.595 9  21046291.787        -441.069
  -6559264.131 6  -5124551.548 5  24134259.202       -3301.474
  -6811139.668 6  -5310470.300 5  23825373.870        1373.679
 -11098728.122 6  -8700462.997 6  22887709.320       -2440.212
  -2346078.822 6  -1843453.370 5  23298468.337        1441.358
 -14001980.040 7 -10404860.126 7  21442798.400        1520.417
 93  5 11  5 47 30.0010000  0  7 17 23 28 22 21 26  3                0.001775040
 -16553856.158 8 -12901197.413 9  21119375.161         613.194
 -15721117.500 8 -12726771.207 9  21043812.062        -427.894
  -6658237.495 6  -5201673.603 5  24115424.301       -3296.894
  -6769730.461 6  -5278203.376 5  23833254.729        1386.645
 -11171801.950 6  -8757403.613 6  22873803.023       -2431.551
  -2302590.270 6  -1809566.170 5  23306743.937        1457.855
 -13956115.080 7 -10369121.205 6  21451525.627        1536.956
 93  5 11  5 48  0.0010000  0  7 17 23 28 22 21 26  3                0.001777030
 -16535356.935 8 -12886782.421 9  21122895.235         620.176
 -15733765.717 7 -12736626.951 9  21041405.349        -415.222
  -6757074.291 6  -5278689.283 5  24096616.148       -3292.198
  -6727937.276 6  -5245637.310 5  23841208.456        1399.578
 -11244618.323 6  -8814143.617 6  22859947.476       -2422.803
  -2258613.662 6  -1775298.678 5  23315112.274        1473.895
 -13909759.053 7 -10332999.623 6  21460346.643        1553.261
 93  5 11  5 48 30.0010000  0  7 17 23 28 22 21 26  3                0.001778990
 -16516645.260 8 -12872201.901 9  21126456.078         627.451
 -15746038.408 7 -12746190.062 9  21039069.566        -402.996
  -6855761.456 6  -5355588.304 5  24077837.045       -3287.008
  -6685758.905 6  -5212771.095 5  23849234.120        1412.437
 -11317168.691 6  -8870676.331 6  22846141.995       -2414.029
  -2214158.217 6  -1740658.092 5  23323571.537        1489.772
 -13862912.962 7 -10296496.180 6  21469261.471        1569.644
 93  5 11  5 49  0.0010000  0  7 17 23 28 22 21 26  3                0.001780940
 -16497710.006 8 -12857447.149 9  21130058.864         634.971
 -15757942.863 7 -12755466.253 9  21036804.423        -390.651
  -6954292.438 6  -5432365.629 5  24059087.251       -3281.592
  -6643194.102 6  -5179603.699 5  23857334.147        1425.274
 -11389463.245 6  -8927009.714 6  22832385.547       -2405.648
  -2169232.454 6  -1705650.987 5  23332120.630        1505.310
 -13815576.396 7 -10259610.543 6  21478269.552        1586.018
 93  5 11  5 49 30.0010000  0  7 17 23 28 22 21 26  3                0.001782860
 -16478552.914 8 -12842519.529 9  21133704.220         642.010
 -15769476.711 7 -12764453.673 9  21034609.364        -378.307
  -7052654.170 6  -5509011.084 5  24040369.348       -3275.937
  -6600242.364 6  -5146134.884 5  23865508.824        1438.102
 -11461505.499 6  -8983146.531 6  22818675.717       -2397.220
  -2123835.621 6  -1670276.831 5  23340759.587        1521.312
 -13767746.307 7 -10222340.362 6  21487371.484        1602.425
 93  5 11  5 50  0.0010000  0  7 17 23 28 22 21 26  3                0.001784770
 -16459181.590 8 -12827424.986 9  21137390.398         649.286
 -15780631.954 8 -12773146.052 9  21032486.721        -365.500
  -7150840.897 6  -5585520.263 5  24021683.847       -3270.011
  -6556901.440 6  -5112362.784 5  23873756.062        1451.222
 -11533292.396 6  -9039084.321 6  22805014.856       -2388.747
  -2077948.702 6  -1634520.769 5  23349491.813        1537.591
 -13719418.739 7 -10184682.500 6  21496567.986        1619.030
 93  5 11  5 50 30.0010000  0  7 17 23 28 22 21 26  3                0.001786660
 -16439590.749 8 -12812159.407 9  21141118.329         656.812
 -15791399.221 8 -12781536.130 9  21030437.890        -352.353
  -7248848.916 6  -5661890.049 5  24003034.031       -3263.825
  -6513171.014 6  -5078287.123 5  23882077.893        1464.096
 -11604835.669 6  -9094832.292 6  22791399.753       -2380.751
  -2031575.037 6  -1598385.456 5  23358316.141        1554.157
 -13670591.159 7 -10146635.023 6  21505859.613        1635.926
 93  5 11  5 51  0.0010000  0  7 17 23 28 22 21 26  3                0.001788530
 -16419782.269 8 -12796724.211 9  21144887.767         663.837
 -15801771.437 8 -12789618.353 9  21028464.418        -339.047
  -7346684.034 6  -5738125.167 5  23984416.083       -3258.490
  -6469062.456 6  -5043916.858 5  23890471.261        1476.681
 -11676142.762 6  -9150396.229 6  22777831.267       -2372.765
  -1984709.087 6  -1561866.543 5  23367234.509        1570.414
 -13621263.352 7 -10108197.788 6  21515246.605        1652.513
 93  5 11  5 51 30.0010000  0  7 17 23 28 22 21 26  3                0.001790370
 -16399762.656 8 -12781124.503 9  21148697.694         670.677
 -15811745.441 7 -12797390.307 9  21026566.331        -325.884
  -7444362.452 6  -5814238.220 5  23965827.665       -3253.548
  -6424575.781 6  -5009251.967 5  23898935.885        1489.181
 -11747209.594 6  -9205772.947 6  22764308.312       -2364.997
  -1937352.126 6  -1524964.995 5  23376246.064        1586.616
 -13571437.182 7 -10069372.207 6  21524728.519        1669.018
 93  5 11  5 52  0.0010000  0  7 17 23 28 22 21 26  3                0.001792190
 -16379538.321 8 -12765365.274 9  21152546.457         677.536
 -15821325.026 8 -12804854.899 9  21024743.182        -312.898
  -7541893.683 6  -5890236.491 5  23947269.237       -3248.395
  -6379713.924 6  -4974294.682 5  23907472.373        1501.595
 -11818045.638 6  -9260969.841 6  22750828.440       -2357.400
  -1889518.001 6  -1487691.652 5  23385348.603        1602.210
 -13521120.108 7 -10030164.081 6  21534303.575        1685.239
 93  5 11  5 52 30.0010000  0  7 17 23 28 22 21 26  3                0.001793970
 -16359106.628 8 -12749444.479 9  21156434.544         684.521
 -15830518.189 7 -12812018.400 9  21022993.997        -299.961
  -7639262.952 6  -5966108.597 5  23928741.031       -3242.833
  -6334481.441 6  -4939048.680 5  23916080.105        1513.850
 -11888649.398 6  -9315985.721 6  22737392.510       -2349.303
  -1841211.319 6  -1450050.072 5  23394541.230        1618.243
 -13470312.330 7  -9990573.588 6  21543971.269        1701.666
 93  5 11  5 53  0.0010000  0  7 17 23 28 22 21 26  3                0.001795740
 -16338463.724 8 -12733359.081 9  21160362.687         691.787
 -15839322.568 7 -12818878.950 9  21021318.194        -287.014
  -7736465.362 6  -6041850.732 5  23910244.603       -3237.101
  -6288872.238 6  -4903509.084 5  23924759.890        1526.914
 -11958993.659 6  -9370799.440 6  22724006.188       -2340.324
  -1792424.367 6  -1412034.256 5  23403824.838        1634.272
 -13419010.010 7  -9950597.760 6  21553734.008        1718.321
 93  5 11  5 53 30.0010000  0  7 17 23 28 22 21 26  3                0.001797500
 -16317604.154 8 -12717104.872 9  21164332.108         698.773
 -15847744.677 7 -12825441.600 9  21019715.714        -274.447
  -7833491.259 6  -6117455.289 5  23891780.703       -3231.143
  -6242878.158 6  -4867669.538 5  23933511.874        1539.265
 -12029072.814 6  -9425406.516 6  22710670.860       -2331.622
  -1743159.798 6  -1373646.300 5  23413199.668        1649.995
 -13367208.641 7  -9910233.071 6  21563591.347        1734.823
 93  5 11  5 54  0.0010000  0  7 17 23 28 22 21 26  3                0.001799250
 -16296523.217 8 -12700678.166 9  21168343.978         706.481
 -15855797.319 7 -12831716.402 9  21018183.395        -262.581
  -7930326.940 6  -6192911.602 5  23873353.351       -3224.622
  -6196514.033 6  -4831541.681 5  23942334.855        1551.373
 -12098876.465 6  -9479798.917 6  22697387.435       -2322.008
  -1693419.532 6  -1334887.651 5  23422665.197        1666.018
 -13314910.152 7  -9869480.992 6  21573543.538        1751.376
 93  5 11  5 54 30.0010000  0  7 17 23 28 22 21 26  3                0.001801000
 -16275214.892 8 -12684074.274 9  21172399.084         713.887
 -15863495.930 7 -12837715.277 9  21016718.688        -250.748
  -8026964.839 6  -6268213.840 5  23854964.025       -3218.022
  -6149797.662 6  -4795139.384 5  23951225.295        1562.999
 -12168387.325 7  -9533963.242 6  22684159.803       -2312.029
  -1643201.619 6  -1295756.809 5  23432221.627        1681.623
 -13262115.423 7  -9828342.220 6  21583590.171        1767.890
 93  5 11  5 55  0.0010000  0  7 17 23 28 22 21 26  3                0.001802740
 -16253690.782 8 -12667302.225 9  21176494.759         720.916
 -15870840.248 8 -12843438.124 9  21015321.395        -238.926
  -8123415.164 6  -6343369.926 5  23836609.739       -3211.937
  -6102728.484 6  -4758462.102 5  23960181.723        1574.887
 -12237601.807 7  -9587896.559 6  22670989.111       -2302.525
  -1592523.773 6  -1256267.561 5  23441864.555        1696.784
 -13208830.863 7  -9786821.784 6  21593729.763        1784.164
 93  5 11  5 55 30.0010000  0  7 17 23 28 22 21 26  3                0.001804460
 -16231964.822 8 -12650372.902 9  21180629.135         727.490
 -15877828.421 8 -12848883.451 9  21013991.546        -226.978
  -8219671.963 6  -6418375.165 5  23818292.549       -3205.107
  -6055312.817 6  -4721514.876 5  23969204.327        1586.230
 -12306541.152 6  -9641615.482 6  22657870.243       -2293.315
  -1541387.359 6  -1216420.997 5  23451595.391        1712.354
 -13155057.122 7  -9744920.174 6  21603962.400        1800.547
 93  5 11  5 56  0.0010000  0  7 17 23 28 22 21 26  3                0.001806190
 -16210041.082 8 -12633289.471 9  21184801.057         733.948
 -15884461.620 8 -12854052.166 9  21012729.191        -215.234
  -8315721.179 6  -6493218.652 5  23800015.055       -3198.145
  -6007549.300 6  -4684296.612 5  23978292.706        1597.915
 -12375203.357 7  -9695118.474 6  22644804.778       -2284.279
  -1489775.305 6  -1176203.819 5  23461416.990        1728.340
 -13100791.909 7  -9702635.588 6  21614288.831        1816.838
 93  5 11  5 56 30.0010000  0  7 17 23 28 22 21 26  3                0.001807910
 -16187931.275 8 -12616061.043 9  21189008.396         740.028
 -15890725.368 7 -12858932.982 9  21011537.155        -202.493
  -8411557.698 6  -6567896.477 5  23781777.112       -3191.142
  -5959433.566 6  -4646803.817 5  23987449.502        1609.895
 -12443601.213 7  -9748415.491 6  22631788.949       -2275.686
  -1437687.424 6  -1135615.881 5  23471328.675        1744.086
 -13046037.860 7  -9659970.081 6  21624708.287        1833.079
 93  5 11  5 57  0.0010000  0  7 17 23 28 22 21 26  3                0.001809630
 -16165639.845 8 -12598691.088 9  21193250.410         746.343
 -15896621.413 7 -12863527.307 9  21010414.842        -190.562
  -8507198.232 6  -6642421.494 5  23763577.485       -3184.692
  -5910968.033 5  -4609038.466 5  23996672.536        1621.244
 -12511757.800 6  -9801524.491 6  22618818.948       -2268.074
  -1385127.100 6  -1094659.774 5  23481330.403        1759.980
 -12990802.074 7  -9616929.210 6  21635219.148        1849.134
 93  5 11  5 57 30.0010000  0  7 17 23 28 22 21 26  3                0.001811330
 -16143144.604 8 -12581162.326 9  21197531.263         753.393
 -15902159.225 7 -12867842.479 9  21009360.982        -178.716
  -8602630.041 6  -6716783.889 5  23745418.241       -3177.515
  -5862164.959 6  -4571010.206 5  24005960.162        1632.289
 -12579681.579 6  -9854452.075 6  22605893.075       -2260.174
  -1332088.729 6  -1053331.138 5  23491422.300        1775.905
 -12935084.468 7  -9573512.891 6  21645822.108        1865.056
 93  5 11  5 58  0.0010000  0  7 17 23 28 22 21 26  3                0.001813010
 -16120424.598 8 -12563458.436 9  21201854.542         761.229
 -15907335.910 7 -12871876.250 9  21008376.234        -166.309
  -8697846.037 6  -6790978.188 5  23727298.892       -3170.411
  -5813027.412 6  -4532721.196 5  24015311.055        1643.523
 -12647361.938 6  -9907189.965 6  22593013.803       -2252.039
  -1278577.995 6  -1011634.470 5  23501605.287        1791.312
 -12878890.399 7  -9529725.305 6  21656515.476        1880.891
 93  5 11  5 58 30.0010000  0  7 17 23 28 22 21 26  3                0.001814630
 -16097469.009 8 -12545570.946 9  21206222.688         769.255
 -15912137.136 8 -12875617.443 9  21007462.317        -153.882
  -8792865.144 6  -6865018.988 5  23709216.253       -3164.160
  -5763554.944 6  -4494171.196 5  24024725.444        1654.787
 -12714809.916 7  -9959746.794 6  22580179.138       -2244.500
  -1224624.643 6   -969592.894 5  23511872.019        1805.720
 -12822223.567 7  -9485569.330 6  21667298.221        1896.692
 93  5 11  5 59  0.0010000  0  7 17 23 28 22 21 26  3                0.001816210
 -16074272.750 8 -12527495.932 9  21210636.611         777.239
 -15916569.718 8 -12879071.391 9  21006618.760        -141.367
  -8887697.769 6  -6938914.454 5  23691171.142       -3157.724
  -5713739.226 5  -4455353.884 5  24034204.246        1666.291
 -12782028.131 7 -10012124.573 6  22567388.072       -2236.747
  -1170236.470 6   -927212.475 5  23522222.164        1820.144
 -12765083.599 7  -9441044.663 6  21678171.833        1912.480
 93  5 11  5 59 30.0010000  0  7 17 23 28 22 21 26  3                0.001817730
 -16050847.230 8 -12509242.279 9  21215094.535         784.455
 -15920620.528 8 -12882227.873 9  21005847.844        -128.596
  -8982333.342 6  -7012656.463 5  23673163.957       -3151.294
  -5663573.110 5  -4416263.382 5  24043748.645        1678.230
 -12849015.566 7 -10064322.580 6  22554640.947       -2228.954
  -1115425.173 6   -884502.402 5  23532652.970        1834.227
 -12707471.704 7  -9396152.298 6  21689135.375        1928.179
 93  5 11  6  0  0.0010000  0  7 17 23 28 22 21 26  3                0.001819210
 -16027210.794 8 -12490824.278 9  21219592.273         791.262
 -15924287.803 8 -12885085.462 9  21005150.437        -116.104
  -9076788.477 6  -7086257.821 5  23655188.663       -3145.757
  -5613046.947 6  -4376892.309 5  24053363.803        1690.146
 -12915765.409 7 -10116335.409 6  22541938.572       -2220.959
  -1060189.471 6   -841461.586 5  23543163.878        1848.271
 -12649385.456 7  -9350890.267 6  21700188.792        1944.044
 93  5 11  6  0 30.0010000  0  7 17 23 28 22 21 26  3                0.001820670
 -16003383.492 8 -12472257.550 9  21224126.372         797.343
 -15927605.917 8 -12887670.992 9  21004518.863        -105.078
  -9171086.228 6  -7159736.531 5  23637243.918       -3140.437
  -5562178.592 5  -4337254.738 5  24063045.532        1701.241
 -12982278.778 6 -10168163.954 6  22529281.503       -2212.946
  -1004541.509 6   -798099.563 5  23553752.869        1861.982
 -12590831.015 7  -9305263.452 6  21711330.967        1959.517
 93  5 11  6  1  0.0010000  0  7 17 23 28 22 21 26  3                0.001822120
 -15979374.150 8 -12453548.955 9  21228695.171         803.362
 -15930592.816 8 -12889998.443 9  21003950.327         -94.287
  -9265206.695 6  -7233077.139 5  23619334.621       -3134.240
  -5510975.616 5  -4297356.315 5  24072789.003        1712.013
 -13048530.132 7 -10219788.350 6  22516674.110       -2203.872
   -948461.031 6   -754400.477 5  23564424.936        1876.618
 -12531805.670 7  -9259269.663 6  21722563.052        1975.252
 93  5 11  6  1 30.0010000  0  7 17 23 28 22 21 26  3                0.001823560
 -15955183.505 8 -12434699.111 9  21233298.562         809.428
 -15933278.494 7 -12892091.156 9  21003439.282         -84.819
  -9359145.000 6  -7306275.781 5  23601458.630       -3128.263
  -5459471.771 5  -4257223.436 5  24082589.673        1721.527
 -13114519.789 7 -10271208.810 6  22504117.302       -2195.288
   -891947.043 6   -710363.634 5  23575179.336        1891.121
 -12472314.481 7  -9212912.895 6  21733884.196        1990.670
 93  5 11  6  2  0.0010000  0  7 17 23 28 22 21 26  3                0.001824990
 -15930799.140 8 -12415698.297 9  21237938.621         816.157
 -15935681.112 7 -12893963.319 9  21002981.867         -75.397
  -9452895.075 6  -7379327.740 5  23583617.969       -3121.684
  -5407687.761 6  -4216872.320 5  24092444.380        1730.672
 -13180245.101 6 -10322423.284 6  22491609.106       -2186.458
   -834994.384 6   -665984.905 5  23586017.050        1905.542
 -12412356.657 7  -9166192.509 6  21745293.695        2006.221
 93  5 11  6  2 30.0010000  0  7 17 23 28 22 21 26  3                0.001826410
 -15906213.433 8 -12396540.606 9  21242617.120         822.791
 -15937786.727 7 -12895604.051 9  21002580.845         -64.917
  -9546432.494 6  -7452214.009 5  23565818.753       -3114.073
  -5355631.810 5  -4176309.294 5  24102350.514        1739.778
 -13245712.951 6 -10373437.145 6  22479150.859       -2178.086
   -777605.012 6   -621265.911 5  23596939.118        1920.255
 -12351930.830 7  -9119107.455 6  21756792.697        2021.849
 93  5 11  6  3  0.0010000  0  7 17 23 28 22 21 26  3                0.001827800
 -15881427.981 8 -12377227.263 9  21247333.716         829.681
 -15939566.858 8 -12896991.164 9  21002242.511         -53.657
  -9639731.837 6  -7524914.786 5  23548064.169       -3105.892
  -5303304.435 5  -4135534.680 5  24112309.244        1748.699
 -13310937.394 6 -10424261.358 6  22466739.684       -2170.274
   -719777.732 6   -576205.701 5  23607943.498        1934.779
 -12291039.010 7  -9071659.299 6  21768379.595        2037.376
 93  5 11  6  3 30.0010000  0  7 17 23 28 22 21 26  3                0.001829140
 -15856427.167 8 -12357746.117 9  21252091.003         836.923
 -15940992.474 8 -12898102.019 9  21001971.327         -41.201
  -9732778.065 6  -7597418.282 5  23530357.603       -3097.302
  -5250703.201 5  -4094546.712 5  24122317.880        1758.220
 -13375931.760 7 -10474906.283 6  22454371.241       -2162.555
   -661519.959 6   -530810.049 5  23619029.316        1949.178
 -12229676.349 7  -9023844.244 6  21780056.540        2053.159
 93  5 11  6  4  0.0010000  0  7 17 23 28 22 21 26  3                0.001830420
 -15831222.154 8 -12338105.830 9  21256887.383         843.607
 -15942038.380 7 -12898916.988 9  21001772.355         -28.314
  -9825583.198 6  -7669733.895 5  23512697.616       -3089.513
  -5197814.048 5  -4053334.486 5  24132381.930        1767.885
 -13440696.330 7 -10525372.126 6  22442046.336       -2154.812
   -602842.525 6   -485087.362 5  23630195.528        1962.862
 -12167851.802 7  -8975669.269 6  21791821.484        2068.475
 93  5 11  6  4 30.0010000  0  7 17 23 28 22 21 26  3                0.001831640
 -15805815.886 8 -12318308.745 9  21261722.326         850.161
 -15942685.635 7 -12899421.349 9  21001649.301         -15.015
  -9918153.317 6  -7741866.474 5  23495081.845       -3081.831
  -5144623.981 5  -4011887.681 5  24142504.236        1777.965
 -13505218.458 7 -10575649.068 6  22429768.723       -2146.671
   -543743.590 6   -439036.270 5  23641441.319        1976.898
 -12105559.111 7  -8927129.497 6  21803675.414        2084.062
 93  5 11  6  5  0.0010000  0  7 17 23 28 22 21 26  3                0.001832800
 -15780211.555 8 -12298357.307 9  21266594.873         856.856
 -15942950.979 8 -12899628.092 9  21001598.965          -2.683
 -10010499.780 6  -7813824.682 5  23477508.199       -3074.598
  -5091135.794 5  -3970208.544 5  24152680.771        1787.871
 -13569495.535 7 -10625735.070 6  22417537.304       -2138.407
   -484228.610 6   -392660.949 5  23652766.581        1990.851
 -12042802.032 7  -8878227.895 6  21815617.421        2099.612
 93  5 11  6  5 30.0010000  0  7 17 23 28 22 21 26  3                0.001833950
 -15754408.431 8 -12278250.973 9  21271504.923         863.187
 -15942857.502 8 -12899555.232 9  21001616.264           8.812
 -10102636.147 6  -7885619.184 5  23459975.876       -3068.006
  -5037346.584 6  -3928295.004 5  24162917.033        1797.986
 -13633519.524 7 -10675623.862 6  22405354.144       -2129.844
   -424288.568 6   -345954.443 5  23664173.462        2005.067
 -11979575.549 7  -8828960.519 6  21827649.085        2115.171
 93  5 11  6  6  0.0010000  0  7 17 23 28 22 21 26  3                0.001835070
 -15728425.360 8 -12258004.418 9  21276449.590         868.942
 -15942436.341 8 -12899227.044 9  21001696.487          19.144
 -10194586.216 6  -7957268.576 5  23442478.553       -3061.791
  -4983262.312 6  -3886151.395 5  24173209.329        1807.448
 -13697291.800 7 -10725316.497 6  22393218.809       -2121.695
   -363928.751 6   -298920.799 5  23675658.833        2018.766
 -11915886.920 7  -8779333.019 6  21839768.451        2130.473
 93  5 11  6  6 30.0010000  0  7 17 23 28 22 21 26  3                0.001836180
 -15702271.970 8 -12237625.150 9  21281426.514         874.497
 -15941707.651 8 -12898659.229 9  21001835.163          29.193
 -10286330.964 6  -8028757.970 5  23425019.826       -3054.522
  -4928898.376 6  -3843789.882 5  24183555.932        1816.704
 -13760818.985 7 -10774818.165 6  22381129.595       -2113.599
   -303163.197 6   -251571.027 5  23687221.755        2032.264
 -11851737.395 7  -8729346.381 6  21851976.053        2145.796
 93  5 11  6  7  0.0010000  0  7 17 23 28 22 21 26  3                0.001837270
 -15675945.820 8 -12217111.267 9  21286436.257         880.389
 -15940689.564 8 -12897865.899 9  21002029.287          38.523
 -10377844.641 6  -8100067.264 5  23407605.455       -3046.544
  -4874259.127 5  -3801213.884 5  24193952.993        1825.780
 -13824102.069 7 -10824129.635 6  22369087.714       -2105.349
   -241993.345 6   -203906.226 5  23698862.588        2045.665
 -11787132.025 7  -8679004.546 6  21864269.991        2160.871
 93  5 11  6  7 30.0010000  0  7 17 23 28 22 21 26  3                0.001838350
 -15649444.147 8 -12196460.618 9  21291479.625         886.482
 -15939386.565 7 -12896850.569 9  21002276.924          48.517
 -10469118.088 6  -8171189.387 5  23390237.158       -3038.247
  -4819346.322 5  -3758424.776 5  24204402.166        1835.059
 -13887134.993 7 -10873246.141 6  22357091.889       -2096.793
   -180425.821 6   -155931.553 5  23710578.150        2058.683
 -11722074.643 7  -8628310.495 6  21876650.479        2176.018
 93  5 11  6  8  0.0010000  0  7 17 23 28 22 21 26  3                0.001839390
 -15622752.572 8 -12175661.968 9  21296558.610         892.877
 -15937781.015 8 -12895599.488 9  21002582.715          58.607
 -10560135.069 6  -8242111.724 5  23372916.816       -3029.371
  -4764160.829 5  -3715423.077 5  24214902.172        1843.958
 -13949914.229 7 -10922164.973 6  22345145.828       -2088.503
   -118479.713 6   -107661.826 5  23722366.789        2070.995
 -11656565.705 7  -8577264.559 6  21889116.601        2190.938
 93  5 11  6  8 30.0010000  0  7 17 23 28 22 21 26  3                0.001840400
 -15595863.677 8 -12154709.580 9  21301675.476         899.804
 -15935860.384 8 -12894102.873 9  21002948.402          69.343
 -10650870.526 6  -8312814.616 5  23355649.733       -3019.757
  -4708705.773 5  -3672211.319 5  24225454.558        1853.123
 -14012436.831 7 -10970883.861 6  22333248.652       -2079.845
    -56154.298 6    -59096.583 5  23734226.406        2084.067
 -11590609.876 7  -8525870.416 6  21901667.143        2205.830
 93  5 11  6  9  0.0010000  0  7 17 23 28 22 21 26  3                0.001841370
 -15568758.808 8 -12133588.910 9  21306833.106         907.240
 -15933618.821 7 -12892356.191 9  21003374.629          80.239
 -10741330.024 6  -8383302.492 5  23338436.573       -3010.972
  -4652974.711 5  -3628784.631 5  24236059.351        1862.410
 -14074702.856 7 -11019402.822 6  22321399.827       -2071.210
      6566.313 6    -10223.389 5  23746161.995        2097.325
 -11524206.671 7  -8474127.644 6  21914303.243        2220.883
 93  5 11  6  9 30.0010000  0  7 17 23 28 22 21 26  3                0.001842300
 -15541429.591 8 -12112293.404 9  21312033.396         914.695
 -15931037.357 8 -12890344.664 9  21003865.955          91.745
 -10831532.182 6  -8453589.891 5  23321272.041       -3002.626
  -4596967.899 6  -3585142.912 5  24246717.696        1871.343
 -14136713.910 7 -11067723.099 6  22309599.445       -2063.015
     69681.417 6     38957.195 5  23758171.899        2110.266
 -11457352.796 7  -8422033.752 6  21927025.159        2235.793
 93  5 11  6 10  0.0010000  0  7 17 23 28 22 21 26  3                0.001843190
 -15513877.818 8 -12090824.484 9  21317276.475         922.084
 -15928117.034 7 -12888069.071 9  21004421.662         103.050
 -10921489.219 6  -8523686.206 5  23304153.893       -2994.398
  -4540701.484 6  -3541298.930 5  24257425.595        1879.902
 -14198485.129 7 -11115856.474 6  22297844.234       -2054.893
    133191.671 6     88445.721 5  23770257.432        2123.994
 -11390053.673 7  -8369592.857 6  21939831.610        2250.740
 93  5 11  6 10 30.0010000  0  7 17 23 28 22 21 26  3                0.001844040
 -15486109.872 8 -12069187.129 9  21322560.439         929.017
 -15924859.590 7 -12885530.796 9  21005041.221         113.740
 -11011209.572 6  -8593598.144 5  23287079.013       -2987.243
  -4484175.918 6  -3497253.154 5  24268182.251        1888.188
 -14260012.934 7 -11163800.195 6  22286136.349       -2047.154
    197120.684 6    138260.530 5  23782423.080        2137.673
 -11322306.844 7  -8316803.128 6  21952723.486        2265.390
 93  5 11  6 11  0.0010000  0  7 17 23 28 22 21 26  3                0.001844850
 -15458138.588 8 -12047391.325 9  21327882.604         935.617
 -15921286.913 8 -12882746.882 9  21005721.071         124.433
 -11100729.081 6  -8663353.569 5  23270044.136       -2980.758
  -4427406.518 6  -3453017.293 5  24278985.042        1896.349
 -14321311.880 7 -11211565.571 6  22274471.374       -2039.389
    261448.089 6    188385.756 5  23794663.978        2150.733
 -11254118.729 7  -8263669.521 6  21965699.263        2280.256
 93  5 11  6 11 30.0010000  0  7 17 23 28 22 21 26  3                0.001845610
 -15429976.410 8 -12025446.751 9  21333241.863         941.742
 -15917392.811 8 -12879712.496 9  21006462.049         135.168
 -11190044.991 6  -8732950.331 5  23253048.889       -2973.437
  -4370405.073 6  -3408600.527 5  24289832.118        1903.941
 -14382377.541 7 -11259149.124 6  22262851.198       -2031.615
    326160.813 6    238811.249 5  23806978.310        2163.485
 -11185484.620 7  -8210188.429 6  21978760.064        2295.148
 93  5 11  6 12  0.0010000  0  7 17 23 28 22 21 26  3                0.001846340
 -15401640.392 8 -12003366.733 9  21338634.432         947.202
 -15913178.353 8 -12876428.514 9  21007264.523         145.798
 -11279129.073 6  -8802366.456 5  23236096.376       -2965.379
  -4313167.979 6  -3364000.223 5  24300724.578        1912.093
 -14443204.686 7 -11306546.867 6  22251276.061       -2023.356
    391255.849 6    289534.699 5  23819365.417        2176.281
 -11116400.866 7  -8156356.944 6  21991905.741        2310.263
 93  5 11  6 12 30.0010000  0  7 17 23 28 22 21 26  3                0.001847030
 -15373144.969 8 -11981162.518 9  21344056.996         952.374
 -15908647.228 8 -12872897.749 9  21008126.907         156.030
 -11367964.298 6  -8871588.687 5  23219192.216       -2956.922
  -4255674.257 5  -3319200.049 5  24311664.809        1920.609
 -14503778.573 7 -11353747.281 6  22239749.023       -2015.178
    456719.278 6    340545.143 5  23831822.565        2187.750
 -11046865.611 7  -8102173.616 6  22005137.980        2325.036
 93  5 11  6 13  0.0010000  0  7 17 23 28 22 21 26  3                0.001847680
 -15344494.427 8 -11958837.427 9  21349508.944         957.739
 -15903805.960 8 -12869125.331 9  21009048.079         166.807
 -11456530.364 6  -8940601.185 5  23202338.796       -2947.318
  -4197929.177 6  -3274203.817 5  24322653.146        1929.048
 -14564110.159 7 -11400758.903 6  22228268.530       -2006.817
    522524.025 6    391821.552 5  23844344.795        2199.363
 -10976884.691 7  -8047643.042 6  22018455.011        2340.066
 93  5 11  6 13 30.0010000  0  7 17 23 28 22 21 26  3                0.001848300
 -15315675.879 8 -11936381.400 9  21354992.965         963.608
 -15898641.481 8 -12865101.048 9  21010030.518         177.410
 -11544791.974 6  -9009376.392 5  23185542.064       -2936.701
  -4139925.948 5  -3229006.482 5  24333691.638        1938.002
 -14624184.527 7 -11447570.039 6  22216836.494       -1998.097
    588685.843 6    443376.231 5  23856935.330        2211.574
 -10906452.307 7  -7992760.688 6  22031857.632        2355.282
 93  5 11  6 14  0.0010000  0  7 17 23 28 22 21 26  3                0.001848890
 -15286679.209 8 -11913786.588 9  21360510.785         969.825
 -15893172.302 8 -12860839.353 9  21011071.407         187.324
 -11632748.981 6  -9077914.309 5  23168804.508       -2927.037
  -4081655.949 5  -3183601.379 5  24344779.262        1946.673
 -14684000.556 7 -11494179.946 6  22205453.455       -1989.464
    655213.451 6    495215.941 5  23869595.503        2223.853
 -10835571.908 7  -7937529.202 6  22045345.873        2370.025
 93  5 11  6 14 30.0010000  0  7 17 23 28 22 21 26  3                0.001849480
 -15257475.069 8 -11891030.125 9  21366067.820         977.435
 -15887400.631 8 -12856341.938 9  21012169.865         197.555
 -11720414.814 7  -9146225.349 5  23152122.186       -2917.138
  -4023126.615 5  -3137994.146 5  24355918.408        1955.102
 -14743557.164 7 -11540587.661 6  22194119.862       -1981.090
    722117.310 6    547348.809 5  23882326.840        2236.687
 -10764243.089 7  -7881948.325 6  22058919.027        2385.121
 93  5 11  6 15  0.0010000  0  7 17 23 28 22 21 26  3                0.001850040
 -15228041.307 8 -11868094.719 9  21371669.072         984.837
 -15881323.742 8 -12851606.683 9  21013326.115         207.534
 -11807792.752 6  -9214311.998 5  23135495.280       -2908.293
  -3964360.885 5  -3092202.644 5  24367100.703        1962.444
 -14802872.057 7 -11586807.037 6  22182833.442       -1973.061
    789416.887 6    599790.025 5  23895133.526        2249.968
 -10692463.750 7  -7826016.356 6  22072578.682        2399.874
 93  5 11  6 15 30.0010000  0  7 17 23 28 22 21 26  3                0.001850580
 -15198381.499 8 -11844983.178 9  21377313.324         992.363
 -15874951.370 7 -12846641.192 9  21014538.308         217.183
 -11894912.127 7  -9282197.179 5  23118917.295       -2899.736
  -3905373.473 5  -3046238.606 5  24378325.037        1969.990
 -14861936.861 7 -11632831.559 6  22171593.724       -1964.732
    857119.422 6    652545.252 5  23908016.167        2263.382
 -10620238.931 7  -7769737.299 6  22086322.407        2414.845
 93  5 11  6 16  0.0010000  0  7 17 23 28 22 21 26  3                0.001851100
 -15168492.959 8 -11821693.408 9  21383001.108        1000.174
 -15868278.892 8 -12841441.847 9  21015808.158         227.610
 -11981779.368 6  -9349885.966 5  23102387.458       -2891.433
  -3846162.997 5  -3000100.533 5  24389593.511        1977.063
 -14920751.407 7 -11678661.037 6  22160401.685       -1956.371
    925225.738 6    705615.111 5  23920976.382        2276.814
 -10547562.812 7  -7713106.567 6  22100152.223        2429.848
 93  5 11  6 16 30.0010000  0  7 17 23 28 22 21 26  3                0.001851580
 -15138371.677 8 -11798222.288 9  21388732.939        1007.796
 -15861293.535 7 -12835998.710 9  21017137.350         238.019
 -12068389.204 6  -9417374.084 5  23085905.830       -2882.454
  -3786745.070 5  -2953800.842 5  24400900.276        1984.048
 -14979319.371 7 -11724298.357 6  22149256.449       -1948.231
    993729.801 6    758994.901 5  23934012.387        2290.163
 -10474438.618 7  -7656126.661 6  22114067.540        2444.825
 93  5 11  6 17  0.0010000  0  7 17 23 28 22 21 26  3                0.001852030
 -15108037.808 8 -11774585.492 9  21394505.464        1014.608
 -15854003.315 7 -12830318.001 9  21018524.589         248.135
 -12154737.174 6  -9484658.163 5  23069473.737       -2873.897
  -3727126.908 5  -2907345.324 5  24412245.044        1990.660
 -15037639.411 7 -11769742.522 6  22138158.092       -1939.432
   1062622.816 6    812677.775 5  23947122.468        2302.798
 -10400871.580 7  -7598801.698 6  22128066.767        2459.535
 93  5 11  6 17 30.0010000  0  7 17 23 28 22 21 26  3                0.001852440
 -15077487.438 8 -11750780.012 9  21400318.947        1022.069
 -15846398.690 7 -12824392.332 9  21019971.195         258.874
 -12240806.756 6  -9551725.375 5  23053095.536       -2863.906
  -3667292.965 5  -2860721.462 5  24423631.447        1998.312
 -15095682.010 7 -11814970.499 6  22127112.828       -1930.173
   1131898.290 6    866658.641 5  23960305.117        2315.451
 -10326853.630 7  -7541125.420 6  22142152.049        2474.847
 93  5 11  6 18  0.0010000  0  7 17 23 28 22 21 26  3                0.001852820
 -15046713.399 8 -11726800.232 9  21406174.845        1029.694
 -15838467.556 7 -12818212.210 9  21021480.141         269.834
 -12326573.899 6  -9618556.874 5  23036774.591       -2853.630
  -3607231.314 5  -2813920.138 5  24435060.405        2005.767
 -15153447.408 7 -11859982.465 6  22116120.507       -1920.818
   1201542.296 6    920926.705 5  23973558.227        2327.549
 -10252384.289 7  -7483097.361 6  22156323.287        2489.660
 93  5 11  6 18 30.0010000  0  7 17 23 28 22 21 26  3                0.001853170
 -15015704.827 8 -11702637.709 9  21412075.419        1037.265
 -15830206.920 8 -12811775.344 9  21023052.384         280.827
 -12412011.639 6  -9685131.685 6  23020516.438       -2842.186
  -3546934.803 5  -2766935.992 5  24446533.498        2014.085
 -15210922.010 7 -11904767.837 6  22105183.619       -1910.930
   1271557.027 6    975483.669 5  23986881.444        2340.036
 -10177459.991 7  -7424714.794 6  22170580.328        2505.043
 93  5 11  6 19  0.0010000  0  7 17 23 28 22 21 26  3                0.001853500
 -14984473.838 8 -11678301.880 9  21418018.433        1044.833
 -15821614.167 8 -12805079.684 9  21024687.352         292.039
 -12497102.526 7  -9751436.262 5  23004324.159       -2830.490
  -3486382.934 5  -2719752.731 5  24458055.979        2022.721
 -15268093.286 7 -11949316.862 6  22094304.612       -1900.614
   1341940.312 6   1030327.755 5  24000275.037        2352.045
 -10102073.701 7  -7365972.247 6  22184925.645        2520.497
 93  5 11  6 19 30.0010000  0  7 17 23 28 22 21 26  3                0.001853810
 -14953009.671 8 -11653784.340 9  21424005.681        1052.817
 -15812676.354 8 -12798115.153 9  21026388.334         303.881
 -12581833.330 6  -9817460.232 5  22988200.317       -2818.202
  -3425567.117 5  -2672363.710 5  24469629.608        2031.887
 -15324962.516 7 -11993630.522 6  22083482.542       -1890.697
   1412686.052 6   1085454.299 5  24013737.473        2364.370
 -10026219.909 7  -7306865.412 6  22199360.483        2536.290
 93  5 11  6 20  0.0010000  0  7 17 23 28 22 21 26  3                0.001854110
 -14921307.882 8 -11629081.651 9  21430037.873        1060.570
 -15803386.760 8 -12790876.490 9  21028156.081         315.419
 -12666195.355 6  -9883196.833 6  22972147.245       -2805.771
  -3364479.546 5  -2624763.094 5  24481250.962        2040.472
 -15381538.309 7 -12037715.511 6  22072716.716       -1880.916
   1483800.572 6   1140868.203 5  24027270.382        2376.867
  -9949895.014 7  -7247391.456 6  22213885.057        2551.879
 93  5 11  6 20 30.0010000  0  7 17 23 28 22 21 26  3                0.001854420
 -14889380.959 8 -11604203.527 9  21436112.781        1067.636
 -15793752.922 8 -12783369.604 9  21029989.541         326.855
 -12750178.471 6  -9948638.205 6  22956164.900       -2793.356
  -3303137.984 5  -2576964.522 5  24492925.487        2048.901
 -15437824.137 7 -12081574.608 6  22062006.209       -1871.556
   1555296.991 6   1196579.711 5  24040875.369        2389.487
  -9873097.096 7  -7187548.933 6  22228499.004        2567.605
 93  5 11  6 21  0.0010000  0  7 17 23 28 22 21 26  3                0.001854710
 -14857242.749 8 -11579160.764 9  21442228.654        1075.180
 -15783775.913 8 -12775595.316 9  21031888.188         338.389
 -12833808.168 7 -10013804.183 6  22940250.246       -2781.916
  -3241553.059 5  -2528976.267 5  24504646.212        2056.756
 -15493832.142 7 -12125217.181 6  22051348.010       -1862.233
   1627165.577 6   1252581.203 5  24054551.989        2401.896
  -9795831.125 7  -7127341.707 6  22243201.880        2583.215
 93  5 11  6 21 30.0010000  0  7 17 23 28 22 21 26  3                0.001854980
 -14824871.265 8 -11553936.228 9  21448389.238        1083.180
 -15773451.500 8 -12767550.296 9  21033852.696         349.986
 -12917096.038 6 -10078703.775 6  22924401.127       -2770.395
  -3179737.517 5  -2480808.332 5  24516409.579        2064.415
 -15549558.654 7 -12168640.408 6  22040743.230       -1852.540
   1699410.005 6   1308875.560 5  24068299.593        2414.663
  -9718098.217 7  -7066770.641 6  22257994.232        2598.842
 93  5 11  6 22  0.0010000  0  7 17 23 28 22 21 26  3                0.001855240
 -14792247.715 8 -11528515.276 8  21454597.712        1091.441
 -15762777.015 8 -12759232.511 9  21035884.310         361.372
 -13000017.840 7 -10143318.167 6  22908621.652       -2758.088
  -3117689.171 5  -2432459.114 5  24528216.620        2071.849
 -15604970.670 7 -12211818.582 6  22030198.332       -1841.818
   1772054.042 6   1365481.280 5  24082123.342        2428.056
  -9639890.258 7  -7005829.375 6  22272876.609        2614.605
 93  5 11  6 22 30.0010000  0  8 17  1 23 28 22 21 26  3             0.001855500
 -14759377.511 8 -11502902.150 8  21460852.461        1100.107
   -821709.44215   -535530.52115  25164553.571       -3724.875
 -15751767.744 8 -12750653.854 9  21037979.222         372.747
 -13082584.683 7 -10207655.935 6  22892909.349       -2746.495
  -3055412.623 5  -2383931.905 5  24540065.681        2080.071
 -15660066.048 7 -12254750.001 6  22019713.988       -1831.263
   1845095.187 6   1422396.483 5  24096022.332        2441.312
  -9561210.989 7  -6944520.867 6  22287849.103        2630.470
 93  5 11  6 23  0.0010000  0  8 17  1 23 28 22 21 26  3             0.001855770
 -14726237.493 8 -11477078.731 8  21467159.174        1109.288
   -933462.071 5   -622610.454 5  25143285.550       -3725.409
 -15740417.776 8 -12741809.719 9  21040138.865         383.785
 -13164809.859 7 -10271727.473 6  22877262.523       -2735.068
  -2992887.376 5  -2335211.092 5  24551964.577        2088.316
 -15714844.568 7 -12297434.512 6  22009289.566       -1820.661
   1918528.160 6   1479616.982 5  24109996.437        2454.250
  -9482063.618 7  -6882847.583 6  22302910.299        2645.824
 93  5 11  6 23 30.0010000  0  8 17  1 23 28 22 21 26  3             0.001856050
 -14692819.175 7 -11451038.488 8  21473518.333        1118.506
  -1045231.530 5   -709703.501 5  25122016.558       -3726.066
 -15728742.716 8 -12732712.252 9  21042360.628         394.531
 -13246675.861 7 -10335519.124 6  22861683.915       -2722.630
  -2930113.593 5  -2286296.496 5  24563909.429        2096.686
 -15769306.898 7 -12339872.665 7  21998926.219       -1810.170
   1992358.087 6   1537146.758 5  24124046.120        2467.703
  -9402449.427 7  -6820810.575 6  22318059.927        2661.576
 93  5 11  6 24  0.0010000  0  8 17  1 23 28 22 21 26  3             0.001856340
 -14659134.899 8 -11424791.023 8  21479928.174        1127.028
  -1157023.710 5   -796814.146 5  25100745.339       -3726.751
 -15716749.467 8 -12723366.864 9  21044642.797         405.106
 -13328170.673 7 -10399021.581 6  22846175.681       -2710.506
  -2867089.939 6  -2237187.155 5  24575903.578        2104.973
 -15823465.649 7 -12382074.261 7  21988620.433       -1800.530
   2066586.709 6   1594987.272 5  24138170.822        2480.764
  -9322362.427 7  -6758405.125 6  22333300.329        2677.387
 93  5 11  6 24 30.0010000  0  8 17  1 23 28 22 21 26  3             0.001856640
 -14625187.693 8 -11398338.648 8  21486388.352        1136.148
  -1268815.290 5   -883924.337 5  25079473.509       -3725.997
 -15704425.148 8 -12713763.491 9  21046987.735         416.627
 -13409298.724 7 -10462238.198 6  22830737.819       -2697.881
  -2803807.476 5  -2187876.268 5  24587947.285        2113.774
 -15877337.281 7 -12424052.108 7  21978369.280       -1790.887
   2141208.010 6   1653133.742 5  24152371.253        2493.816
  -9241792.743 7  -6695623.554 6  22348632.234        2693.659
 93  5 11  6 25  0.0010000  0  8 17  1 23 28 22 21 26  3             0.001856950
 -14590968.609 8 -11371674.424 8  21492900.244        1144.956
  -1380582.643 5   -971015.695 5  25058205.191       -3725.110
 -15691751.558 8 -12703887.958 9  21049399.564         427.962
 -13490039.555 7 -10525153.113 6  22815374.116       -2684.852
  -2740270.494 5  -2138366.948 5  24600037.027        2121.824
 -15930909.106 7 -12465796.382 7  21968175.089       -1780.633
   2216223.326 6   1711587.205 5  24166645.167        2507.008
  -9160734.606 7  -6632461.401 6  22364057.174        2709.926
 93  5 11  6 25 30.0010000  0  8 17  1 23 28 22 21 26  3             0.001857270
 -14556492.167 8 -11344809.664 8  21499460.663        1153.492
  -1492323.079 5  -1058086.083 5  25036941.809       -3724.314
 -15678743.126 8 -12693751.522 9  21051875.111         439.363
 -13570381.263 7 -10587757.053 6  22800085.430       -2671.228
  -2676507.547 5  -2088681.518 5  24612170.165        2129.027
 -15984172.240 7 -12507300.076 7  21958039.286       -1770.226
   2291630.544 6   1770346.058 5  24180995.011        2519.898
  -9079186.141 7  -6568917.179 5  22379575.050        2726.353
 93  5 11  6 26  0.0010000  0  8 17  1 23 28 22 21 26  3             0.001857590
 -14521762.603 8 -11317747.674 8  21506069.598        1161.970
  -1604042.470 5  -1145140.137 5  25015681.665       -3723.691
 -15665387.912 8 -12683344.851 9  21054416.691         451.028
 -13650317.526 7 -10650044.999 6  22784873.661       -2657.706
  -2612530.814 5  -2038829.692 5  24624343.389        2136.203
 -16037119.570 7 -12548557.694 7  21947963.769       -1759.585
   2367414.282 6   1829398.305 5  24195416.043        2532.317
  -8997154.595 6  -6504996.493 5  22395184.755        2742.215
 93  5 11  6 26 30.0010000  0  8 17  1 23 28 22 21 26  3             0.001857910
 -14486764.105 8 -11290476.117 8  21512729.877        1171.217
  -1715747.560 5  -1232182.952 5  24994423.622       -3723.673
 -15651677.947 8 -12672661.764 9  21057025.884         462.929
 -13729840.141 7 -10712010.652 6  22769740.904       -2643.837
  -2548337.376 5  -1988808.809 5  24636558.943        2143.331
 -16089738.825 7 -12589559.689 7  21937950.394       -1748.440
   2443575.438 6   1888744.690 5  24209909.389        2545.060
  -8914646.109 7  -6440704.146 5  22410885.995        2758.068
 93  5 11  6 27  0.0010000  0  8 17  1 23 28 22 21 26  3             0.001858220
 -14451492.189 8 -11262991.506 8  21519441.800        1180.398
  -1827467.424 5  -1319237.302 5  24973165.247       -3724.136
 -15637621.085 8 -12661708.352 9  21059700.910         474.219
 -13808948.135 7 -10773653.261 6  22754687.338       -2629.958
  -2483938.021 5  -1938627.511 5  24648815.412        2150.065
 -16142024.540 7 -12630301.762 7  21928000.383       -1737.215
   2520120.802 6   1948390.448 5  24224475.055        2558.089
  -8831665.500 7  -6376043.945 5  22426677.285        2773.885
 93  5 11  6 27 30.0010000  0  8 17  1 23 28 22 21 26  3             0.001858520
 -14415946.574 8 -11235293.622 8  21526205.239        1189.426
  -1939200.261 5  -1406301.864 5  24951904.216       -3724.285
 -15623226.754 8 -12650491.979 9  21062440.066         485.801
 -13887644.107 7 -10834974.757 6  22739711.814       -2616.171
  -2419337.548 5  -1888289.650 5  24661109.109        2157.073
 -16193981.124 7 -12670787.371 7  21918112.616       -1726.411
   2597049.958 6   2008335.224 5  24239114.121        2570.702
  -8748211.602 7  -6311014.977 5  22442557.681        2789.619
 93  5 11  6 28  0.0010000  0  8 17  1 23 28 22 21 26  3             0.001858830
 -14380128.364 8 -11207383.328 8  21533021.171        1198.385
  -2050925.326 5  -1493360.298 5  24930643.632       -3723.960
 -15608475.216 8 -12638997.270 9  21065247.134         497.553
 -13965923.138 7 -10895971.361 6  22724815.976       -2602.459
  -2354515.996 5  -1837779.299 5  24673447.091        2164.354
 -16245619.175 7 -12711024.803 7  21908286.519       -1716.191
   2674372.446 6   2068586.504 5  24253828.415        2584.113
  -8664283.346 7  -6245616.351 5  22458528.866        2805.471
 93  5 11  6 28 30.0010000  0  8 17  1 23 28 22 21 26  3             0.001859140
 -14344044.705 7 -11179266.189 8  21539887.886        1207.210
  -2162622.089 5  -1580396.624 5  24909389.320       -3722.557
 -15593377.499 8 -12627232.810 9  21068120.143         508.934
 -14043798.489 7 -10956653.476 6  22709996.878       -2589.135
  -2289472.967 5  -1787096.411 5  24685822.379        2171.772
 -16296952.151 7 -12751024.502 7  21898518.272       -1705.860
   2752095.452 6   2129149.935 5  24268618.531        2597.487
  -8579877.571 7  -6179845.659 6  22474590.655        2821.438
 93  5 11  6 29  0.0010000  0  8 17  1 23 28 22 21 26  3             0.001859490
 -14307695.791 8 -11150942.362 8  21546805.126        1216.083
  -2274264.922 5  -1667391.033 5  24888144.535       -3720.102
 -15577944.464 8 -12615207.069 9  21071056.572         520.084
 -14121267.697 7 -11017019.047 6  22695255.251       -2575.367
  -2224209.354 5  -1736241.835 5  24698241.349        2179.261
 -16347971.618 7 -12790779.908 7  21888809.644       -1695.420
   2830215.796 6   2190022.887 5  24283484.784        2610.524
  -8494990.739 7  -6113700.084 5  22490744.333        2837.520
 93  5 11  6 29 30.0010000  0  7 17  1 23 28 21 26  3                0.001859860
 -14271081.031 7 -11122411.398 8  21553772.554        1224.938
  -2385821.977 5  -1754318.637 5  24866913.935       -3717.088
 -15562169.658 8 -12602914.992 9  21074058.513         531.626
 -14198313.959 7 -11077055.046 6  22680594.873       -2560.940
 -16398674.724 7 -12830288.799 7  21879161.291       -1684.763
   2908720.868 6   2251195.695 5  24298424.541        2623.206
  -8409620.560 7  -6047177.897 5  22506989.767        2853.594
 93  5 11  6 30  0.0010000  0  8 17  1 23 28 22 21 26  3             0.001860260
 -14234200.204 8 -11093673.089 8  21560790.856        1233.945
  -2497303.087 5  -1841186.915 5  24845698.320       -3714.969
 -15546060.024 8 -12590362.032 9  21077123.951         542.341
 -14274928.074 7 -11136754.382 6  22666015.076       -2546.720
   2214759.39615     22224.33811  24723219.648        2195.268
 -16449062.654 7 -12869552.094 7  21869572.671       -1674.214
   2987600.224 6   2312660.138 5  24313434.618        2635.299
  -8323775.276 6  -5980285.483 5  22523325.496        2869.216
 93  5 11  6 30 30.0010000  0  8 17  1 23 28 22 21 26  3             0.001860670
 -14197036.165 7 -11064714.101 8  21567862.971        1243.433
  -2608709.433 5  -1927997.039 5  24824498.600       -3712.500
 -15529621.867 8 -12577553.068 9  21080251.834         553.450
 -14351112.562 7 -11196118.869 6  22651517.312       -2532.289
   2280739.925 5     73637.731 3  24735773.724        2203.337
 -16499113.295 7 -12908552.573 7  21860048.282       -1662.668
   3066838.006 6   2374403.820 5  24328512.570        2647.037
  -8237455.190 6  -5913023.103 5  22539751.404        2885.015
 93  5 11  6 31  0.0010000  0  8 17  1 23 28 22 21 26  3             0.001861090
 -14159590.727 8 -11035535.817 8  21574988.444        1252.565
  -2720052.243 5  -2014757.706 5  24803312.526       -3710.808
 -15512846.289 8 -12564481.186 9  21083444.626         564.879
 -14426853.438 7 -11255137.710 6  22637104.520       -2517.340
   2346949.763 5    125229.616 3  24748373.282        2210.550
 -16548819.279 7 -12947284.487 7  21850589.861       -1651.308
   3146427.922 5   2436421.986 5  24343656.780        2658.697
  -8150664.602 6  -5845394.135 5  22556266.941        2900.602
 93  5 11  6 31 30.0010000  0  8 17  1 23 28 22 21 26  3             0.001861520
 -14121873.321 8 -11006145.648 8  21582166.198        1261.960
  -2831351.606 5  -2101484.368 5  24782132.256       -3709.142
 -15495724.640 8 -12551139.633 9  21086702.599         576.493
 -14502148.835 7 -11313809.451 6  22622775.939       -2502.392
   2413379.507 5    176993.048 5  24761014.454        2217.910
 -16598178.623 7 -12985746.282 7  21841197.025       -1639.297
   3226363.951 5   2498709.803 5  24358868.269        2670.613
  -8063410.292 6  -5777403.786 5  22572870.957        2916.120
 93  5 11  6 32  0.0010000  0  8 17  1 23 28 22 21 26  3             0.001861930
 -14083877.943 7 -10976538.858 8  21589396.692        1271.162
  -2942611.374 5  -2188180.288 5  24760958.479       -3707.946
 -15478257.738 8 -12537529.071 9  21090026.459         587.909
 -14577007.542 7 -11372140.880 6  22608530.938       -2488.096
   2480011.198 5    228913.831 5  24773694.444        2224.134
 -16647176.655 7 -13023926.558 7  21831872.629       -1627.242
   3306662.073 5   2561279.736 5  24374148.336        2682.676
  -7975693.390 7  -5709052.964 5  22589562.991        2931.437
 93  5 11  6 32 30.0010000  0  8 17  1 23 28 22 21 26  3             0.001862340
 -14045612.816 8 -10946721.877 8  21596678.330        1279.652
  -3053825.106 5  -2274840.331 5  24739796.419       -3706.489
 -15460447.096 8 -12523650.634 9  21093415.833         599.328
 -14651430.441 7 -11430132.701 6  22594368.875       -2473.361
   2546823.758 5    280975.351 5  24786406.411        2230.056
 -16695818.621 7 -13061829.346 7  21822616.689       -1615.755
   3387320.193 6   2624130.202 5  24389496.873        2694.501
  -7887521.058 6  -5640347.297 5  22606341.904        2946.441
 93  5 11  6 33  0.0010000  0  8 17  1 23 28 22 21 26  3             0.001862760
 -14007094.894 7 -10916707.920 8  21604007.987        1288.244
  -3164997.345 5  -2361467.921 5  24718643.188       -3704.949
 -15442298.953 8 -12509509.223 9  21096868.822         610.470
 -14725405.368 7 -11487775.495 6  22580291.341       -2458.415
   2613822.652 5    333182.328 5  24799156.958        2236.465
 -16744119.399 7 -13099466.299 7  21813425.388       -1604.547
   3468335.654 6   2687259.175 5  24404913.560        2706.419
  -7798897.590 6  -5571290.107 5  22623205.894        2961.536
 93  5 11  6 33 30.0010000  0  8 17  1 23 28 22 21 26  3             0.001863180
 -13968311.035 7 -10886486.746 8  21611387.358        1297.452
  -3276109.011 5  -2448048.363 5  24697498.888       -3702.518
 -15423819.619 8 -12495109.733 9  21100385.476         621.315
 -14798936.391 7 -11545072.374 6  22566298.156       -2443.641
   2681013.093 5    385538.294 4  24811942.796        2242.955
 -16792094.868 7 -13136849.764 7  21804296.231       -1594.055
   3549708.941 6   2750666.937 5  24420398.771        2718.474
  -7709821.078 6  -5501879.859 5  22640156.447        2976.652
 93  5 11  6 34  0.0010000  0  8 17  1 23 28 22 21 26  3             0.001863620
 -13929248.402 7 -10856048.337 8  21618820.713        1306.824
  -3387138.441 5  -2534564.876 5  24676370.554       -3699.445
 -15405014.237 8 -12480456.179 9  21103964.008         632.565
 -14872013.281 7 -11602015.363 6  22552392.371       -2428.087
   2748399.107 5    438046.894 5  24824765.476        2249.659
 -16839772.380 7 -13174001.045 7  21795223.310       -1584.547
   3631438.202 6   2814352.024 5  24435952.030        2730.055
  -7620288.866 6  -5432114.515 5  22657194.190        2992.004
 93  5 11  6 34 30.0010000  0  8 17  1 23 28 22 21 26  3             0.001864080
 -13889898.061 7 -10825385.728 8  21626308.779        1316.367
  -3498082.115 5  -2621014.362 5  24655258.999       -3696.969
 -15385867.130 8 -12465536.356 9  21107607.768         643.813
 -14944621.823 7 -11658593.434 6  22538575.648       -2412.775
   2816000.107 5    490723.027 5  24837629.406        2256.961
 -16887173.117 7 -13210936.671 7  21786203.447       -1575.535
   3713507.689 6   2878302.246 5  24451569.672        2741.206
  -7530293.354 6  -5361988.180 5  22674319.656        3007.349
 93  5 11  6 35  0.0010000  0  8 17  1 23 28 22 21 26  3             0.001864550
 -13850248.961 7 -10794490.360 8  21633853.813        1326.779
  -3608948.822 5  -2707403.893 5  24634161.810       -3694.412
 -15366378.372 8 -12450350.303 9  21111316.470         655.049
 -15016774.713 7 -11714816.447 6  22524845.852       -2397.741
   2883818.894 5    543568.557 4  24850535.787        2263.903
 -16934296.532 7 -13247656.174 7  21777235.904       -1566.327
   3795918.711 6   2942518.665 5  24467251.954        2752.644
  -7439833.474 6  -5291500.024 5  22691533.867        3022.765
 93  5 11  6 35 30.0010000  0  8 17  1 23 28 22 21 26  3             0.001865040
 -13810287.803 7 -10763351.792 8  21641458.140        1337.293
  -3719744.966 5  -2793738.513 5  24613077.706       -3692.241
 -15346564.668 8 -12434911.058 9  21115086.950         665.746
 -15088481.022 7 -11770691.456 6  22511200.519       -2382.636
   2951834.020 5    596567.371 5  24863477.047        2270.578
 -16981142.345 7 -13284159.382 7  21768321.283       -1556.419
   3878667.689 6   3006998.371 5  24482998.433        2763.712
  -7348916.398 6  -5220655.550 5  22708834.951        3038.124
 93  5 11  6 36  0.0010000  0  8 17  1 23 28 22 21 26  3             0.001865540
 -13770023.389 8 -10731976.924 8  21649120.625        1346.670
  -3830481.098 6  -2880026.389 5  24592005.029       -3690.573
 -15326434.465 8 -12419225.175 9  21118917.649         676.090
 -15159730.567 7 -11826210.560 6  22497642.027       -2367.830
   3020049.876 5    649722.709 4  24876459.608        2276.705
 -17027669.083 7 -13320413.968 7  21759467.425       -1545.539
   3961742.395 6   3071731.905 5  24498806.659        2774.215
  -7257541.124 6  -5149454.089 5  22726222.994        3053.044
 93  5 11  6 36 30.0010000  0  8 17  1 23 28 22 21 26  3             0.001866020
 -13729476.996 7 -10700382.338 8  21656836.231        1356.286
  -3941169.527 5  -2966276.998 5  24570942.850       -3688.487
 -15305995.819 8 -12403298.954 9  21122807.316         686.308
 -15230543.633 7 -11881389.569 6  22484165.926       -2352.966
   3088452.070 5    703023.309 5  24889475.467        2283.439
 -17073850.012 7 -13356399.082 7  21750679.448       -1533.043
   4045140.130 6   3136717.145 5  24514676.461        2785.760
  -7165715.202 6  -5077901.442 5  22743697.005        3068.409
 93  5 11  6 37  0.0010000  0  8 17  1 23 28 22 21 26  3             0.001866520
 -13688644.138 7 -10668564.534 8  21664606.244        1365.954
  -4051783.609 5  -3052469.695 5  24549893.084       -3685.474
 -15285260.654 8 -12387141.676 9  21126752.495         696.277
 -15300905.487 7 -11936216.948 6  22470776.734       -2337.661
   3157040.920 5    756469.209 5  24902525.711        2289.398
 -17119651.457 7 -13392088.500 7  21741963.700       -1520.331
   4128887.979 6   3201975.174 5  24530613.501        2797.480
  -7073432.089 6  -5005992.551 5  22761257.779        3083.704
 93  5 11  6 37 30.0010000  0  8 17  1 23 28 22 21 26  3             0.001867040
 -13647532.366 7 -10636529.387 8  21672429.808        1374.831
  -4162300.821 6  -3138586.966 5  24528860.550       -3682.136
 -15264221.904 8 -12370747.847 9  21130755.892         706.478
 -15370809.028 7 -11990687.210 6  22457474.386       -2322.488
   3225816.192 5    810060.117 5  24915613.551        2295.661
 -17165073.192 7 -13427482.032 7  21733320.456       -1507.759
   4212986.818 6   3267506.768 5  24546616.922        2809.144
  -6980691.831 6  -4933727.465 5  22778905.984        3098.829
 93  5 11  6 38  0.0010000  0  8 17  1 23 28 22 21 26  3             0.001867580
 -13606154.786 7 -10604287.124 8  21680303.887        1383.622
  -4272702.173 5  -3224613.958 5  24507851.743       -3678.029
 -15242860.446 8 -12354102.543 9  21134821.069         717.584
 -15440248.902 7 -12044796.214 6  22444260.371       -2306.970
   3294778.572 5    863797.081 5  24928739.701        2301.525
 -17210126.512 7 -13462588.502 7  21724747.353       -1496.244
   4297451.995 6   3333323.775 5  24562690.394        2821.827
  -6887493.678 6  -4861105.563 5  22796640.263        3114.021
 93  5 11  6 38 30.0010000  0  8 17  1 23 28 22 21 26  3             0.001868160
 -13564499.819 7 -10571828.729 8  21688230.311        1393.345
  -4382973.333 5  -3310539.479 5  24486868.830       -3673.322
 -15221164.818 8 -12337196.862 9  21138949.541         728.723
 -15509223.500 7 -12098542.632 6  22431135.648       -2291.152
   3363909.221 5    917665.160 5  24941893.127        2307.224
 -17254849.859 7 -13497437.849 7  21716236.433       -1485.363
   4382304.394 5   3399442.524 5  24578837.585        2834.939
  -6793841.436 6  -4788129.837 5  22814462.287        3129.242
 93  5 11  6 39  0.0010000  0  8 17  1 23 28 22 21 26  3             0.001868780
 -13522550.240 7 -10539140.751 8  21696212.995        1403.228
  -4493096.759 5  -3396349.824 5  24465911.279       -3668.334
 -15199130.676 8 -12320027.402 9  21143142.368         740.286
 -15577716.848 7 -12151914.042 6  22418101.024       -2275.122
   3433201.141 5    971658.639 5  24955080.174        2312.236
 -17299254.207 7 -13532038.594 7  21707786.972       -1475.119
   4467547.402 5   3465865.616 5  24595058.326        2847.670
  -6699730.929 6  -4714796.967 5  22832370.809        3144.540
 93  5 11  6 39 30.0010000  0  8 17  1 23 28 22 21 26  3             0.001869440
 -13480310.866 7 -10506226.957 8  21704251.120        1412.834
  -4603077.878 5  -3482049.373 5  24444982.636       -3663.774
 -15176748.201 8 -12302586.499 9  21147401.768         751.910
 -15645726.216 7 -12204908.364 6  22405159.788       -2258.544
   3502646.229 5   1025771.700 5  24968294.871        2317.532
 -17343356.585 7 -13566404.061 7  21699394.351       -1464.925
   4553161.079 5   3532577.598 5  24611350.501        2859.875
  -6605161.751 6  -4641106.723 5  22850366.620        3159.921
 93  5 11  6 40  0.0010000  0  8 17  1 23 28 22 21 26  3             0.001870120
 -13437784.251 7 -10473089.334 8  21712343.776        1422.281
  -4712933.888 5  -3567651.386 5  24424079.226       -3660.032
 -15154018.826 8 -12284875.294 9  21151726.984         763.252
 -15713234.618 7 -12257512.270 6  22392313.036       -2241.977
   3572235.308 5   1079996.900 5  24981536.885        2321.765
 -17387157.869 7 -13600534.914 7  21691059.292       -1455.154
   4639126.596 5   3599563.712 5  24627708.795        2870.968
  -6510135.279 6  -4567060.130 5  22868449.451        3174.900
 93  5 11  6 40 30.0010000  0  8 17  1 23 28 22 21 26  3             0.001870790
 -13394971.274 7 -10439728.590 8  21720490.448        1431.809
  -4822686.491 5  -3653172.817 5  24403193.095       -3656.795
 -15130952.509 8 -12266901.543 9  21156116.495         774.428
 -15780247.262 7 -12309729.901 6  22379560.912       -2225.450
   3641955.580 5   1134324.283 5  24994805.062        2326.375
 -17430653.108 7 -13634427.270 7  21682782.621       -1444.399
   4725413.700 6   3666800.407 5  24644128.669        2881.422
  -6414659.485 6  -4492663.402 5  22886618.033        3189.924
 93  5 11  6 41  0.0010000  0  8 17  1 23 28 22 21 26  3             0.001871460
 -13351886.595 7 -10406156.116 8  21728689.361        1440.565
  -4932346.838 5  -3738622.328 5  24382323.402       -3653.903
 -15107555.992 8 -12248670.490 9  21160568.363         785.413
 -15846764.745 7 -12361561.711 6  22366903.305       -2208.910
   3711816.504 5   1188761.374 5  25008098.731        2331.161
 -17473828.231 7 -13668070.188 7  21674566.431       -1433.873
   4812001.967 5   3734271.766 5  24660606.642        2891.028
  -6318742.321 6  -4417922.748 5  22904870.668        3204.342
 93  5 11  6 41 30.0010000  0  8 17  1 23 28 22 21 26  3             0.001872120
 -13308525.558 7 -10372368.291 8  21736940.650        1450.185
  -5041926.105 5  -3824008.748 5  24361471.088       -3651.322
 -15083823.256 8 -12230177.441 9  21165084.637         796.696
 -15912773.505 7 -12412997.081 6  22354341.889       -2191.657
   3781839.579 5   1243324.735 5  25021422.584        2336.996
 -17516673.970 7 -13701456.464 7  21666413.085       -1422.459
   4898876.511 5   3801966.233 5  24677137.421        2900.637
  -6222389.984 6  -4342843.036 5  22923205.616        3218.828
 93  5 11  6 42  0.0010000  0  8 17  1 23 28 22 21 26  3             0.001872780
 -13264872.334 7 -10338352.815 8  21745247.199        1460.247
  -5151419.584 5  -3909328.300 5  24340633.965       -3647.923
 -15059750.235 8 -12211419.241 9  21169665.777         808.210
 -15978268.295 7 -12464031.938 6  22341878.939       -2174.605
   3852037.458 5   1298024.275 5  25034782.331        2342.977
 -17559171.003 7 -13734571.022 7  21658326.432       -1410.521
   4986047.011 5   3869891.324 5  24693725.448        2910.913
  -6125606.894 6  -4267427.713 5  22941622.787        3233.218
 93  5 11  6 42 30.0010000  0  8 17  1 23 28 22 21 26  3             0.001873450
 -13220907.322 7 -10304094.363 7  21753614.047        1470.688
  -5260800.014 5  -3994559.661 5  24319819.978       -3644.166
 -15035336.586 8 -12192395.604 9  21174311.748         819.353
 -16043246.470 7 -12514664.302 6  22329514.230       -2157.278
   3922427.853 5   1352873.937 5  25048176.716        2349.851
 -17601296.380 7 -13767395.971 7  21650310.041       -1397.941
   5073535.607 5   3938064.239 5  24710373.432        2921.515
  -6028389.293 6  -4191673.758 5  22960122.586        3247.664
 93  5 11  6 43  0.0010000  0  8 17  1 23 28 22 21 26  3             0.001874150
 -13176627.156 7 -10269590.346 7  21762040.272        1481.335
  -5370057.605 5  -4079695.357 5  24299030.177       -3639.615
 -15010590.174 8 -12173112.684 9  21179020.860         830.319
 -16107699.564 7 -12564887.469 6  22317248.791       -2139.577
   3993025.422 5   1407884.811 5  25061611.677        2356.621
 -17643047.597 7 -13799929.368 7  21642365.083       -1385.503
   5161334.446 5   4006478.984 5  24727079.905        2931.620
  -5930737.342 6  -4115581.333 5  22978704.822        3262.228
 93  5 11  6 43 30.0010000  0  8 17  1 23 28 22 21 26  3             0.001874860
 -13132027.751 7 -10234837.560 7  21770527.447        1491.787
  -5479186.226 6  -4164730.720 5  24278264.558       -3635.673
 -14985524.458 8 -12153580.959 9  21183790.338         840.630
 -16171627.750 7 -12614701.627 6  22305083.701       -2122.412
   4063805.792 5   1463038.329 5  25075080.097        2362.045
 -17684429.611 7 -13832175.071 7  21634490.255       -1373.346
   5249437.870 5   4075130.948 5  24743846.176        2942.000
  -5832651.210 6  -4039150.589 5  22997370.194        3276.606
 93  5 11  6 44  0.0010000  0  8 17  1 23 28 22 21 26  3             0.001875580
 -13087127.022 7 -10199849.991 7  21779071.715        1501.521
  -5588186.293 6  -4249665.738 5  24257522.137       -3631.261
 -14960154.247 8 -12133811.952 9  21188618.244         850.437
 -16235046.018 7 -12664118.454 6  22293016.145       -2105.691
   4134741.101 5   1518312.540 5  25088578.496        2366.670
 -17725449.210 7 -13864138.386 7  21626683.740       -1361.651
   5337855.542 5   4144027.831 5  24760671.956        2952.347
  -5734131.879 6  -3962382.308 5  23016118.134        3291.000
 93  5 11  6 44 30.0010000  0  8 17  1 23 28 22 21 26  3             0.001876330
 -13041940.791 7 -10164639.929 7  21787670.358        1510.664
  -5697067.787 6  -4334508.390 5  24236803.021       -3627.483
 -14934505.127 8 -12113825.627 9  21193499.015         859.517
 -16297971.754 7 -12713151.480 6  22281041.446       -2089.364
   4205808.826 5   1573689.853 5  25102103.958        2371.065
 -17766132.830 7 -13895839.882 7  21618941.778       -1350.772
   5426579.777 5   4213163.623 5  24777556.017        2962.460
  -5635182.793 6  -3885279.136 5  23034947.809        3305.308
 93  5 11  6 45  0.0010000  0  8 17  1 23 28 22 21 26  3             0.001877070
 -12996493.707 7 -10129226.604 7  21796318.863        1519.187
  -5805833.344 6  -4419260.829 5  24216106.710       -3623.447
 -14908586.117 8 -12093628.990 9  21198431.312         868.480
 -16360408.918 7 -12761803.806 6  22269160.433       -2073.066
   4276988.931 5   1629154.907 5  25115649.651        2374.255
 -17806506.718 7 -13927300.058 7  21611258.737       -1340.675
   5515597.859 5   4282528.360 5  24794495.214        2972.442
  -5535811.713 6  -3807847.162 5  23053858.010        3319.277
 93  5 11  6 45 30.0010000  0  8 17  1 23 28 22 21 26  3             0.001877830
 -12950789.492 7 -10093612.945 7  21805016.342        1527.796
  -5914478.643 6  -4503919.433 5  24195432.591       -3619.546
 -14882391.120 8 -12073217.303 9  21203415.800         878.012
 -16422360.000 7 -12810077.366 6  22257371.084       -2057.021
   4348262.589 5   1684692.551 5  25129211.399        2377.640
 -17846571.216 7 -13958519.102 7  21603634.855       -1330.243
   5604938.608 5   4352144.482 5  24811495.836        2983.735
  -5436021.147 6  -3730088.321 5  23072847.301        3333.211
 93  5 11  6 46  0.0010000  0  8 17  1 23 28 22 21 26  3             0.001878610
 -12904827.177 7 -10057798.171 7  21813762.857        1536.282
  -6022999.247 5  -4588480.850 5  24174780.893       -3615.270
 -14855908.509 8 -12052581.493 9  21208455.141         887.405
 -16483828.602 7 -12857974.953 6  22245673.369       -2040.889
   4419643.977 5   1740314.437 5  25142792.696        2381.020
 -17886327.339 7 -13989497.877 7  21596069.610       -1320.367
   5694605.701 5   4422014.939 5  24828559.616        2993.910
  -5335816.447 6  -3652006.820 5  23091915.312        3346.709
 93  5 11  6 46 30.0010000  0  8 17  1 23 28 22 21 26  3             0.001879410
 -12858600.968 7 -10021777.740 7  21822558.996        1545.205
  -6131380.176 5  -4672933.537 5  24154156.283       -3610.293
 -14829137.666 8 -12031721.083 9  21213549.756         897.349
 -16544801.622 7 -12905486.373 6  22234071.063       -2023.842
   4491132.443 5   1796019.874 5  25156398.621        2384.708
 -17925785.437 7 -14020244.446 7  21588560.951       -1310.218
   5784578.024 5   4492123.224 5  24845682.112        3004.048
  -5235206.845 6  -3573609.718 5  23111060.566        3360.203
 93  5 11  6 47  0.0010000  0  8 17  1 23 28 22 21 26  3             0.001880220
 -12812100.833 7  -9985543.857 7  21831407.361        1554.845
  -6239612.124 5  -4757270.083 5  24133561.986       -3605.395
 -14802059.933 8 -12010621.561 9  21218702.886         907.637
 -16605250.458 7 -12952589.384 6  22222568.546       -2006.245
   4562726.089 5   1851807.305 5  25170023.046        2388.044
 -17964933.905 7 -14050749.709 7  21581111.458       -1299.625
   5874845.435 6   4562461.502 5  24862859.640        3013.730
  -5134196.050 6  -3494900.008 5  23130282.381        3373.565
 93  5 11  6 47 30.0010000  0  8 17  1 23 28 22 21 26  3             0.001881040
 -12765306.386 7  -9949080.658 7  21840311.897        1564.705
  -6347699.560 5  -4841493.922 5  24112994.721       -3600.548
 -14774676.933 8 -11989284.159 9  21223913.471         917.702
 -16665177.800 7 -12999285.982 6  22211164.881       -1988.872
   4634422.956 5   1907674.958 5  25183666.715        2391.667
 -18003765.542 7 -14081008.113 7  21573721.984       -1289.383
   5965399.132 5   4633022.835 5  24880091.169        3022.896
  -5032787.183 6  -3415880.198 5  23149580.208        3386.662
 93  5 11  6 48  0.0010000  0  8 17  1 23 28 22 21 26  3             0.001881840
 -12718217.394 7  -9912387.957 7  21849272.223        1574.608
  -6455639.284 6  -4925602.765 5  24092453.578       -3595.295
 -14746999.478 8 -11967717.286 9  21229180.297         927.563
 -16724575.157 7 -13045569.604 7  22199861.855       -1970.753
   4706223.141 5   1963623.491 5  25197327.010        2395.042
 -18042298.112 7 -14111033.477 7  21566389.391       -1279.363
   6056207.698 5   4703782.709 5  24897371.443        3031.210
  -4930986.832 6  -3336555.298 5  23168952.628        3399.928
 93  5 11  6 48 30.0010000  0  8 17  1 23 28 22 21 26  3             0.001882650
 -12670830.204 7  -9875462.868 7  21858289.710        1584.425
  -6563427.175 6  -5009593.346 5  24071942.391       -3590.652
 -14719021.728 8 -11945916.463 9  21234504.079         937.523
 -16783427.359 7 -13091428.468 6  22188662.977       -1952.811
   4778124.425 5   2019650.532 5  25211010.116        2398.437
 -18080520.104 7 -14140816.835 7  21559115.904       -1268.679
   6147280.730 6   4774748.722 5  24914701.922        3040.421
  -4828785.576 6  -3256917.952 5  23188400.804        3413.212
 93  5 11  6 49  0.0010000  0  7 17  1 23 28 21 26  3                0.001883500
 -12623151.320 7  -9838310.469 7  21867362.689        1594.190
  -6671079.775 6  -5093478.401 5  24051457.059       -3586.238
 -14690751.634 8 -11923887.811 9  21239884.064         946.917
 -16841749.529 7 -13136874.314 6  22177564.193       -1935.546
 -18118416.225 7 -14170346.256 7  21551904.416       -1257.744
   6238633.232 5   4845932.490 5  24932084.491        3049.794
  -4726186.961 6  -3176971.000 5  23207924.160        3426.409
 93  5 11  6 49 30.0010000  0  7 17  1 23 28 21 26  3                0.001884340
 -12575185.081 7  -9800934.182 7  21876490.571        1603.447
  -6778603.232 6  -5177262.814 5  24030995.588       -3582.140
 -14662207.916 8 -11901645.943 9  21245315.944         955.977
 -16899560.152 7 -13181921.513 7  22166562.726       -1918.506
 -18155987.755 7 -14199622.758 7  21544755.028       -1247.121
   6330266.260 5   4917334.880 5  24949521.750        3059.000
  -4623194.468 6  -3096717.202 5  23227522.938        3439.472
 93  5 11  6 50  0.0010000  0  7 17  1 23 28 21 26  3                0.001885180
 -12526949.788 7  -9763348.253 7  21885669.745        1612.468
  -6886003.038 5  -5260951.010 5  24010555.722       -3577.797
 -14633391.673 8 -11879191.729 9  21250799.066         965.127
 -16956858.420 7 -13226569.513 7  22155659.307       -1901.313
 -18193237.110 7 -14228648.223 7  21537666.343       -1236.068
   6422168.583 5   4988947.025 5  24967010.491        3067.978
  -4519813.213 6  -3016160.451 5  23247196.101        3452.461
 93  5 11  6 50 30.0010000  0  8 31 17  1 23 28 21 26  3             0.001886030
  -1348096.08616  -1073485.74115  25169371.297       -3224.346
 -12478439.986 7  -9725548.393 7  21894901.016        1621.562
  -6993270.070 6  -5344535.656 5  23990143.727       -3573.166
 -14604310.255 8 -11856530.885 9  21256333.317         973.514
 -17013641.249 7 -13270815.863 7  22144853.788       -1884.209
 -18230149.861 7 -14257411.370 7  21530642.046       -1224.811
   6514347.090 6   5060774.449 5  24984551.022        3077.002
  -4416041.071 6  -2935299.074 5  23266943.329        3465.428
 93  5 11  6 51  0.0010000  0  8 31 17  1 23 28 21 26  3             0.001886860
  -1444719.376 5  -1148776.542 5  25150983.999       -3217.358
 -12429656.757 7  -9687535.490 7  21904183.690        1630.601
  -7100390.043 6  -5428005.690 5  23969759.312       -3568.234
 -14574985.510 8 -11833680.433 9  21261913.482         981.289
 -17069909.473 7 -13314661.205 7  22134146.489       -1867.181
 -18266737.496 7 -14285921.215 7  21523679.607       -1214.574
   6606778.230 5   5132798.756 5  25002140.159        3084.828
  -4311885.162 6  -2854138.740 5  23286763.477        3477.951
 93  5 11  6 51 30.0010000  0  8 31 17  1 23 28 21 26  3             0.001887700
  -1541133.272 5  -1223904.303 4  25132637.108       -3210.342
 -12380610.902 7  -9649317.932 7  21913516.838        1639.014
  -7207353.045 6  -5511353.500 5  23949405.031       -3562.641
 -14545427.744 8 -11810648.413 9  21267538.221         989.308
 -17125668.790 7 -13358110.019 7  22123535.423       -1850.125
 -18303022.726 7 -14314195.406 7  21516774.737       -1204.502
   6699431.309 6   5204995.919 5  25019771.590        3091.971
  -4207358.599 6  -2772689.471 5  23306654.592        3490.219
 93  5 11  6 52  0.0010000  0  8 31 17  1 23 28 21 26  3             0.001888530
  -1637336.039 5  -1298867.384 5  25114329.239       -3203.489
 -12331316.254 7  -9610906.524 7  21922896.923        1647.206
  -7314146.096 6  -5594568.839 5  23929083.649       -3556.940
 -14515625.407 8 -11787425.805 9  21273209.063         997.339
 -17180916.938 7 -13401160.512 7  22113022.143       -1833.169
 -18339006.380 7 -14342234.608 7  21509927.168       -1194.565
   6792303.582 5   5277363.946 5  25037445.138        3099.472
  -4102464.027 6  -2690953.462 5  23326615.526        3502.334
 93  5 11  6 52 30.0010000  0  8 31 17  1 23 28 21 26  3             0.001889370
  -1733329.541 5  -1373667.407 4  25096060.356       -3196.076
 -12281769.034 7  -9572298.301 7  21932325.667        1655.718
  -7420766.300 6  -5677649.405 5  23908795.497       -3551.258
 -14485577.145 8 -11764011.585 9  21278927.015        1005.983
 -17235653.049 7 -13443812.026 7  22102606.705       -1816.060
 -18374688.214 7 -14370038.608 7  21503137.447       -1184.268
   6885413.956 6   5349917.453 5  25055163.668        3107.479
  -3997203.880 6  -2608932.624 5  23346646.352        3514.655
 93  5 11  6 53  0.0010000  0  8 31 17  1 23 28 21 26  3             0.001890220
  -1829093.285 5  -1448288.378 4  25077836.515       -3188.063
 -12231966.344 7  -9533490.996 7  21941802.844        1664.469
  -7527222.478 6  -5760602.310 5  23888537.271       -3546.095
 -14455254.911 8 -11740383.864 9  21284697.470        1015.635
 -17289883.304 7 -13486069.338 7  22092286.756       -1799.234
 -18410061.966 7 -14397602.548 7  21496406.197       -1173.951
   6978764.060 6   5422657.813 5  25072928.259        3115.818
  -3891574.388 6  -2526623.991 5  23366747.037        3527.010
 93  5 11  6 53 30.0010000  0  8 31 17  1 23 28 21 26  3             0.001891050
  -1924617.315 5  -1522722.794 4  25059656.572       -3180.122
 -12181902.696 7  -9494480.365 7  21951329.791        1673.214
  -7633531.558 6  -5843440.523 5  23868306.712       -3541.230
 -14424632.365 8 -11716522.139 9  21290524.427        1025.897
 -17343605.328 7 -13527930.661 7  22082063.744       -1782.085
 -18445126.591 7 -14424925.623 7  21489733.738       -1163.749
   7072367.467 5   5495595.576 5  25090740.911        3124.543
  -3785572.572 6  -2444025.213 5  23386918.145        3539.515
 93  5 11  6 54  0.0010000  0  8 31 17  1 23 28 21 26  3             0.001891890
  -2019908.869 5  -1596975.829 5  25041523.105       -3172.663
 -12131574.430 7  -9455263.559 7  21960906.721        1682.164
  -7739713.610 6  -5926179.691 5  23848102.277       -3537.632
 -14393714.591 8 -11692430.370 9  21296408.023        1035.348
 -17396811.016 7 -13569389.621 7  22071939.574       -1764.762
 -18479898.913 7 -14452020.932 7  21483116.529       -1154.410
   7166223.290 5   5568729.974 5  25108599.899        3132.690
  -3679204.765 6  -2361141.252 5  23407159.151        3551.528
 93  5 11  6 54 30.0010000  0  8 31 17  1 23 28 21 26  3             0.001892710
  -2114964.564 5  -1671045.103 5  25023435.669       -3164.513
 -12080970.370 7  -9415831.823 7  21970536.782        1691.444
  -7845779.845 6  -6008828.713 5  23827917.468       -3533.531
 -14362512.894 8 -11668117.360 9  21302345.784        1044.841
 -17449495.443 7 -13610442.408 7  22061913.655       -1747.447
 -18514391.792 7 -14478898.468 8  21476553.252       -1145.082
   7260320.507 5   5642052.431 5  25126505.381        3140.292
  -3572475.454 6  -2277975.640 5  23427469.404        3563.566
 93  5 11  6 55  0.0010000  0  8 31 17  1 23 28 21 26  3             0.001893520
  -2209779.280 5  -1744926.558 5  25005394.476       -3156.642
 -12030084.362 7  -9376180.382 7  21980219.831        1700.969
  -7951717.561 6  -6091377.587 5  23807757.532       -3528.990
 -14331026.925 8 -11643582.831 9  21308337.404        1053.983
 -17501650.530 7 -13651082.738 7  22051988.059       -1729.542
 -18548603.674 7 -14505557.071 8  21470043.298       -1135.777
   7354644.906 5   5715551.994 5  25144455.608        3148.040
  -3465385.027 6  -2194528.613 5  23447847.783        3575.524
 93  5 11  6 55 30.0010000  0  8 31 17  1 23 28 21 26  3             0.001894330
  -2304367.231 5  -1818631.514 4  24987397.235       -3149.119
 -11978923.579 7  -9336314.846 7  21989955.599        1709.870
  -8057517.954 6  -6173819.359 5  23787624.610       -3524.134
 -14299285.397 8 -11618849.168 9  21314377.863        1062.031
 -17553263.683 7 -13691300.754 7  22042166.485       -1711.261
 -18582545.038 7 -14532004.883 8  21463584.532       -1126.867
   7449197.702 5   5789229.459 5  25162448.913        3155.556
  -3357942.681 6  -2110807.345 5  23468293.619        3587.068
 93  5 11  6 56  0.0010000  0  8 31 17  1 23 28 21 26  3             0.001895130
  -2398718.016 5  -1892151.532 5  24969443.871       -3140.844
 -11927486.020 7  -9296233.634 7  21999743.965        1719.153
  -8163160.418 6  -6256138.100 5  23767521.398       -3518.420
 -14267306.121 8 -11593930.259 9  21320463.071        1070.047
 -17604327.094 7 -13731090.418 7  22032449.631       -1692.929
 -18616208.499 7 -14558236.115 8  21457177.984       -1117.285
   7543976.092 5   5863082.800 5  25180484.434        3163.182
  -3250154.076 6  -2026816.316 5  23488804.749        3598.644
 93  5 11  6 56 30.0010000  0  8 31 17  1 23 28 21 26  3             0.001895950
  -2492815.735 6  -1965474.316 5  24951537.869       -3132.357
 -11875777.110 7  -9255940.971 7  22009584.114        1727.952
  -8268613.717 6  -6338309.530 5  23747455.868       -3511.821
 -14235081.596 8 -11568820.228 9  21326594.835        1078.133
 -17654848.117 7 -13770457.456 7  22022836.177       -1675.157
 -18649574.461 7 -14584235.568 8  21450828.040       -1107.128
   7638989.806 5   5937119.387 5  25198564.849        3170.951
  -3142018.474 6  -1942554.790 5  23509382.854        3610.021
 93  5 11  6 57  0.0010000  0  8 31 17  1 23 28 21 26  3             0.001896780
  -2586657.079 5  -2038597.376 5  24933680.684       -3123.891
 -11823806.885 7  -9215444.695 7  22019473.405        1736.504
  -8373864.832 6  -6420323.341 5  23727425.363       -3505.064
 -14202620.896 8 -11543526.175 9  21332771.889        1085.664
 -17704827.196 7 -13809402.163 7  22013325.983       -1657.070
 -18682632.845 7 -14609995.335 8  21444537.945       -1096.856
   7734238.583 5   6011339.202 5  25216689.765        3178.704
  -3033538.897 6  -1858025.231 5  23530025.579        3621.497
 93  5 11  6 57 30.0010000  0  8 31 17  1 23 28 21 26  3             0.001897620
  -2680243.421 6  -2111521.784 5  24915871.264       -3115.206
 -11771586.776 7  -9174753.730 7  22029410.726        1744.763
  -8478911.784 6  -6502178.021 5  23707435.094       -3498.025
 -14169932.083 8 -11518054.364 9  21338992.383        1093.688
 -17754261.652 7 -13847922.514 7  22003919.004       -1638.709
 -18715383.658 7 -14635515.432 8  21438305.742       -1086.553
   7829714.826 5   6085736.275 5  25234857.534        3186.221
  -2924720.036 6  -1773231.389 5  23550733.421        3632.758
 93  5 11  6 58  0.0010000  0  8 31 17  1 23 28 21 26  3             0.001898470
  -2773564.744 6  -2184239.617 5  24898112.467       -3106.336
 -11719114.477 7  -9133866.231 7  22039395.784        1753.051
  -8583738.886 5  -6583861.500 5  23687487.251       -3490.687
 -14136991.996 8 -11492386.779 9  21345260.992        1102.259
 -17803152.781 7 -13886019.506 7  21994615.255       -1620.806
 -18747815.132 7 -14660786.701 8  21432133.624       -1075.693
   7925411.728 5   6160305.342 5  25253067.204        3193.499
  -2815556.416 6  -1688168.931 5  23571505.635        3644.382
 93  5 11  6 58 30.0010000  0  8 31 17  1 23 28 21 26  3             0.001899330
  -2866639.162 6  -2256765.056 5  24880401.245       -3098.201
 -11666412.075 7  -9092799.395 7  22049424.321        1760.805
  -8688364.473 6  -6665387.889 5  23667576.529       -3484.296
 -14103802.843 8 -11466525.097 9  21351577.029        1110.557
 -17851513.434 7 -13923703.117 7  21985412.387       -1602.842
 -18779931.296 7 -14685812.273 8  21426021.882       -1065.168
   8021317.615 5   6235037.230 5  25271317.169        3200.322
  -2706056.703 6  -1602844.481 5  23592343.450        3655.617
 93  5 11  6 59  0.0010000  0  8 31 17  1 23 28 21 26  3             0.001900180
  -2959463.853 6  -2329095.979 5  24862735.996       -3090.039
 -11613471.388 7  -9051546.916 7  22059498.608        1768.717
  -8792808.499 6  -6746772.759 5  23647702.280       -3478.614
 -14070361.299 8 -11440466.751 9  21357940.886        1119.143
 -17899322.213 7 -13960956.701 7  21976314.614       -1584.382
 -18811732.148 7 -14710592.149 8  21419970.785       -1054.791
   8117424.092 5   6309925.352 5  25289606.238        3206.913
  -2596219.056 6  -1517256.718 5  23613244.952        3666.793
 93  5 11  6 59 30.0010000  0  8 31 17  1 23 28 21 26  3             0.001901000
  -3052051.013 6  -2401241.793 5  24845116.173       -3082.291
 -11560290.776 7  -9010107.492 7  22069618.680        1776.841
  -8897089.376 6  -6828030.590 5  23627857.423       -3473.315
 -14036653.382 8 -11414200.836 9  21364354.874        1128.164
 -17946581.276 7 -13997781.951 7  21967321.888       -1566.049
 -18843229.131 7 -14735135.246 8  21413977.223       -1044.818
   8213729.177 5   6384968.280 5  25307932.867        3213.648
  -2486053.317 6  -1431413.356 5  23634209.077        3677.537
 93  5 11  7  0  0.0010000  0  8 31 17  1 23 28 21 26  3             0.001901820
  -3144395.424 6  -2473198.415 5  24827542.820       -3074.143
 -11506855.340 7  -8968469.498 7  22079787.769        1785.430
  -9001205.938 6  -6909160.324 5  23608045.356       -3468.010
 -14002682.415 8 -11387729.953 9  21370819.130        1136.404
 -17993291.164 7 -14034179.244 7  21958432.873       -1547.901
 -18874414.097 7 -14759435.203 8  21408042.740       -1034.403
   8310241.735 5   6460172.881 5  25326298.588        3220.365
  -2375558.109 5  -1345313.216 5  23655235.199        3688.371
 93  5 11  7  0 30.0010000  0  8 31 17  1 23 28 21 26  3             0.001902610
  -3236498.011 6  -2544966.618 5  24810015.923       -3065.948
 -11453148.938 7  -8926620.338 7  22090007.997        1795.217
  -9105167.362 6  -6990169.161 5  23588263.005       -3462.671
 -13968464.092 8 -11361066.322 9  21377330.482        1144.836
 -18039444.723 7 -14070143.037 7  21949649.773       -1528.946
 -18905291.827 7 -14783495.764 8  21402166.889       -1024.154
   8406955.071 5   6535533.926 5  25344702.788        3227.059
  -2264741.034 6  -1258962.274 5  23676323.365        3699.185
 93  5 11  7  1  0.0010000  0  8 31 17  1 23 28 21 26  3             0.001903380
  -3328351.781 6  -2616540.992 5  24792537.842       -3057.807
 -11399143.855 7  -8884538.465 7  22100284.493        1805.255
  -9208967.412 6  -7071052.352 5  23568510.062       -3457.136
 -13934003.039 8 -11334213.551 9  21383888.430        1152.562
 -18085038.165 7 -14105670.408 7  21940973.749       -1510.579
 -18935863.595 7 -14807317.906 8  21396349.597       -1013.992
   8503859.554 5   6611043.917 5  25363142.752        3233.311
  -2153602.066 5  -1172360.566 5  23697472.759        3709.891
 93  5 11  7  1 30.0010000  0  8 31 17  1 23 28 21 26  3             0.001904140
  -3419963.221 5  -2687926.460 5  24775104.890       -3049.486
 -11344829.805 7  -8842215.823 7  22110620.018        1815.632
  -9312584.875 6  -7151793.200 5  23548792.202       -3450.697
 -13899322.384 8 -11307189.671 9  21390487.785        1159.283
 -18130086.632 7 -14140773.082 7  21932401.834       -1492.510
 -18966135.464 7 -14830906.364 8  21390589.463       -1004.189
   8600954.023 6   6686701.968 5  25381618.754        3239.584
  -2042146.012 5  -1085511.760 5  23718681.467        3720.323
 93  5 11  7  2  0.0010000  0  8 31 17  1 23 28 21 26  3             0.001904890
  -3511317.737 5  -2759111.766 5  24757721.038       -3040.641
 -11290214.017 7  -8799658.083 7  22121013.131        1825.567
  -9416007.009 6  -7232381.811 5  23529111.503       -3444.175
 -13864454.529 8 -11280019.908 9  21397122.780        1165.564
 -18174594.266 7 -14175454.360 7  21923931.538       -1474.538
 -18996120.135 7 -14854271.033 8  21384883.414        -994.919
   8698226.583 6   6762498.759 5  25400130.214        3245.254
  -1930377.153 5   -998419.185 5  23739950.609        3730.746
 93  5 11  7  2 30.0010000  0  8 31 17  1 23 28 21 26  3             0.001905640
  -3602403.871 5  -2830088.009 5  24740388.254       -3031.847
 -11235301.856 7  -8756869.396 7  22131462.319        1835.034
  -9519232.612 6  -7312817.399 5  23509469.161       -3437.673
 -13829386.123 8 -11252693.874 9  21403796.610        1172.073
 -18218556.145 7 -14209710.368 7  21915566.109       -1456.490
 -19025839.131 7 -14877428.674 8  21379228.089        -986.521
   8795671.690 5   6838430.042 5  25418674.278        3251.084
  -1818294.326 6   -911081.992 5  23761278.969        3741.007
 93  5 11  7  3  0.0010000  0  8 31 17  1 23 28 21 26  3             0.001906390
  -3693217.820 5  -2900852.066 5  24723107.173       -3022.362
 -11180119.555 7  -8713870.193 7  22141963.416        1843.661
  -9622256.206 6  -7393095.447 5  23489863.525       -3430.484
 -13794129.174 8 -11225220.924 9  21410505.675        1178.466
 -18261982.114 7 -14243548.761 7  21907302.391       -1438.502
 -19055302.181 7 -14900386.898 8  21373621.229        -977.831
   8893292.587 5   6914498.247 5  25437250.253        3257.238
  -1705903.399 6   -823504.728 5  23782666.044        3751.386
 93  5 11  7  3 30.0010000  0  8 31 17  1 23 28 21 26  3             0.001907160
  -3783743.698 5  -2971391.595 5  24705880.844       -3012.563
 -11124688.595 7  -8670677.241 6  22152511.467        1851.585
  -9725064.420 6  -7473205.691 5  23470299.993       -3423.526
 -13758671.916 8 -11197591.903 9  21417253.273        1185.413
 -18304858.475 7 -14276958.902 7  21899142.957       -1419.877
 -19084516.149 7 -14923151.011 8  21368062.269        -969.700
   8991104.441 5   6990715.252 5  25455862.648        3263.598
  -1593205.737 6   -735688.328 5  23804111.996        3761.504
 93  5 11  7  4  0.0010000  0  8 31 17  1 23 28 21 26  3             0.001907940
  -3873970.672 5  -3041698.331 5  24688710.501       -3002.692
 -11069027.332 7  -8627304.845 6  22163103.233        1859.260
  -9827661.159 6  -7553151.214 5  23450777.168       -3416.500
 -13722989.299 8 -11169787.263 9  21424043.444        1193.482
 -18347168.444 7 -14309927.702 7  21891092.393       -1400.878
 -19113473.106 7 -14945714.854 8  21362551.684        -960.750
   9089106.023 5   7067080.106 5  25474512.810        3269.837
  -1480200.712 6   -647632.462 5  23825616.320        3771.813
 93  5 11  7  4 30.0010000  0  8 31 17  1 23 28 21 26  3             0.001908720
  -3963906.863 5  -3111778.450 5  24671596.357       -2993.004
 -11013125.466 7  -8583744.940 7  22173740.990        1867.504
  -9930046.550 6  -7632931.997 5  23431293.714       -3409.254
 -13687058.054 8 -11141788.881 9  21430880.280        1201.726
 -18388900.623 7 -14342446.280 7  21883151.080       -1381.342
 -19142149.240 7 -14968059.891 8  21357094.392        -950.848
   9187299.420 5   7143594.495 5  25493198.735        3276.495
  -1366887.101 5   -559336.158 5  23847178.690        3782.113
 93  5 11  7  5  0.0010000  0  7 31 17  1 23 28 21  3                0.001909500
  -4053552.470 5  -3181632.109 5  24654537.788       -2983.077
 -10956974.405 7  -8539990.859 6  22184425.881        1876.126
 -10032215.456 6  -7712544.071 5  23411852.003       -3401.913
 -13650881.563 8 -11113599.409 9  21437764.685        1210.304
 -18430049.273 7 -14374510.155 7  21875320.392       -1361.763
 -19170514.159 7 -14990162.440 8  21351696.826        -940.129
  -1253267.850 5   -470801.816 5  23868800.086        3792.367
 93  5 11  7  5 30.0010000  0  7 31 17  1 23 28 21  3                0.001910270
  -4142900.664 6  -3251254.000 5  24637534.984       -2973.353
 -10900551.639 7  -8496025.094 6  22195163.310        1885.373
 -10134168.999 6  -7791988.434 5  23392450.653       -3395.116
 -13614436.527 8 -11085200.690 9  21444700.323        1219.299
 -18470599.670 7 -14406107.866 7  21867604.423       -1341.807
 -19198554.661 7 -15012012.163 8  21346361.211        -929.182
  -1139334.934 5   -382022.899 5  23890479.684        3802.891
 93  5 11  7  6  0.0010000  0  7 31 17  1 23 28 21  3                0.001911030
  -4231962.648 6  -3320652.973 5  24620586.300       -2963.933
 -10843848.056 7  -8451840.488 6  22205953.767        1895.137
 -10235919.264 6  -7871274.304 5  23373088.139       -3388.237
 -13577723.806 8 -11056593.369 9  21451686.526        1228.226
 -18510562.768 7 -14437247.921 7  21859999.218       -1322.369
 -19226263.490 7 -15033603.455 8  21341088.102        -918.005
  -1025090.223 5   -293001.046 5  23912221.276        3813.306
 93  5 11  7  6 30.0010000  0  7 31 17  1 23 28 21  3                0.001911790
  -4320730.444 6  -3389822.638 5  24603694.008       -2953.928
 -10786840.902 7  -8407419.320 6  22216802.239        1905.111
 -10337457.215 6  -7950394.713 5  23353765.442       -3381.081
 -13540744.139 8 -11027778.046 9  21458723.184        1236.822
 -18549939.206 7 -14467930.857 7  21852505.708       -1303.026
 -19253634.184 8 -15054931.265 8  21335880.038        -906.857
   -910527.301 5   -203731.320 5  23934022.143        3823.805
 93  5 11  7  7  0.0010000  0  7 31 17  1 23 28 21  3                0.001912530
  -4409198.803 5  -3458758.901 5  24586859.233       -2943.927
 -10729537.588 7  -8362767.394 6  22227706.240        1914.993
 -10438779.458 6  -8029347.135 5  23334483.854       -3373.810
 -13503510.360 8 -10998764.696 9  21465808.560        1245.293
 -18588742.492 7 -14498167.186 7  21845121.375       -1283.994
 -19280671.760 8 -15075999.500 8  21330734.841        -895.896
   -795648.329 5   -114215.324 5  23955883.182        3834.429
 93  5 11  7  7 30.0010000  0  7 31 17  1 23 28 21  3                0.001913280
  -4497363.647 5  -3527458.823 5  24570082.721       -2933.729
 -10671944.699 7  -8317889.838 6  22238665.631        1924.390
 -10539878.879 6  -8108125.865 5  23315245.692       -3365.949
 -13466025.868 8 -10969556.015 9  21472941.042        1253.530
 -18626968.150 7 -14527953.399 7  21837847.691       -1264.449
 -19307386.973 8 -15096816.535 8  21325650.979        -885.140
   -680454.509 5    -24453.857 5  23977802.991        3844.921
 93  5 11  7  8  0.0010000  0  7 31 17  1 23 28 21  3                0.001914030
  -4585222.195 5  -3595919.976 5  24553364.623       -2923.429
 -10614072.019 7  -8272794.233 6  22249678.308        1933.774
 -10640730.515 6  -8186711.510 5  23296054.668       -3357.434
 -13428304.489 8 -10940162.723 9  21480119.252        1260.991
 -18664608.733 7 -14557283.722 7  21830685.321       -1244.798
 -19333774.083 7 -15117377.928 8  21320629.387        -874.104
   -564946.532 5     65552.362 5  23999784.163        3855.305
 93  5 11  7  8 30.0010000  0  7 31 17  1 23 28 21  3                0.001914790
  -4672765.242 6  -3664135.260 5  24536706.340       -2912.912
 -10555923.382 7  -8227483.616 6  22260743.258        1942.690
 -10741321.951 6  -8265094.479 5  23276912.905       -3348.894
 -13390365.441 8 -10910599.818 9  21487339.145        1268.101
 -18701651.996 7 -14586148.591 7  21823636.080       -1224.862
 -19359832.662 8 -15137683.295 8  21315670.338        -863.441
   -449126.870 5    155801.369 4  24021824.226        3865.689
 93  5 11  7  9  0.0010000  0  7 31 17  1 23 28 21  3                0.001915550
  -4759985.527 5  -3732099.050 5  24520108.335       -2901.901
 -10497506.282 7  -8181963.770 6  22271859.613        1951.742
 -10841653.675 6  -8343274.973 5  23257820.457       -3339.963
 -13352212.469 8 -10880870.228 9  21494599.129        1275.471
 -18738089.317 7 -14614541.309 7  21816702.371       -1204.063
 -19385580.460 8 -15157746.499 8  21310771.180        -853.177
   -333003.309 5    246287.198 5  24043921.510        3875.778
 93  5 11  7  9 30.0010000  0  7 31 17  1 23 28 21  3                0.001916310
  -4846884.596 5  -3799812.639 5  24503570.527       -2891.301
 -10438834.465 7  -8136245.499 6  22283024.912        1959.900
 -10941725.441 6  -8421252.919 5  23238777.859       -3331.493
 -13313844.340 8 -10850972.993 9  21501900.825        1282.402
 -18773904.772 7 -14642449.453 7  21809887.031       -1183.591
 -19411038.788 8 -15177584.159 8  21305927.122        -844.029
   -216584.363 5    337003.203 5  24066075.023        3885.310
 93  5 11  7 10  0.0010000  0  7 31 17  1 23 28 21  3                0.001917090
  -4933456.474 6  -3867271.144 5  24487095.379       -2880.250
 -10379896.343 7  -8090319.705 6  22294240.518        1969.470
 -11041542.348 6  -8499032.344 5  23219782.921       -3323.233
 -13275265.505 8 -10820911.561 9  21509241.801        1289.630
 -18809103.934 7 -14669877.358 7  21803188.476       -1162.956
 -19436220.187 8 -15197206.025 8  21301135.390        -834.805
    -99875.384 5    427945.168 5  24088285.334        3895.033
 93  5 11  7 10 30.0010000  0  7 31 17  1 23 28 21  3                0.001917880
  -5019693.861 6  -3934469.074 5  24470684.772       -2869.011
 -10320663.085 7  -8044163.910 6  22305512.115        1979.268
 -11141114.406 6  -8576620.913 5  23200835.540       -3315.085
 -13236456.728 8 -10790670.948 9  21516627.308        1297.395
 -18843679.855 7 -14696819.642 7  21796609.031       -1142.330
 -19461127.880 7 -15216614.603 8  21296395.432        -825.908
     17123.502 5    519113.073 5  24110549.303        3904.432
 93  5 11  7 11  0.0010000  0  7 31 17  1 23 28 21  3                0.001918690
  -5105596.032 6  -4001405.857 5  24454338.051       -2858.022
 -10261132.986 7  -7997776.819 6  22316839.953        1988.999
 -11240434.669 6  -8654013.273 5  23181935.399       -3306.520
 -13197418.970 8 -10760251.917 9  21524056.158        1304.886
 -18877640.170 7 -14723282.232 7  21790146.667       -1122.007
 -19485762.105 8 -15235810.117 8  21291707.207        -816.439
    134403.146 5    610499.784 5  24132865.216        3913.756
 93  5 11  7 11 30.0010000  0  7 31 17  1 23 28 21  3                0.001919510
  -5191178.507 6  -4068093.433 5  24438053.333       -2847.508
 -10201315.946 7  -7951166.148 6  22328223.124        1998.831
 -11339505.378 6  -8731211.218 5  23163082.494       -3298.227
 -13158159.705 8 -10729660.292 9  21531526.894        1312.285
 -18911008.203 7 -14749283.270 7  21783797.022       -1102.750
 -19510112.791 7 -15254784.653 8  21287073.645        -807.014
    251953.701 5    702097.620 5  24155234.160        3922.640
 93  5 11  7 12  0.0010000  0  7 31 17  1 23 28 21  3                0.001920330
  -5276442.938 6  -4134533.163 5  24421828.978       -2837.014
 -10141197.635 7  -7904320.711 6  22339663.383        2008.702
 -11438325.700 6  -8808214.030 5  23144276.674       -3289.865
 -13118681.065 8 -10698897.705 9  21539039.133        1319.524
 -18943806.660 8 -14774840.521 7  21777555.871       -1083.857
 -19534174.001 8 -15273533.638 8  21282495.114        -797.202
    369771.273 5    793903.362 5  24177655.307        3931.486
 93  5 11  7 12 30.0010000  0  7 31 17  1 23 28 21  3                0.001921130
  -5361386.360 6  -4200722.816 5  24405663.983       -2825.904
 -10080803.420 7  -7857260.285 6  22351155.866        2017.299
 -11536885.349 6  -8885013.692 5  23125521.376       -3280.766
 -13078987.824 8 -10667967.898 9  21546592.574        1326.388
 -18976038.544 7 -14799956.261 7  21771422.109       -1065.181
 -19557939.060 8 -15292051.853 8  21277972.907        -787.272
    487853.231 5    885915.337 5  24200125.009        3940.315
 93  5 11  7 13  0.0010000  0  7 31 17  1 23 28 21  3                0.001921940
  -5445997.265 6  -4266653.391 5  24389562.369       -2814.798
 -10020165.027 7  -7810009.598 6  22362694.959        2025.363
 -11635173.754 6  -8961602.070 5  23106817.934       -3271.871
 -13039093.713 8 -10636881.588 9  21554184.130        1333.456
 -19007715.431 7 -14824639.538 7  21765394.071       -1046.498
 -19581407.170 7 -15310338.695 8  21273506.697        -777.216
    606197.275 5    978131.524 5  24222646.275        3949.136
 93  5 11  7 13 30.0010000  0  7 31 17  1 23 28 21  3                0.001922760
  -5530266.932 6  -4332318.005 5  24373525.878       -2803.080
  -9959280.037 7  -7762566.776 6  22374281.387        2033.665
 -11733200.629 6  -9037986.628 5  23088163.716       -3263.269
 -12998978.725 8 -10605623.142 9  21561817.445        1340.693
 -19038827.611 7 -14848882.809 7  21759473.309       -1027.503
 -19604580.753 7 -15328396.013 8  21269096.812        -767.685
    724809.473 5   1070556.595 4  24245216.242        3958.017
 93  5 11  7 14  0.0010000  0  7 31 17  1 23 28 21  3                0.001923590
  -5614177.733 6  -4397702.970 5  24357558.829       -2790.827
  -9898147.953 7  -7714931.368 6  22385914.406        2041.858
 -11830965.739 6  -9114167.177 6  23069559.278       -3254.281
 -12958656.516 8 -10574203.244 9  21569490.811        1347.481
 -19069351.958 7 -14872668.013 8  21753664.860       -1007.237
 -19627463.819 7 -15346226.966 8  21264742.325        -757.732
    843689.877 5   1163190.418 4  24267839.825        3967.151
 93  5 11  7 14 30.0010000  0  7 31 17  1 23 28 21  3                0.001924440
  -5697718.480 6  -4462799.717 5  24341662.498       -2778.469
  -9836770.901 7  -7667105.096 6  22397593.657        2050.243
 -11928464.920 6  -9190140.565 6  23051005.950       -3245.589
 -12918137.236 8 -10542629.782 9  21577201.125        1353.963
 -19099261.164 7 -14895973.872 8  21747973.119        -986.581
 -19650049.842 8 -15363826.461 8  21260444.489        -747.910
    962840.289 5   1256034.967 4  24290512.870        3975.969
 93  5 11  7 15  0.0010000  0  7 31 17  1 23 28 21  3                0.001925300
  -5780891.897 6  -4527610.059 5  24325835.778       -2766.531
  -9775117.188 7  -7619063.240 6  22409326.017        2060.086
 -12025700.837 6  -9265908.784 6  23032502.862       -3236.784
 -12877407.475 8 -10510892.299 9  21584951.560        1361.394
 -19128537.525 7 -14918786.632 8  21742402.377        -965.096
 -19672328.102 8 -15381186.147 8  21256205.045        -737.313
   1082266.052 5   1349094.031 4  24313238.744        3985.434
 93  5 11  7 15 30.0010000  0  7 31 17  1 23 28 21  3                0.001926180
  -5863696.037 6  -4592132.673 5  24310078.446       -2753.736
  -9713164.519 7  -7570788.473 6  22421115.016        2070.298
 -12122662.571 6  -9341463.304 6  23014051.601       -3227.086
 -12836458.074 8 -10478983.669 9  21592743.765        1368.527
 -19157165.139 7 -14941093.853 8  21736955.069        -943.333
 -19694291.034 8 -15398300.100 8  21252025.818        -726.842
   1201973.990 5   1442372.973 3  24336018.587        3994.951
 93  5 11  7 16  0.0010000  0  6 31 17  1 23 28 21                   0.001927100
  -5946133.063 6  -4656369.330 5  24294391.327       -2742.165
  -9650912.660 7  -7522280.513 6  22432961.240        2079.925
 -12219335.509 6  -9416792.864 6  22995656.165       -3217.612
 -12795300.267 8 -10446912.650 9  21600576.231        1375.546
 -19185147.780 7 -14962898.484 8  21731630.180        -922.229
 -19715946.199 8 -15415174.248 8  21247904.603        -716.734
 93  5 11  7 16 30.0010000  0  6 31 17  1 23 28 21                   0.001928000
  -6028220.774 6  -4720333.762 5  24278771.160       -2730.585
  -9588360.350 6  -7473538.442 6  22444864.257        2090.027
 -12315713.563 6  -9491892.606 6  22977316.313       -3207.713
 -12753912.841 8 -10414662.694 9  21608452.291        1383.529
 -19212497.894 7 -14984210.291 8  21726425.459        -901.452
 -19737289.965 8 -15431805.749 8  21243843.104        -706.345
 93  5 11  7 17  0.0010000  0  6 31 17  1 23 28 21                   0.001928880
  -6109974.640 6  -4784038.015 5  24263213.526       -2719.373
  -9525523.895 7  -7424575.016 6  22456821.976        2099.006
 -12411794.320 6  -9566760.690 6  22959032.493       -3197.544
 -12712293.065 8 -10382231.708 9  21616371.709        1391.171
 -19239244.216 7 -15005051.570 8  21721336.102        -881.432
 -19758336.707 8 -15448205.801 9  21239837.966        -696.712
 93  5 11  7 17 30.0010000  0  6 31 17  1 23 28 21                   0.001929770
  -6191376.680 6  -4847468.116 5  24247722.593       -2707.464
  -9462420.273 7  -7375403.392 6  22468830.752        2107.997
 -12507566.669 6  -9641388.476 6  22940808.090       -3187.255
 -12670444.568 8 -10349622.483 9  21624335.345        1398.725
 -19265387.523 7 -15025422.955 8  21716361.415        -861.406
 -19779093.009 8 -15464379.535 8  21235888.450        -687.024
 93  5 11  7 18  0.0010000  0  6 31 17  1 23 28 21                   0.001930650
  -6272432.650 6  -4910628.620 5  24232296.413       -2696.222
  -9399048.977 7  -7326023.132 6  22480890.442        2116.631
 -12603042.119 6  -9715784.910 6  22922638.703       -3177.719
 -12628377.658 8 -10316843.061 9  21632340.591        1405.765
 -19290932.019 7 -15045327.775 8  21711499.990        -841.484
 -19799556.740 7 -15480325.299 8  21231994.037        -677.136
 93  5 11  7 18 30.0010000  0  6 31 17  1 23 28 21                   0.001931520
  -6353138.685 6  -4973516.374 5  24216938.680       -2684.104
  -9335412.094 6  -7276435.958 6  22493000.030        2125.716
 -12698227.703 6  -9789955.420 6  22904525.547       -3168.159
 -12586105.917 8 -10283904.036 9  21640384.944        1412.209
 -19315870.039 7 -15064759.984 8  21706754.837        -821.181
 -19819714.322 8 -15496032.499 8  21228157.911        -666.924
 93  5 11  7 19  0.0010000  0  6 31 17  1 23 28 21                   0.001932390
  -6433478.707 6  -5036118.940 5  24201651.039       -2671.632
  -9271509.315 7  -7226641.630 6  22505160.264        2134.741
 -12793136.061 6  -9863909.953 6  22886464.740       -3158.994
 -12543644.843 8 -10250817.486 9  21648464.871        1418.539
 -19340194.994 7 -15083714.481 8  21702125.970        -800.252
 -19839572.138 8 -15511506.105 8  21224379.798        -656.755
 93  5 11  7 19 30.0010000  0  6 31 17  1 23 28 21                   0.001933250
  -6513454.475 6  -5098437.750 5  24186431.828       -2660.011
  -9207326.991 7  -7176629.445 6  22517373.466        2144.179
 -12887778.344 6  -9937657.174 6  22868455.070       -3150.288
 -12501000.956 8 -10217588.480 9  21656579.722        1424.542
 -19363894.757 7 -15102181.825 8  21697615.324        -779.741
 -19859124.138 8 -15526741.434 8  21220658.583        -646.672
 93  5 11  7 20  0.0010000  0  6 31 17  1 23 28 21                   0.001934080
  -6593079.148 6  -5160482.893 5  24171278.193       -2648.395
  -9142856.351 6  -7126392.573 6  22529641.433        2153.606
 -12982147.830 7 -10011191.788 6  22850497.450       -3141.006
 -12458168.539 8 -10184212.563 9  21664730.600        1430.820
 -19386973.299 7 -15120165.112 8  21693223.802        -759.100
 -19878366.108 8 -15541735.164 9  21216997.368        -636.385
 93  5 11  7 20 30.0010000  0  6 31 17  1 23 28 21                   0.001934920
  -6672345.414 6  -5222248.755 5  24156194.642       -2636.195
  -9078097.780 7  -7075931.358 6  22541964.491        2163.484
 -13076221.061 7 -10084495.562 6  22832596.671       -3130.654
 -12415142.164 8 -10150685.518 9  21672918.131        1437.525
 -19409433.722 7 -15137666.721 8  21688949.715        -738.470
 -19897304.552 7 -15556492.382 9  21213393.484        -626.397
 93  5 11  7 21  0.0010000  0  6 31 17  1 23 28 21                   0.001935750
  -6751249.897 6  -5283732.740 5  24141180.548       -2624.270
  -9013053.135 6  -7025247.235 6  22554341.997        2172.703
 -13169983.727 6 -10157557.384 6  22814754.047       -3120.147
 -12371909.292 8 -10116997.560 9  21681145.176        1444.326
 -19431277.348 8 -15154687.720 8  21684792.650        -717.912
 -19915947.654 7 -15571019.472 9  21209845.709        -616.605
 93  5 11  7 21 30.0010000  0  6 31 17  1 23 28 21                   0.001936590
  -6829788.429 6  -5344931.614 5  24126234.874       -2611.567
  -8947730.578 7  -6974346.560 6  22566772.608        2181.942
 -13263414.655 6 -10230360.639 6  22796974.574       -3108.661
 -12328480.817 8 -10083157.189 9  21689409.753        1450.974
 -19452509.162 8 -15171231.995 8  21680752.656        -697.535
 -19934300.385 7 -15585320.293 9  21206353.367        -606.974
 93  5 11  7 22  0.0010000  0  6 31 17  1 23 28 21                   0.001937450
  -6907931.616 6  -5405822.337 5  24111365.257       -2597.930
  -8882134.720 6  -6923232.894 6  22579255.369        2190.986
 -13356496.295 6 -10302891.735 6  22779261.378       -3096.913
 -12284847.618 8 -10049157.286 9  21697712.315        1457.681
 -19473123.023 8 -15187294.738 8  21676830.431        -676.698
 -19952363.613 8 -15599395.538 9  21202915.998        -597.368
 93  5 11  7 22 30.0010000  0  6 31 17  1 23 28 21                   0.001938340
  -6985665.103 6  -5466393.853 5  24096573.429       -2584.376
  -8816274.387 6  -6871913.162 6  22591787.620        2199.679
 -13449238.588 6 -10375158.464 6  22761612.418       -3086.025
 -12241023.146 8 -10015008.336 9  21706051.813        1463.955
 -19493103.810 8 -15202864.180 8  21673028.195        -655.281
 -19970144.190 8 -15613250.526 9  21199532.349        -588.068
 93  5 11  7 23  0.0010000  0  6 31 17  1 23 28 21                   0.001939250
  -7062979.897 6  -5526639.171 5  24081859.611       -2569.939
  -8750157.544 6  -6820393.588 6  22604369.310        2208.307
 -13541656.978 7 -10447172.761 6  22744025.309       -3075.149
 -12197006.567 8  -9980709.706 9  21714427.644        1470.463
 -19512434.143 8 -15217926.774 8  21669349.660        -633.324
 -19987647.010 8 -15626889.090 9  21196201.955        -578.820
 93  5 11  7 23 30.0010000  0  6 31 17  1 23 28 21                   0.001940210
  -7139857.754 6  -5586543.974 5  24067229.401       -2555.313
  -8683765.898 6  -6768659.820 6  22617003.372        2217.959
 -13633744.500 7 -10518929.201 6  22726501.941       -3063.975
 -12152790.607 8  -9946255.718 9  21722841.889        1477.585
 -19531102.150 8 -15232473.269 8  21665797.590        -610.995
 -20004870.495 8 -15640309.980 9  21192924.394        -569.155
 93  5 11  7 24  0.0010000  0  6 31 17  1 23 28 21                   0.001941200
  -7216302.857 6  -5646111.539 5  24052683.220       -2541.196
  -8617085.960 6  -6716701.408 6  22629691.961        2227.487
 -13725508.698 7 -10590433.756 6  22709040.599       -3053.577
 -12108360.328 8  -9911634.710 9  21731296.616        1484.286
 -19549099.181 7 -15246496.929 8  21662372.403        -588.685
 -20021801.323 8 -15653502.806 9  21189702.295        -559.515
 93  5 11  7 24 30.0010000  0  6 31 17  1 23 28 21                   0.001942210
  -7292331.965 6  -5705355.001 5  24038216.773       -2527.160
  -8550111.323 6  -6664513.384 6  22642437.195        2237.739
 -13816955.390 7 -10661690.883 6  22691638.636       -3042.590
 -12063730.615 8  -9876858.292 9  21739789.056        1491.392
 -19566418.113 7 -15259992.200 8  21659076.372        -565.857
 -20038437.461 8 -15666466.047 9  21186536.575        -549.313
 93  5 11  7 25  0.0010000  0  6 31 17  1 23 28 21                   0.001943240
  -7367938.636 6  -5764269.231 5  24023829.710       -2513.386
  -8482825.920 6  -6612083.216 6  22655241.154        2247.936
 -13908063.750 7 -10732684.350 6  22674301.364       -3031.395
 -12018881.289 8  -9841910.776 9  21748324.119        1498.442
 -19583069.020 8 -15272966.924 8  21655908.534        -544.277
 -20054771.929 8 -15679194.191 9  21183427.768        -539.485
 93  5 11  7 25 30.0010000  0  6 31 17  1 23 28 21                   0.001944280
  -7443139.009 6  -5822866.885 5  24009518.696       -2500.073
  -8415228.645 6  -6559410.024 6  22668104.707        2258.361
 -13998831.461 7 -10803412.405 6  22657028.727       -3019.925
 -11973815.300 8  -9806794.417 9  21756899.551        1505.950
 -19599076.913 7 -15285440.595 8  21652863.213        -522.986
 -20070790.530 8 -15691676.222 9  21180378.898        -528.412
 93  5 11  7 26  0.0010000  0  7 31 17  1 23 28 21  3                0.001945270
  -7517938.053 6  -5881151.851 5  23995284.886       -2486.467
  -8347330.043 6  -6506501.991 6  22681025.042        2268.194
 -14089254.936 7 -10873872.249 6  22639821.449       -3008.202
 -11928525.160 8  -9771503.399 8  21765517.726        1513.301
 -19614448.277 7 -15297418.287 8  21649937.371        -501.719
 -20086477.558 8 -15703899.872 9  21177394.262        -517.547
    -45721.25515     18787.61711  24825198.763        4161.326
 93  5 11  7 26 30.0010000  0  7 31 17  1 23 28 21  3                0.001946310
  -7592322.833 6  -5939113.983 5  23981130.618       -2472.247
  -8279133.098 6  -6453361.518 6  22694002.890        2278.233
 -14179316.295 7 -10944049.868 6  22622683.633       -2995.708
 -11883007.160 8  -9736034.816 8  21774179.760        1521.401
 -19629178.435 7 -15308896.340 8  21647133.868        -480.317
 -20101839.705 7 -15715870.367 9  21174471.539        -506.496
     79235.792 5    116157.258 1  24848981.197        4168.967
 93  5 11  7 27  0.0010000  0  7 31 17  1 23 28 21  3                0.001947350
  -7666290.247 6  -5996750.876 5  23967055.724       -2458.893
  -8210653.626 6  -6400000.914 6  22707034.056        2287.150
 -14269013.659 7 -11013943.879 6  22605614.517       -2983.988
 -11837256.985 8  -9700385.335 8  21782885.792        1528.545
 -19643286.880 7 -15319889.951 8  21644449.081        -460.051
 -20116881.577 8 -15727591.314 9  21171608.679        -496.105
    204409.717 5    213694.025 1  24872803.035        4175.845
 93  5 11  7 27 30.0010000  0  7 31 17  1 23 28 21  3                0.001948380
  -7739850.546 6  -6054070.623 5  23953057.695       -2445.117
  -8141897.954 6  -6346425.081 6  22720117.848        2296.504
 -14358362.765 7 -11083566.542 6  22588611.991       -2972.486
 -11791297.762 8  -9664572.947 8  21791631.736        1535.324
 -19656769.330 7 -15330395.713 8  21641883.215        -438.717
 -20131600.155 8 -15739060.318 9  21168808.420        -485.391
    329797.205 5    311398.734 2  24896662.719        4183.026
 93  5 11  7 28  0.0010000  0  6 31 17  1 23 28 21                   0.001949450
  -7812997.294 6  -6111068.049 5  23939136.882       -2431.219
  -8072862.310 6  -6292631.059 6  22733255.075        2305.951
 -14447371.545 7 -11152923.975 6  22571674.608       -2961.279
 -11745148.920 8  -9628612.799 8  21800413.188        1541.222
 -19669608.422 7 -15340400.215 8  21639440.427        -417.085
 -20146020.473 7 -15750296.930 9  21166064.068        -475.953
 93  5 11  7 28 30.0010000  0  6 31 17  1 23 28 21                   0.001950490
  -7885732.377 6  -6167744.707 5  23925295.793       -2417.596
  -8003537.365 6  -6238611.613 6  22746446.660        2315.704
 -14536047.088 7 -11222021.756 6  22554799.947       -2950.229
 -11698828.743 8  -9592519.163 8  21809227.765        1546.841
 -19681794.255 7 -15349895.667 8  21637121.265        -395.229
 -20160153.957 8 -15761310.021 9  21163374.520        -466.176
 93  5 11  7 29  0.0010000  0  6 31 17  1 23 28 21                   0.001951530
  -7958054.655 6  -6224099.679 5  23911534.169       -2403.871
  -7933917.663 6  -6184362.498 6  22759694.899        2325.714
 -14624391.716 7 -11290861.709 6  22537987.796       -2939.343
 -11652343.263 8  -9556296.720 8  21818074.012        1552.168
 -19693322.205 7 -15358878.474 8  21634926.981        -373.233
 -20173993.896 8 -15772094.382 9  21160740.955        -456.438
 93  5 11  7 29 30.0010000  0  6 31 17  1 23 28 21                   0.001952580
  -8029960.984 6  -6280130.573 5  23897851.268       -2389.843
  -7864004.127 6  -6129884.453 6  22772999.211        2335.060
 -14712411.699 7 -11359448.667 6  22521237.744       -2928.580
 -11605701.436 8  -9519952.420 8  21826949.408        1557.290
 -19704189.325 7 -15367346.361 8  21632859.447        -351.312
 -20187551.107 8 -15782658.450 9  21158160.770        -447.587
 93  5 11  7 30  0.0010000  0  6 31 17  1 23 28 21                   0.001953650
  -8101442.024 6  -6335830.038 5  23884249.717       -2375.567
  -7793821.335 6  -6075196.544 6  22786354.514        2343.594
 -14800100.419 7 -11427777.479 6  22504551.752       -2917.338
 -11558902.887 8  -9483486.014 8  21835854.445        1562.552
 -19714399.870 7 -15375302.649 8  21630915.980        -329.609
 -20200851.627 8 -15793022.486 9  21155629.901        -439.124
 93  5 11  7 30 30.0010000  0  6 31 17  1 23 28 21                   0.001954730
  -8172489.174 6  -6391191.425 5  23870729.497       -2360.953
  -7723386.834 6  -6020312.521 6  22799757.469        2351.950
 -14887441.646 7 -11495835.538 6  22487931.161       -2905.380
 -11511937.865 8  -9446889.902 8  21844791.526        1568.463
 -19723965.328 7 -15382756.248 8  21629095.689        -308.250
 -20213891.008 8 -15803183.026 9  21153148.769        -430.278
 93  5 11  7 31  0.0010000  0  6 31 17  1 23 28 21                   0.001955830
  -8243101.882 6  -6446214.352 5  23857291.532       -2346.488
  -7652712.500 6  -5965241.617 6  22813206.297        2359.753
 -14974433.096 7 -11563621.076 6  22471376.910       -2893.830
 -11464799.623 8  -9410158.812 8  21853761.695        1574.238
 -19732907.097 7 -15389723.841 8  21627394.586        -287.872
 -20226676.436 8 -15813145.684 9  21150715.994        -422.124
 93  5 11  7 31 30.0010000  0  6 31 17  1 23 28 21                   0.001956940
  -8313276.431 6  -6500895.769 5  23843936.964       -2331.708
  -7581801.688 6  -5909986.451 6  22826700.282        2367.811
 -15061063.850 7 -11631125.501 6  22454891.452       -2881.466
 -11417482.204 8  -9373288.095 8  21862765.762        1580.338
 -19741232.995 7 -15396211.572 8  21625809.972        -267.034
 -20239219.280 8 -15822919.341 9  21148329.067        -413.872
 93  5 11  7 32  0.0010000  0  7 31 17  1 23 28 21  3                0.001958080
  -8383020.398 6  -6555241.677 5  23830664.247       -2317.901
  -7510647.422 6  -5854541.565 6  22840241.280        2376.002
 -15147318.995 7 -11698337.235 6  22438477.835       -2868.907
 -11369984.484 8  -9336276.872 8  21871804.444        1586.341
 -19748939.000 7 -15402216.252 8  21624343.858        -246.690
 -20251509.293 8 -15832495.962 9  21145990.354        -405.311
   -505165.94615      8257.21311  25113063.995        4237.261
 93  5 11  7 32 30.0010000  0  7 31 17  1 23 28 21  3                0.001959170
  -8452345.766 6  -6609261.475 5  23817472.455       -2303.912
  -7439231.384 6  -5798892.714 6  22853831.054        2385.243
 -15233198.812 7 -11765256.586 6  22422135.509       -2856.182
 -11322291.802 8  -9299113.741 8  21880880.390        1593.292
 -19756033.733 7 -15407744.607 8  21622994.072        -226.182
 -20263527.796 8 -15841861.027 9  21143703.469        -395.789
     25465.40815     46058.76011  25137251.951        4242.821
 93  5 11  7 33  0.0010000  0  7 31 17  1 23 28 21  3                0.001960280
  -8521249.957 6  -6662952.984 5  23804361.491       -2289.637
  -7367534.410 6  -5743024.942 6  22867474.077        2394.655
 -15318692.693 7 -11831875.136 6  22405866.294       -2843.182
 -11274393.612 8  -9261790.479 8  21889995.510        1599.964
 -19762509.541 7 -15412790.708 8  21621761.648        -205.291
 -20275258.277 7 -15851001.666 9  21141470.815        -386.052
    152835.581 5    145297.630 1  25161489.883        4248.369
 93  5 11  7 33 30.0010000  0  7 31 17  1 23 28 21  3                0.001961370
  -8589724.147 6  -6716309.484 5  23791331.792       -2275.355
  -7295554.845 6  -5686937.015 6  22881171.776        2403.980
 -15403797.782 7 -11898190.755 6  22389671.739       -2830.622
 -11226291.965 8  -9224308.664 8  21899148.785        1606.626
 -19768344.161 7 -15417337.156 8  21620651.623        -183.687
 -20286683.412 8 -15859904.364 9  21139296.699        -375.460
    280376.073 5    244683.473 1  25185759.177        4254.046
 93  5 11  7 34  0.0010000  0  7 31 17  1 23 28 21  3                0.001962460
  -8657771.825 6  -6769333.648 5  23778382.671       -2261.221
  -7223296.040 6  -5630631.424 6  22894921.977        2413.072
 -15488535.732 7 -11964220.303 6  22373546.656       -2818.754
 -11177989.332 8  -9186670.251 8  21908340.212        1613.385
 -19773530.834 7 -15421378.713 8  21619664.968        -162.293
 -20297782.749 7 -15868553.184 9  21137184.433        -364.816
    408082.759 6    344194.464 1  25210062.328        4259.419
 93  5 11  7 34 30.0010000  0  7 31 17  1 23 28 21  3                0.001963540
  -8725391.804 6  -6822024.518 5  23765514.511       -2246.827
  -7150766.969 6  -5574115.239 6  22908723.192        2422.161
 -15572926.281 7 -12029979.137 6  22357487.813       -2807.176
 -11129497.200 8  -9148884.178 8  21917568.132        1619.193
 -19778076.979 7 -15424921.198 8  21618799.346        -140.715
 -20308570.629 8 -15876959.331 9  21135131.703        -354.450
    535948.600 6    443829.981 1  25234394.113        4264.700
 93  5 11  7 35  0.0010000  0  7 31 17  1 23 28 21  3                0.001964610
  -8792569.011 6  -6874370.362 5  23752730.439       -2231.623
  -7077966.592 6  -5517387.694 6  22922576.889        2431.207
 -15656968.511 7 -12095466.549 7  22341495.414       -2795.736
 -11080846.422 8  -9110974.488 8  21926826.313        1624.145
 -19781962.374 7 -15427948.771 8  21618060.620        -118.302
 -20319049.363 8 -15885124.574 9  21133138.053        -344.178
    663969.275 5    543586.774 1  25258755.857        4269.782
 93  5 11  7 35 30.0010000  0  7 31 17  1 23 28 21  3                0.001965690
  -8859297.191 6  -6926366.360 5  23740032.767       -2216.917
  -7004894.970 6  -5460448.780 6  22936482.603        2440.298
 -15740675.193 7 -12160692.533 7  22325565.791       -2784.609
 -11032048.617 8  -9072950.217 8  21936111.956        1628.902
 -19785176.082 7 -15430452.956 8  21617449.031         -96.015
 -20329225.999 8 -15893054.413 9  21131201.204        -334.335
    792138.057 5    643458.569 2  25283145.105        4274.597
 93  5 11  7 36  0.0010000  0  7 31 17  1 23 28 21  3                0.001966770
  -8925580.136 6  -6978015.359 5  23727419.537       -2201.750
  -6931546.979 6  -5403294.504 6  22950440.072        2449.610
 -15824037.110 7 -12225649.855 7  22309702.694       -2772.589
 -10983117.442 8  -9034822.018 8  21945423.131        1633.294
 -19787726.961 7 -15432440.664 8  21616963.237         -74.134
 -20339122.008 8 -15900765.567 9  21129317.948        -325.478
    920449.199 5    743441.222 2  25307561.243        4279.275
 93  5 11  7 36 30.0010000  0  6 31 17  1 23 28 21                   0.001967840
  -8991409.457 6  -7029310.894 5  23714891.903       -2186.797
  -6857918.496 6  -5345921.643 6  22964450.751        2458.946
 -15907033.330 7 -12290322.216 7  22293908.890       -2760.140
 -10934061.174 8  -8996596.358 8  21954758.366        1637.359
 -19789625.648 7 -15433920.177 8  21616602.157         -52.336
 -20348754.394 8 -15908271.342 9  21127484.568        -316.573
 93  5 11  7 37  0.0010000  0  6 31 17  1 23 28 21                   0.001968920
  -9056789.985 6  -7080256.780 5  23702449.735       -2172.087
  -6784015.498 6  -5288334.895 5  22978514.363        2467.892
 -15989651.333 7 -12354699.861 7  22278187.151       -2747.638
 -10884872.703 8  -8958267.689 8  21964118.409        1641.908
 -19790877.587 7 -15434895.698 8  21616363.613         -31.337
 -20358122.810 8 -15915571.388 9  21125702.241        -308.023
 93  5 11  7 37 30.0010000  0  6 31 17  1 23 28 21                   0.001970000
  -9121741.760 6  -7130868.523 5  23690089.727       -2158.010
  -6709849.736 6  -5230543.393 5  22992627.986        2476.382
 -16071889.572 7 -12418781.603 7  22262537.934       -2734.735
 -10835541.645 8  -8919827.898 8  21973505.848        1646.778
 -19791516.486 7 -15435393.561 8  21616242.243         -11.267
 -20367241.440 7 -15922676.814 9  21123966.352        -299.931
 93  5 11  7 38  0.0010000  0  6 31 17  1 23 28 21                   0.001971090
  -9186274.639 6  -7181153.832 5  23677809.594       -2143.853
  -6635442.849 6  -5172564.027 5  23006786.877        2484.380
 -16153748.067 7 -12482567.397 7  22246960.688       -2722.112
 -10786072.528 8  -8881280.539 8  21982919.422        1651.766
 -19791565.562 7 -15435431.820 8  21616233.473           8.438
 -20376129.165 8 -15929602.311 9  21122275.031        -292.133
 93  5 11  7 38 30.0010000  0  6 31 17  1 23 28 21                   0.001972160
  -9250386.640 6  -7231111.264 5  23665610.739       -2130.186
  -6560800.866 6  -5114401.453 5  23020990.169        2491.842
 -16235229.360 7 -12546059.304 7  22231455.264       -2709.842
 -10736445.412 8  -8842610.049 8  21992362.926        1656.834
 -19791018.016 7 -15435005.153 8  21616337.311          28.219
 -20384774.591 8 -15936339.001 9  21120630.321        -284.110
 93  5 11  7 39  0.0010000  0  6 31 17  1 23 28 21                   0.001973210
  -9314075.261 6  -7280738.719 5  23653491.850       -2115.577
  -6485929.735 6  -5056060.310 5  23035237.446        2499.615
 -16316340.573 7 -12609262.795 7  22216020.740       -2697.495
 -10686666.525 8  -8803821.300 8  22001835.487        1661.676
 -19789873.808 7 -15434113.555 8  21616555.190          47.981
 -20393177.902 8 -15942887.027 9  21119031.268        -276.137
 93  5 11  7 39 30.0010000  0  6 31 17  1 23 28 21                   0.001974240
  -9377321.330 6  -7330021.321 5  23641455.554       -2100.525
  -6410836.025 6  -4997545.754 5  23049527.204        2506.552
 -16397091.339 7 -12672185.409 7  22200653.995       -2685.994
 -10636748.159 8  -8764923.880 8  22011335.339        1666.222
 -19788140.947 7 -15432763.309 8  21616884.734          67.685
 -20401349.509 8 -15949254.532 9  21117476.394        -268.616
 93  5 11  7 40  0.0010000  0  6 31 17  1 23 28 21                   0.001975280
  -9440111.146 6  -7378948.466 5  23629506.673       -2085.504
  -6335527.583 6  -4938863.852 5  23063858.113        2513.961
 -16477500.282 7 -12734841.688 7  22185352.360       -2674.696
 -10586696.284 8  -8725922.421 8  22020860.076        1670.640
 -19785806.597 7 -15430944.329 8  21617328.396          87.901
 -20409283.939 8 -15955437.192 9  21115966.891        -260.379
 93  5 11  7 40 30.0010000  0  6 31 17  1 23 28 21                   0.001976300
  -9502444.838 6  -7427520.172 5  23617645.173       -2070.133
  -6259998.894 6  -4880010.300 5  23078231.002        2521.294
 -16557569.601 7 -12797233.349 7  22170115.479       -2663.316
 -10536514.124 8  -8686819.411 8  22030409.237        1674.628
 -19782870.124 7 -15428656.156 8  21617887.466         107.728
 -20416968.942 8 -15961425.489 9  21114504.223        -252.046
 93  5 11  7 41  0.0010000  0  6 31 17  1 23 28 21                   0.001977330
  -9564315.567 6  -7475731.105 5  23605872.053       -2054.467
  -6184242.178 6  -4820979.084 5  23092646.807        2529.282
 -16637300.785 7 -12859361.506 7  22154942.983       -2651.856
 -10486214.144 7  -8647624.639 8  22039980.620        1678.940
 -19779339.260 7 -15425904.865 8  21618559.653         127.894
 -20424405.966 8 -15967220.572 9  21113088.941        -243.542
 93  5 11  7 41 30.0010000  0  6 31 17  1 23 28 21                   0.001978350
  -9625723.580 6  -7523581.468 5  23594186.984       -2039.465
  -6108243.607 6  -4761759.487 5  23107109.226        2537.281
 -16716686.538 7 -12921220.497 7  22139836.738       -2640.458
 -10435769.374 8  -8608317.025 8  22049579.912        1684.044
 -19775191.859 7 -15422673.126 8  21619348.677         148.818
 -20431580.360 8 -15972810.999 9  21111723.959        -234.670
 93  5 11  7 42  0.0010000  0  6 31 17  1 23 28 21                   0.001979340
  -9686692.860 6  -7571090.028 5  23582585.268       -2025.230
  -6031995.209 6  -4702345.158 5  23121618.555        2545.986
 -16795719.907 7 -12982804.937 7  22124797.339       -2628.105
 -10385180.645 8  -8568897.241 8  22059206.571        1688.657
 -19770414.942 7 -15418950.854 8  21620257.989         169.607
 -20438491.878 8 -15978196.606 9  21110408.846        -226.116
 93  5 11  7 42 30.0010000  0  6 31 17  1 23 28 21                   0.001980310
  -9747223.857 6  -7618256.999 5  23571066.042       -2010.281
  -5955491.337 6  -4642731.764 5  23136177.438        2554.427
 -16874366.074 7 -13044087.641 7  22109831.712       -2614.864
 -10334451.181 8  -8529367.779 8  22068860.087        1693.197
 -19765018.516 7 -15414745.853 8  21621284.487         190.294
 -20445149.909 8 -15983384.670 9  21109141.875        -217.678
 93  5 11  7 43  0.0010000  0  6 31 17  1 23 28 21                   0.001981270
  -9807301.569 6  -7665070.753 5  23559632.777       -1994.948
  -5878729.619 6  -4582917.460 5  23150784.738        2563.019
 -16952614.099 7 -13105060.050 7  22094941.510       -2601.485
 -10283585.566 8  -8489732.250 8  22078539.695        1697.844
 -19758987.316 7 -15410046.219 8  21622432.144         211.859
 -20451553.509 8 -15988374.491 9  21107923.598        -209.231
 93  5 11  7 43 30.0010000  0  6 31 17  1 23 28 21                   0.001982240
  -9866917.325 6  -7711524.626 5  23548288.289       -1979.249
  -5801717.479 6  -4522908.043 5  23165440.052        2571.126
 -17030446.762 7 -13165708.761 7  22080129.855       -2587.294
 -10232582.984 8  -8449989.973 7  22088245.326        1702.174
 -19752308.591 7 -15404842.027 8  21623702.852         233.268
 -20457700.135 8 -15993164.069 9  21106754.039        -200.585
 93  5 11  7 44  0.0010000  0  6 31 17  1 23 28 21                   0.001983220
  -9926048.373 6  -7757600.731 5  23537036.457       -1962.740
  -5724458.462 6  -4462706.184 5  23180142.180        2579.425
 -17107837.402 7 -13226013.076 7  22065403.019       -2572.183
 -10181461.248 8  -8410154.847 7  22097973.571        1705.986
 -19744998.183 7 -15399145.604 8  21625093.700         254.091
 -20463584.137 8 -15997748.997 9  21105633.794        -191.605
 93  5 11  7 44 30.0010000  0  6 31 17  1 23 28 21                   0.001984220
  -9984668.080 6  -7803278.382 5  23525882.572       -1945.469
  -5646954.992 6  -4402313.877 5  23194890.193        2587.646
 -17184784.319 7 -13285971.645 7  22050760.944       -2557.968
 -10130213.503 8  -8370221.529 7  22107725.660        1710.434
 -19737056.706 7 -15392957.461 8  21626605.652         275.468
 -20469189.045 8 -16002116.463 9  21104567.471        -182.099
 93  5 11  7 45  0.0010000  0  6 31 17  1 23 28 21                   0.001985230
 -10042786.237 6  -7848565.293 5  23514822.610       -1928.838
  -5569202.367 6  -4341727.424 5  23209685.467        2596.123
 -17261320.939 7 -13345610.513 7  22036196.549       -2544.283
 -10078835.666 8  -8330186.866 7  22117502.533        1715.127
 -19728473.479 7 -15386269.246 8  21628239.003         296.805
 -20474526.177 8 -16006275.258 9  21103551.547        -173.457
 93  5 11  7 45 30.0010000  0  6 31 17  1 23 28 21                   0.001986250
 -10100409.463 6  -7893466.483 5  23503856.340       -1912.613
  -5491194.617 6  -4280942.200 5  23224529.982        2604.585
 -17337449.597 7 -13404931.459 7  22021709.296       -2530.957
 -10027318.816 7  -8290043.868 7  22127305.806        1719.453
 -19719268.273 7 -15379096.358 8  21629990.338         316.957
 -20479604.653 8 -16010232.504 9  21102584.833        -165.049
 93  5 11  7 46  0.0010000  0  6 31 17  1 23 28 21                   0.001987300
 -10157546.349 6  -7937988.704 5  23492983.056       -1896.841
  -5412919.328 6  -4219948.501 5  23239425.380        2613.550
 -17413182.594 7 -13463944.188 7  22007297.734       -2518.260
  -9975657.226 7  -8249788.076 7  22137136.259        1724.552
 -19709446.200 7 -15371442.809 8  21631859.346         337.915
 -20484431.036 8 -16013993.311 9  21101666.402        -156.953
 93  5 11  7 46 30.0010000  0  6 31 17  1 23 28 21                   0.001988350
 -10214212.244 6  -7982143.987 5  23482200.189       -1881.002
  -5334381.929 6  -4158750.530 5  23254370.116        2622.291
 -17488543.119 7 -13522666.691 7  21992956.962       -2505.750
  -9923839.627 8  -8209410.721 7  22146996.862        1729.869
 -19698982.948 7 -15363289.624 8  21633850.218         359.689
 -20489026.056 8 -16017573.856 9  21100791.856        -149.432
 93  5 11  7 47  0.0010000  0  6 31 17  1 23 28 21                   0.001989400
 -10270417.759 6  -8025940.458 5  23471505.076       -1865.751
  -5255595.093 6  -4097358.200 5  23269362.607        2630.115
 -17563524.143 7 -13581093.420 7  21978688.493       -2492.718
  -9871877.814 8  -8168920.981 7  22156885.189        1734.340
 -19687878.409 8 -15354636.724 8  21635963.503         380.679
 -20493401.019 8 -16020982.911 9  21099959.731        -142.009
 93  5 11  7 47 30.0010000  0  6 31 17  1 23 28 21                   0.001990430
 -10326168.370 6  -8069382.465 5  23460896.359       -1851.002
  -5176588.609 6  -4035794.718 5  23284396.618        2636.905
 -17638109.591 7 -13639211.948 7  21964495.259       -2479.712
  -9819787.914 8  -8128331.465 7  22166797.455        1738.238
 -19676146.856 7 -15345495.278 8  21638195.797         401.477
 -20497544.834 8 -16024211.857 9  21099171.349        -134.326
 93  5 11  7 48  0.0010000  0  6 31 17  1 23 28 21                   0.001991400
 -10381478.753 6  -8112481.491 5  23450370.738       -1836.385
  -5097387.986 6  -3974079.961 5  23299467.493        2643.144
 -17712300.500 7 -13697023.027 7  21950376.711       -2466.414
  -9767573.848 7  -8087645.179 7  22176733.187        1742.489
 -19663787.523 7 -15335864.641 8  21640548.091         422.342
 -20501459.273 8 -16027262.057 9  21098426.391        -126.663
 93  5 11  7 48 30.0010000  0  6 31 17  1 23 28 21                   0.001992310
 -10436345.788 6  -8155234.985 5  23439929.377       -1821.296
  -5017998.389 6  -3912217.984 5  23314574.757        2649.600
 -17786085.504 7 -13754517.763 7  21936336.000       -2452.525
  -9715247.234 7  -8046871.188 7  22186690.873        1745.988
 -19650819.128 7 -15325759.407 8  21643015.904         442.030
 -20505137.398 8 -16030128.125 9  21097726.558        -118.386
 93  5 11  7 49  0.0010000  0  6 31 17  1 23 28 21                   0.001993170
 -10490761.559 6  -8197636.859 5  23429575.012       -1806.416
  -4938405.991 6  -3850197.982 5  23329721.058        2656.413
 -17859455.395 7 -13811689.128 7  21922374.195       -2438.890
  -9662815.100 8  -8006014.973 7  22196668.924        1749.417
 -19637275.714 7 -15315206.115 8  21645592.938         460.709
 -20508559.549 8 -16032794.744 9  21097075.388        -109.889
 93  5 11  7 49 30.0010000  0  6 31 17  1 23 28 21                   0.001993980
 -10544730.896 6  -8239690.899 5  23419305.779       -1791.352
  -4858595.220 6  -3788007.794 5  23344908.765        2664.451
 -17932423.219 7 -13868547.143 7  21908489.428       -2425.664
  -9610274.857 7  -7965074.521 7  22206667.054        1753.444
 -19623168.562 7 -15304213.526 8  21648277.360         479.868
 -20511722.253 8 -16035259.184 9  21096473.676        -100.860
 93  5 11  7 50  0.0010000  0  6 31 17  1 23 28 21                   0.001994760
 -10598244.818 6  -8281390.042 5  23409122.161       -1776.085
  -4778542.763 6  -3725629.262 5  23360142.938        2672.490
 -18005003.174 7 -13925102.936 8  21894678.059       -2413.059
  -9557618.117 7  -7924043.289 7  22216686.930        1756.943
 -19608491.264 7 -15292776.674 8  21651070.725         498.793
 -20514618.102 8 -16037515.675 9  21095922.503         -92.203
 93  5 11  7 50 30.0010000  0  6 31 17  1 23 28 21                   0.001995500
 -10651293.465 6  -8322726.594 5  23399026.583       -1760.333
  -4698248.755 6  -3663062.528 5  23375422.752        2680.529
 -18077209.955 7 -13981367.877 8  21880937.511       -2400.623
  -9504866.580 7  -7882938.198 7  22226724.948        1759.932
 -19593235.516 7 -15280889.088 8  21653973.826         518.466
 -20517250.673 8 -16039567.036 9  21095421.684         -83.183
 93  5 11  7 51  0.0010000  0  6 31 17  1 23 28 21                   0.001996220
 -10703863.238 6  -8363690.111 5  23389023.276       -1744.457
  -4617718.992 6  -3600312.090 5  23390746.824        2687.978
 -18149051.166 7 -14037347.945 8  21867266.337       -2388.757
  -9452015.586 7  -7841755.619 7  22236782.396        1763.358
 -19577370.762 7 -15268526.962 8  21656992.836         539.256
 -20519615.543 8 -16041409.781 9  21094971.397         -74.645
 93  5 11  7 51 30.0010000  0  6 31 17  1 23 28 21                   0.001996920
 -10755951.510 6  -8404278.352 5  23379111.500       -1728.165
  -4536968.583 6  -3537389.700 5  23406113.666        2695.163
 -18220525.233 7 -14093041.922 8  21853664.964       -2376.318
  -9399059.938 7  -7800491.467 7  22246859.369        1766.956
 -19560866.611 7 -15255666.583 8  21660133.094         560.762
 -20521726.996 8 -16043055.070 9  21094569.402         -66.381
 93  5 11  7 52  0.0010000  0  6 31 17  1 23 28 21                   0.001997600
 -10807553.091 6  -8444487.331 5  23369292.044       -1712.015
  -4456016.870 6  -3474310.415 5  23421517.913        2701.525
 -18291619.766 7 -14148440.229 8  21840136.197       -2363.493
  -9346012.289 7  -7759155.634 7  22256954.051        1769.379
 -19543734.324 7 -15242316.757 8  21663393.234         581.273
 -20523611.896 8 -16044523.818 9  21094210.862         -59.518
 93  5 11  7 52 30.0010000  0  6 31 17  1 23 28 21                   0.001998280
 -10858666.509 6  -8484315.970 5  23359565.349       -1695.725
  -4374878.982 6  -3411086.115 5  23436957.749        2707.561
 -18362327.755 7 -14203537.314 8  21826681.544       -2350.325
  -9292895.391 7  -7717765.845 7  22267061.834        1771.709
 -19525996.181 7 -15228494.845 8  21666768.998         600.866
 -20525301.740 8 -16045840.575 9  21093889.204         -53.433
 93  5 11  7 53  0.0010000  0  6 31 17  1 23 28 21                   0.001998970
 -10909303.420 6  -8523773.305 5  23349929.788       -1680.104
  -4293558.825 6  -3347719.817 5  23452432.369        2713.893
 -18432631.780 7 -14258319.620 8  21813302.655       -2336.576
  -9239701.188 7  -7676315.818 7  22277184.187        1774.578
 -19507685.021 7 -15214226.421 8  21670253.729         619.787
 -20526827.942 8 -16047029.824 9  21093598.835         -48.383
 93  5 11  7 53 30.0010000  0  6 31 17  1 23 28 21                   0.001999650
 -10959471.808 6  -8562865.519 5  23340382.542       -1664.508
  -4212041.248 6  -3284199.637 5  23467944.369        2720.627
 -18502510.742 7 -14312770.682 8  21800005.111       -2322.255
  -9186427.101 7  -7634803.544 7  22287321.978        1776.944
 -19488819.263 7 -15199525.828 8  21673843.290         637.666
 -20528207.595 8 -16048104.880 9  21093336.137         -43.652
 93  5 11  7 54  0.0020000  0  6 31 17  1 23 28 21                   0.002000350
 -11009184.125 6  -8601602.397 5  23330921.969       -1649.507
  -4130320.599 6  -3220521.207 5  23483495.415        2727.288
 -18571973.745 7 -14366897.670 8  21786786.940       -2308.365
  -9133092.238 8  -7593243.914 7  22297471.631        1778.797
 -19469429.322 7 -15184416.795 8  21677533.395         655.314
 -20529447.688 7 -16049071.187 9  21093100.251         -38.788
 93  5 11  7 54 30.0020000  0  6 31 17  1 23 28 21                   0.002001040
 -11058444.348 6  -8639987.002 5  23321547.688       -1634.397
  -4048397.859 6  -3156685.343 5  23499085.142        2734.192
 -18641019.595 7 -14420699.595 8  21773647.605       -2294.510
  -9079684.209 7  -7551627.265 7  22307635.194        1781.796
 -19449494.061 7 -15168882.836 8  21681327.183         673.874
 -20530530.124 8 -16049914.638 9  21092894.563         -33.153
 93  5 11  7 55  0.0020000  0  6 31 17  1 23 28 21                   0.002001710
 -11107254.095 6  -8678020.538 5  23312259.856       -1619.375
  -3966269.118 6  -3092688.990 5  23514714.150        2741.113
 -18709652.731 7 -14474179.934 8  21760587.039       -2281.102
  -9026188.265 7  -7509942.120 7  22317814.719        1784.688
 -19428992.451 7 -15152907.562 8  21685228.141         693.134
 -20531432.170 8 -16050617.528 9  21092723.190         -26.560
 93  5 11  7 55 30.0020000  0  6 31 17  1 23 28 21                   0.002002340
 -11155606.686 6  -8715697.888 5  23303059.417       -1603.936
  -3883939.198 6  -3028535.772 5  23530381.639        2747.745
 -18777894.534 7 -14527355.357 8  21747601.147       -2268.050
  -8972609.765 7  -7468192.635 7  22328010.401        1787.494
 -19407916.253 7 -15136484.548 8  21689238.591         712.368
 -20532118.994 8 -16051152.705 9  21092592.443         -18.768
 93  5 11  7 56  0.0020000  0  6 31 17  1 23 28 21                   0.002002890
 -11203499.561 6  -8753017.008 5  23293944.979       -1588.536
  -3801414.333 6  -2964230.697 5  23546084.865        2754.132
 -18845751.702 7 -14580231.058 8  21734688.357       -2255.298
  -8918944.657 7  -7426375.664 7  22338222.363        1790.619
 -19386258.865 7 -15119608.687 7  21693359.697         731.924
 -20532564.894 8 -16051500.163 9  21092508.071         -10.638
 93  5 11  7 56 30.0020000  0  6 31 17  1 23 28 21                   0.002003400
 -11250921.659 6  -8789969.261 5  23284920.667       -1572.698
  -3718709.823 6  -2899785.695 5  23561823.089        2759.710
 -18913223.314 7 -14632806.352 8  21721848.938       -2242.615
  -8865180.808 7  -7384481.739 7  22348453.348        1793.633
 -19364014.448 7 -15102275.370 7  21697592.749         750.999
 -20532771.742 8 -16051661.355 9  21092468.177          -2.988
 93  5 11  7 57  0.0020000  0  6 31 17  1 23 28 21                   0.002003850
 -11297867.909 6  -8826550.731 5  23275987.568       -1557.161
  -3635833.462 6  -2835206.754 5  23577594.111        2765.222
 -18980310.418 7 -14685081.998 8  21709082.521       -2229.931
  -8811335.437 7  -7342524.329 7  22358699.535        1796.099
 -19341212.324 7 -15084507.472 8  21701932.089         769.047
 -20532754.510 8 -16051647.908 9  21092471.624           4.030
 93  5 11  7 57 30.0020000  0  7 31 17  1 23 28 12 21                0.002004210
 -11344345.293 6  -8862766.890 5  23267144.192       -1541.383
  -3552788.699 6  -2770496.546 5  23593396.974        2771.001
 -19047003.718 7 -14737050.789 8  21696391.412       -2216.329
  -8757411.655 7  -7300505.791 7  22368960.580        1798.658
 -19317869.424 7 -15066318.234 7  21706373.832         787.168
   -336793.68815   -277442.43413  25001101.437       -2002.211
 -20532532.846 8 -16051475.192 9  21092513.924          10.516
